[[{"header":{"parameterUnit":"m.s-1","parameterCategory":1,"la1":30.6,"la2":28.766,"lo1":-90.7593,"lo2":-88.6598,"dx":0.0162,"dy":0.0183,"nx":116,"ny":114,"refTime":"2023-01-30T06:00:00:Z","depth":0,"parameterNumber":2,"parameterNumberName":"U-component_of_WINDS"},"data":[0.0,0.0,0.0,0.0,0.0,0.0,0.0,0.0,0.0,0.0,0.0,0.0,0.0,0.0,0.0,0.0,0.0,0.0,0.0,0.0,0.0,0.0,0.0,0.0,0.0,0.0,0.0,0.0,0.0,0.0,0.0,0.0,0.0,0.0,0.0,0.0,0.0,0.0,0.0,0.0,0.0,0.0,0.0,0.0,0.0,0.0,0.0,0.0,0.0,0.0,0.0,0.0,0.0,0.0,0.0,0.0,0.0,0.0,0.0,0.0,0.0,0.0,0.0,0.0,0.0,0.0,0.0,0.0,0.0,0.0,0.0,0.0,0.0,0.0,0.0,0.0,0.0,0.0,0.0,0.0,0.0,0.0,0.0,0.0,0.0,0.0,0.0,0.0,0.0,0.0,0.0,0.0,0.0,0.0,0.0,0.0,0.0,0.0,0.0,0.0,0.0,0.0,0.0,0.0,0.0,0.0,0.0,0.0,0.0,0.0,0.0,0.0,0.0,0.0,0.0,0.0,0.0,0.0,0.0,0.0,0.0,0.0,0.0,0.0,0.0,0.0,0.0,0.0,0.0,0.0,0.0,0.0,0.0,0.0,0.0,0.0,0.0,0.0,0.0,0.0,0.0,0.0,0.0,0.0,0.0,0.0,0.0,0.0,0.0,0.0,0.0,0.0,0.0,0.0,0.0,0.0,0.0,0.0,0.0,0.0,0.0,0.0,0.0,0.0,0.0,0.0,0.0,0.0,0.0,0.0,0.0,0.0,0.0,0.0,0.0,0.0,0.0,0.0,0.0,0.0,0.0,0.0,0.0,0.0,0.0,0.0,0.0,0.0,0.0,0.0,0.0,0.0,0.0,0.0,0.0,0.0,0.0,0.0,0.0,0.0,0.0,0.0,0.0,0.0,0.0,0.0,0.0,0.0,0.0,0.0,0.0,0.0,0.0,0.0,0.0,0.0,0.0,0.0,0.0,0.0,0.0,0.0,0.0,0.0,0.0,0.0,0.0,0.0,0.0,0.0,0.0,0.0,0.0,0.0,0.0,0.0,0.0,0.0,0.0,0.0,0.0,0.0,0.0,0.0,0.0,0.0,0.0,0.0,0.0,0.0,0.0,0.0,0.0,0.0,0.0,0.0,0.0,0.0,0.0,0.0,0.0,0.0,0.0,0.0,0.0,0.0,0.0,0.0,0.0,0.0,0.0,0.0,0.0,0.0,0.0,0.0,0.0,0.0,0.0,0.0,0.0,0.0,0.0,0.0,0.0,0.0,0.0,0.0,0.0,0.0,0.0,0.0,0.0,0.0,0.0,0.0,0.0,0.0,0.0,0.0,0.0,0.0,0.0,0.0,0.0,0.0,0.0,0.0,0.0,0.0,0.0,0.0,0.0,0.0,0.0,0.0,0.0,0.0,0.0,0.0,0.0,0.0,0.0,0.0,0.0,0.0,0.0,0.0,0.0,0.0,0.0,0.0,0.0,0.0,0.0,0.0,0.0,0.0,0.0,0.0,0.0,0.0,0.0,0.0,0.0,0.0,0.0,0.0,0.0,0.0,0.0,0.0,0.0,0.0,0.0,0.0,0.0,0.0,0.0,0.0,0.0,0.0,0.0,0.0,0.0,0.0,0.0,0.0,0.0,0.0,0.0,0.0,0.0,0.0,0.0,0.0,0.0,0.0,0.0,0.0,0.0,0.0,0.0,0.0,0.0,0.0,0.0,0.0,0.0,0.0,0.0,0.0,0.0,0.0,0.0,0.0,0.0,0.0,0.0,0.0,0.0,0.0,0.0,0.0,0.0,0.0,0.0,0.0,0.0,0.0,0.0,0.0,0.0,0.0,0.0,0.0,0.0,0.0,0.0,0.0,0.0,0.0,0.0,0.0,0.0,0.0,0.0,0.0,0.0,0.0,0.0,0.0,0.0,0.0,0.0,0.0,0.0,0.0,0.0,0.0,0.0,0.0,0.0,0.0,0.0,0.0,0.0,0.0,0.0,0.0,0.0,0.0,0.0,0.0,0.0,0.0,0.0,0.0,0.0,0.0,0.0,0.0,0.0,0.0,0.0,0.0,0.0,0.0,0.0,0.0,0.0,0.0,0.0,0.0,0.0,0.0,0.0,0.0,0.0,0.0,0.0,0.0,0.0,0.0,0.0,0.0,0.0,0.0,0.0,0.0,0.0,0.0,0.0,0.0,0.0,0.0,0.0,0.0,0.0,0.0,0.0,0.0,0.0,0.0,0.0,0.0,0.0,0.0,0.0,0.0,0.0,0.0,0.0,0.0,0.0,0.0,0.0,0.0,0.0,0.0,0.0,0.0,0.0,0.0,0.0,0.0,0.0,0.0,0.0,0.0,0.0,0.0,0.0,0.0,0.0,0.0,0.0,0.0,0.0,0.0,0.0,0.0,0.0,0.0,0.0,0.0,0.0,0.0,0.0,0.0,0.0,0.0,0.0,0.0,0.0,0.0,0.0,0.0,0.0,0.0,0.0,0.0,0.0,0.0,0.0,0.0,0.0,0.0,0.0,0.0,0.0,0.0,0.0,0.0,0.0,0.0,0.0,0.0,0.0,0.0,0.0,0.0,0.0,0.0,0.0,0.0,0.0,0.0,0.0,0.0,0.0,0.0,0.0,0.0,0.0,0.0,0.0,0.0,0.0,0.0,0.0,0.0,0.0,0.0,0.0,0.0,0.0,0.0,0.0,0.0,0.0,0.0,0.0,0.0,0.0,0.0,0.0,0.0,0.0,0.0,0.0,0.0,0.0,0.0,0.0,0.0,0.0,0.0,0.0,0.0,0.0,0.0,0.0,0.0,0.0,0.0,0.0,0.0,0.0,0.0,0.0,0.0,0.0,0.0,0.0,0.0,0.0,0.0,0.0,0.0,0.0,0.0,0.0,0.0,0.0,0.0,0.0,0.0,0.0,0.0,0.0,0.0,0.0,0.0,0.0,0.0,0.0,0.0,0.0,0.0,0.0,0.0,0.0,0.0,0.0,0.0,0.0,0.0,0.0,0.0,0.0,0.0,0.0,0.0,0.0,0.0,0.0,0.0,0.0,0.0,0.0,0.0,0.0,0.0,0.0,0.0,0.0,0.0,0.0,0.0,0.0,0.0,0.0,0.0,0.0,0.0,0.0,0.0,0.0,0.0,0.0,0.0,0.0,0.0,0.0,0.0,0.0,0.0,0.0,0.0,0.0,0.0,0.0,0.0,0.0,0.0,0.0,0.0,0.0,0.0,0.0,0.0,0.0,0.0,0.0,0.0,0.0,0.0,0.0,0.0,0.0,0.0,0.0,0.0,0.0,0.0,0.0,0.0,0.0,0.0,0.0,0.0,0.0,0.0,0.0,0.0,0.0,0.0,0.0,0.0,0.0,0.0,0.0,0.0,0.0,0.0,0.0,0.0,0.0,0.0,0.0,0.0,0.0,0.0,0.0,0.0,0.0,0.0,0.0,0.0,0.0,0.0,0.0,0.0,0.0,0.0,0.0,0.0,0.0,0.0,0.0,0.0,0.0,0.0,0.0,0.0,0.0,0.0,0.0,0.0,0.0,0.0,0.0,0.0,0.0,0.0,0.0,0.0,0.0,0.0,0.0,0.0,0.0,0.0,0.0,0.0,0.0,0.0,0.0,0.0,0.0,0.0,0.0,0.0,0.0,0.0,0.0,0.0,0.0,0.0,0.0,0.0,0.0,0.0,0.0,0.0,0.0,0.0,0.0,0.0,0.0,0.0,0.0,0.0,0.0,0.0,0.0,0.0,0.0,0.0,0.0,0.0,0.0,0.0,0.0,0.0,0.0,0.0,0.0,0.0,0.0,0.0,0.0,0.0,0.0,0.0,0.0,0.0,0.0,0.0,0.0,0.0,0.0,0.0,0.0,0.0,0.0,0.0,0.0,0.0,0.0,0.0,0.0,0.0,0.0,0.0,0.0,0.0,0.0,0.0,0.0,0.0,0.0,0.0,0.0,0.0,0.0,0.0,0.0,0.0,0.0,0.0,0.0,0.0,0.0,0.0,0.0,0.0,0.0,0.0,0.0,0.0,0.0,0.0,0.0,0.0,0.0,0.0,0.0,0.0,0.0,0.0,0.0,0.0,0.0,0.0,0.0,0.0,0.0,0.0,0.0,0.0,0.0,0.0,0.0,0.0,0.0,0.0,0.0,0.0,0.0,0.0,0.0,0.0,0.0,0.0,0.0,0.0,0.0,0.0,0.0,0.0,0.0,0.0,0.0,0.0,0.0,0.0,0.0,0.0,0.0,0.0,0.0,0.0,0.0,0.0,0.0,0.0,0.0,0.0,0.0,0.0,0.0,0.0,0.0,0.0,0.0,0.0,0.0,0.0,0.0,0.0,0.0,0.0,0.0,0.0,0.0,0.0,0.0,0.0,0.0,0.0,0.0,0.0,0.0,0.0,0.0,0.0,0.0,0.0,0.0,0.0,0.0,0.0,0.0,0.0,0.0,0.0,0.0,0.0,0.0,0.0,0.0,0.0,0.0,0.0,0.0,0.0,0.0,0.0,0.0,0.0,0.0,0.0,0.0,0.0,0.0,0.0,0.0,0.0,0.0,0.0,0.0,0.0,0.0,0.0,0.0,0.0,0.0,0.0,0.0,0.0,0.0,0.0,0.0,0.0,0.0,0.0,0.0,0.0,0.0,0.0,0.0,0.0,0.0,0.0,0.0,0.0,0.0,0.0,0.0,0.0,0.0,0.0,0.0,0.0,0.0,0.0,0.0,0.0,0.0,0.0,0.0,0.0,0.0,0.0,0.0,0.0,0.0,0.0,0.0,0.0,0.0,0.0,0.0,0.0,0.0,0.0,0.0,0.0,0.0,0.0,0.0,0.0,0.0,0.0,0.0,0.0,0.0,0.0,0.0,0.0,0.0,0.0,0.0,0.0,0.0,0.0,0.0,0.0,0.0,0.0,0.0,0.0,0.0,0.0,0.0,0.0,0.0,0.0,0.0,0.0,0.0,0.0,0.0,0.0,0.0,0.0,0.0,0.0,0.0,0.0,0.0,0.0,0.0,0.0,0.0,0.0,0.0,0.0,0.0,0.0,0.0,0.0,0.0,0.0,0.0,0.0,0.0,0.0,0.0,0.0,0.0,0.0,0.0,0.0,0.0,0.0,0.0,0.0,0.0,0.0,0.0,0.0,0.0,0.0,0.0,0.0,0.0,0.0,0.0,0.0,0.0,0.0,0.0,0.0,0.0,0.0,0.0,0.0,0.0,0.0,0.0,0.0,0.0,0.0,0.0,0.0,0.0,0.0,0.0,0.0,0.0,0.0,0.0,0.0,0.0,0.0,0.0,0.0,0.0,0.0,0.0,0.0,0.0,0.0,0.0,0.0,0.0,0.0,0.0,0.0,0.0,0.0,0.0,0.0,0.0,0.0,0.0,0.0,0.0,0.0,0.0,0.0,0.0,0.0,0.0,0.0,0.0,0.0,0.0,0.0,0.0,0.0,0.0,0.0,0.0,0.0,0.0,0.0,0.0,0.0,0.0,0.0,0.0,0.0,0.0,0.0,0.0,0.0,0.0,0.0,0.0,0.0,0.0,0.0,0.0,0.0,0.0,0.0,0.0,0.0,0.0,0.0,0.0,0.0,0.0,0.0,0.0,0.0,0.0,0.0,0.0,0.0,0.0,0.0,0.0,0.0,0.0,0.0,0.0,0.0,0.0,0.0,0.0,0.0,0.0,0.0,0.0,0.0,0.0,0.0,0.0,0.0,0.0,0.0,0.0,0.0,0.0,0.0,0.0,0.0,0.0,0.0,0.0,0.0,0.0,0.0,0.0,0.0,0.0,0.0,0.0,0.0,0.0,0.0,0.0,0.0,0.0,0.0,0.0,0.0,0.0,0.0,0.0,0.0,0.0,0.0,0.0,0.0,0.0,0.0,0.0,0.0,0.0,0.0,0.0,0.0,0.0,0.0,0.0,0.0,0.0,0.0,0.0,0.0,0.0,0.0,0.0,0.0,0.0,0.0,0.0,0.0,0.0,0.0,0.0,0.0,0.0,0.0,0.0,0.0,0.0,0.0,0.0,0.0,0.0,0.0,0.0,0.0,0.0,0.0,0.0,0.0,0.0,0.0,0.0,0.0,0.0,0.0,6.5047,0.0,0.0,0.0,0.0,0.0,0.0,0.0,0.0,0.0,0.0,0.0,0.0,0.0,0.0,0.0,0.0,0.0,0.0,0.0,0.0,0.0,0.0,0.0,0.0,0.0,0.0,0.0,0.0,0.0,0.0,0.0,0.0,0.0,0.0,0.0,0.0,0.0,0.0,0.0,0.0,0.0,0.0,0.0,0.0,0.0,0.0,0.0,0.0,0.0,0.0,0.0,0.0,0.0,0.0,0.0,0.0,0.0,0.0,0.0,0.0,0.0,0.0,0.0,0.0,0.0,0.0,0.0,0.0,0.0,0.0,0.0,0.0,0.0,0.0,0.0,0.0,0.0,0.0,0.0,0.0,0.0,0.0,0.0,0.0,0.0,0.0,0.0,0.0,0.0,0.0,0.0,0.0,0.0,0.0,0.0,0.0,0.0,0.0,0.0,0.0,0.0,0.0,0.0,0.0,0.0,0.0,0.0,0.0,0.0,0.0,0.0,0.0,0.0,0.0,0.0,0.0,6.5604,0.0,0.0,0.0,0.0,0.0,0.0,0.0,0.0,0.0,0.0,0.0,0.0,0.0,0.0,0.0,0.0,0.0,0.0,0.0,0.0,0.0,0.0,0.0,0.0,0.0,0.0,0.0,0.0,0.0,0.0,0.0,0.0,0.0,0.0,0.0,0.0,0.0,0.0,0.0,0.0,0.0,0.0,0.0,0.0,0.0,0.0,0.0,0.0,0.0,0.0,0.0,0.0,0.0,0.0,0.0,0.0,0.0,0.0,0.0,0.0,0.0,0.0,0.0,0.0,0.0,0.0,0.0,0.0,0.0,0.0,0.0,0.0,0.0,0.0,0.0,0.0,0.0,0.0,0.0,0.0,0.0,0.0,0.0,0.0,0.0,0.0,0.0,0.0,0.0,0.0,0.0,0.0,0.0,0.0,0.0,0.0,0.0,0.0,0.0,0.0,0.0,0.0,0.0,0.0,0.0,0.0,0.0,0.0,6.5326,6.5329,6.5394,6.5326,6.5332,6.5398,6.5593,6.5602,6.5501,6.5559,0.0,0.0,0.0,0.0,0.0,0.0,0.0,0.0,0.0,0.0,0.0,0.0,0.0,0.0,0.0,0.0,0.0,0.0,0.0,0.0,0.0,0.0,0.0,0.0,0.0,0.0,0.0,0.0,0.0,0.0,0.0,0.0,0.0,0.0,0.0,0.0,0.0,0.0,0.0,0.0,0.0,0.0,0.0,0.0,0.0,0.0,0.0,0.0,0.0,0.0,0.0,0.0,0.0,0.0,0.0,0.0,0.0,0.0,0.0,0.0,0.0,0.0,0.0,0.0,0.0,0.0,0.0,0.0,0.0,0.0,0.0,0.0,0.0,0.0,0.0,0.0,0.0,0.0,0.0,0.0,0.0,0.0,0.0,0.0,0.0,0.0,6.0493,6.0483,0.0,0.0,0.0,0.0,0.0,0.0,0.0,0.0,0.0,0.0,0.0,0.0,0.0,6.5087,6.471,6.482,6.4866,6.4879,6.4866,6.4866,6.4879,6.4866,6.5046,6.5323,6.5758,0.0,6.5498,6.5509,0.0,0.0,0.0,0.0,0.0,0.0,0.0,0.0,0.0,0.0,0.0,0.0,0.0,0.0,0.0,0.0,0.0,0.0,0.0,0.0,0.0,0.0,0.0,0.0,0.0,0.0,0.0,0.0,0.0,0.0,0.0,0.0,0.0,0.0,0.0,0.0,0.0,0.0,0.0,0.0,0.0,0.0,0.0,0.0,0.0,0.0,0.0,0.0,0.0,0.0,0.0,0.0,0.0,0.0,0.0,0.0,0.0,0.0,0.0,0.0,0.0,0.0,0.0,0.0,0.0,0.0,0.0,0.0,0.0,0.0,0.0,0.0,0.0,0.0,0.0,0.0,0.0,0.0,0.0,0.0,0.0,0.0,0.0,0.0,0.0,6.0487,6.0425,6.0425,6.0843,6.1246,0.0,0.0,0.0,0.0,0.0,0.0,0.0,0.0,0.0,6.506,6.4818,6.4693,6.4788,6.4529,6.4412,6.4412,6.4855,6.5077,6.5119,6.5552,6.5853,6.598,6.6179,6.6333,6.6476,6.6724,6.6865,6.6892,0.0,0.0,0.0,0.0,6.7125,6.7473,0.0,0.0,0.0,0.0,0.0,0.0,0.0,0.0,0.0,0.0,0.0,0.0,0.0,0.0,0.0,0.0,0.0,0.0,0.0,0.0,0.0,0.0,0.0,0.0,0.0,0.0,0.0,0.0,0.0,0.0,0.0,0.0,0.0,0.0,0.0,0.0,0.0,0.0,0.0,0.0,0.0,0.0,0.0,0.0,0.0,0.0,0.0,0.0,0.0,0.0,0.0,0.0,0.0,0.0,0.0,0.0,0.0,0.0,0.0,0.0,0.0,0.0,0.0,0.0,0.0,0.0,0.0,0.0,0.0,0.0,0.0,0.0,0.0,0.0,0.0,0.0,0.0,6.0599,6.0717,6.0717,6.144,6.2013,0.0,0.0,0.0,0.0,0.0,0.0,6.4621,6.4735,6.4744,6.4603,6.4259,6.4309,6.4775,6.4424,6.4367,6.4587,6.5181,6.5443,6.5475,6.6058,6.6393,6.6512,6.6639,6.6999,6.7501,6.7642,6.7779,6.7905,6.7905,6.7905,6.7905,6.7905,6.8058,6.8245,0.0,0.0,0.0,0.0,0.0,0.0,0.0,0.0,0.0,0.0,0.0,0.0,0.0,0.0,0.0,0.0,0.0,0.0,0.0,0.0,0.0,0.0,0.0,0.0,0.0,0.0,0.0,0.0,0.0,0.0,0.0,0.0,0.0,0.0,0.0,0.0,0.0,0.0,0.0,0.0,0.0,0.0,0.0,0.0,0.0,0.0,0.0,0.0,0.0,0.0,0.0,0.0,0.0,0.0,0.0,0.0,0.0,0.0,0.0,0.0,0.0,0.0,0.0,0.0,0.0,0.0,0.0,0.0,0.0,0.0,0.0,0.0,0.0,0.0,0.0,0.0,0.0,0.0,0.0,6.1554,6.2315,0.0,0.0,0.0,0.0,6.47,6.4781,6.4569,6.4146,6.4543,6.4618,6.4136,6.4101,6.4304,6.4699,6.4665,6.5062,6.5805,6.5842,6.588,6.588,6.5917,6.6137,6.6514,6.6956,6.7599,6.8283,6.7552,6.7503,6.7905,6.7905,6.7905,6.7905,6.7905,6.8436,6.9124,0.0,0.0,0.0,0.0,0.0,0.0,0.0,0.0,0.0,0.0,0.0,0.0,0.0,0.0,0.0,0.0,0.0,0.0,0.0,0.0,0.0,0.0,0.0,0.0,0.0,0.0,0.0,0.0,0.0,0.0,0.0,0.0,0.0,0.0,0.0,0.0,0.0,0.0,0.0,0.0,0.0,0.0,0.0,0.0,0.0,0.0,0.0,0.0,0.0,0.0,0.0,0.0,0.0,0.0,0.0,0.0,0.0,0.0,0.0,0.0,0.0,0.0,0.0,0.0,0.0,0.0,0.0,0.0,0.0,0.0,0.0,0.0,0.0,0.0,0.0,0.0,0.0,0.0,0.0,6.243,6.3197,0.0,6.3734,6.409,6.4336,6.4341,6.436,6.4179,6.3734,6.4374,6.4641,6.4474,6.4758,6.5067,6.5473,6.5226,6.5237,6.5502,6.6055,6.6282,6.6319,6.6835,6.7137,6.7267,6.7434,6.7863,6.8393,6.8094,6.8248,6.8686,6.8686,6.8686,6.8686,6.8686,6.9043,6.9606,0.0,0.0,0.0,0.0,0.0,0.0,0.0,0.0,0.0,0.0,0.0,0.0,0.0,0.0,0.0,0.0,0.0,0.0,0.0,0.0,0.0,0.0,0.0,0.0,0.0,0.0,0.0,0.0,0.0,0.0,0.0,0.0,0.0,0.0,0.0,0.0,0.0,0.0,0.0,0.0,0.0,0.0,5.9605,0.0,0.0,0.0,0.0,0.0,0.0,0.0,0.0,0.0,0.0,0.0,0.0,0.0,0.0,0.0,0.0,0.0,0.0,0.0,0.0,0.0,0.0,0.0,0.0,0.0,0.0,0.0,0.0,0.0,0.0,0.0,0.0,0.0,0.0,6.2593,6.3226,6.2919,6.3807,6.4237,6.3734,6.4082,6.4233,6.3935,6.4165,6.4117,6.3717,6.4575,6.5026,6.4891,6.5143,6.5572,6.6106,6.5842,6.5845,6.6109,6.6659,6.6886,6.6923,6.7731,6.8098,6.8134,6.8398,6.8679,6.898,6.898,6.915,6.9414,6.9195,6.9278,6.9504,6.9504,6.9874,7.04,0.0,0.0,0.0,0.0,0.0,0.0,0.0,0.0,0.0,0.0,0.0,0.0,0.0,0.0,0.0,0.0,0.0,0.0,0.0,0.0,0.0,0.0,0.0,0.0,0.0,0.0,0.0,0.0,0.0,0.0,0.0,0.0,0.0,0.0,0.0,0.0,0.0,0.0,0.0,0.0,0.0,0.0,5.9234,0.0,0.0,0.0,0.0,0.0,0.0,0.0,0.0,0.0,0.0,0.0,0.0,0.0,0.0,0.0,0.0,0.0,0.0,0.0,0.0,0.0,0.0,0.0,0.0,0.0,0.0,0.0,0.0,0.0,0.0,0.0,0.0,0.0,6.1825,6.3129,6.3889,6.3053,6.4044,6.4575,6.4116,6.376,6.3533,6.3516,6.4273,6.4539,6.4165,6.5268,6.5742,6.5344,6.5362,6.5735,6.6512,6.6549,6.696,6.7737,6.7737,6.7737,6.7811,6.8568,6.8928,6.8965,6.9743,7.0117,7.0117,7.0117,7.0117,7.0043,6.9386,6.9605,7.0274,7.0274,7.0794,7.1563,0.0,0.0,0.0,0.0,0.0,0.0,0.0,0.0,0.0,0.0,0.0,0.0,0.0,0.0,0.0,0.0,0.0,0.0,0.0,0.0,0.0,0.0,0.0,0.0,0.0,0.0,0.0,0.0,0.0,0.0,0.0,0.0,0.0,0.0,0.0,0.0,0.0,0.0,0.0,0.0,0.0,0.0,5.8786,0.0,0.0,0.0,0.0,0.0,0.0,0.0,0.0,0.0,0.0,0.0,0.0,0.0,0.0,0.0,0.0,0.0,0.0,0.0,0.0,0.0,0.0,0.0,0.0,0.0,0.0,0.0,0.0,0.0,0.0,0.0,6.254,6.3036,6.298,6.3637,6.4049,6.3816,6.4083,6.4144,6.3696,6.4084,6.4263,6.3978,6.4672,6.5081,6.4977,6.5841,6.6295,6.6182,6.6739,6.7143,6.7363,6.7363,6.7767,6.8568,6.8568,6.8862,6.9456,6.9669,6.9779,6.9779,7.0,7.0117,7.0117,7.0117,7.0117,7.0071,6.9904,6.9949,7.0134,7.0134,7.0528,7.1068,0.0,0.0,0.0,0.0,0.0,0.0,0.0,0.0,0.0,0.0,0.0,0.0,0.0,0.0,0.0,0.0,0.0,0.0,0.0,0.0,0.0,0.0,0.0,0.0,0.0,0.0,0.0,0.0,0.0,0.0,0.0,0.0,0.0,0.0,0.0,0.0,0.0,0.0,0.0,0.0,0.0,0.0,5.8391,5.8725,5.8944,5.9098,5.9365,5.9631,5.991,6.0038,0.0,0.0,0.0,0.0,0.0,0.0,0.0,0.0,0.0,0.0,0.0,0.0,0.0,0.0,0.0,0.0,0.0,0.0,0.0,0.0,0.0,0.0,0.0,0.0,6.2737,6.3229,6.3475,6.3868,6.3954,6.3609,6.4027,6.4191,6.3787,6.4468,6.4851,6.4629,6.5338,6.5809,6.5809,6.6549,6.6996,6.6996,6.7767,6.8208,6.8208,6.8538,6.8942,6.9412,6.9412,6.9633,7.0117,7.044,7.058,7.0617,7.0954,7.1101,7.1101,7.1101,7.1101,0.0,0.0,0.0,0.0,0.0,7.1273,7.1594,0.0,0.0,0.0,0.0,0.0,0.0,0.0,0.0,0.0,0.0,0.0,0.0,0.0,0.0,0.0,0.0,0.0,0.0,0.0,0.0,0.0,0.0,0.0,0.0,0.0,0.0,0.0,0.0,0.0,0.0,0.0,0.0,0.0,0.0,0.0,0.0,0.0,0.0,0.0,0.0,0.0,0.0,5.8094,5.8781,5.8628,5.8209,5.9247,5.9432,5.9311,5.9961,0.0,0.0,0.0,0.0,0.0,0.0,0.0,0.0,0.0,0.0,0.0,0.0,0.0,0.0,0.0,0.0,0.0,0.0,0.0,0.0,0.0,0.0,0.0,0.0,6.2971,6.3454,6.3565,6.3883,6.3829,6.3051,6.3939,6.4515,6.4251,6.4971,6.5435,6.5435,6.6182,6.6623,6.6623,0.0,0.0,0.0,0.0,6.9038,6.9038,6.9743,7.0153,7.022,7.022,7.0293,7.0403,7.1094,7.1454,7.149,7.2195,7.2488,7.2488,7.2488,7.2562,7.2496,7.0954,7.0807,7.1527,7.2232,7.2488,7.2574,0.0,0.0,0.0,0.0,0.0,0.0,0.0,0.0,0.0,0.0,0.0,0.0,0.0,0.0,0.0,0.0,0.0,0.0,0.0,0.0,0.0,0.0,0.0,0.0,0.0,0.0,0.0,0.0,0.0,0.0,0.0,0.0,0.0,0.0,0.0,0.0,0.0,0.0,0.0,0.0,0.0,0.0,5.8008,5.8063,5.8244,5.845,5.838,5.871,5.9187,5.9026,5.9397,5.9914,5.9914,0.0,0.0,0.0,0.0,0.0,0.0,0.0,0.0,0.0,0.0,0.0,0.0,0.0,0.0,0.0,0.0,0.0,0.0,0.0,0.0,6.2598,6.2837,6.3174,6.3886,6.4046,6.4027,6.3864,6.4074,6.4424,6.5014,6.5809,6.6256,6.6256,6.6996,6.748,6.748,6.8238,6.8678,6.8678,6.9449,6.9853,6.9853,7.0007,7.044,7.1057,0.0,0.0,7.2055,7.2195,7.2268,7.2268,7.2415,7.2488,7.2488,7.2488,7.2899,7.3384,7.2422,7.2121,7.2305,7.2452,7.2488,7.262,0.0,0.0,0.0,0.0,0.0,0.0,0.0,0.0,0.0,0.0,0.0,0.0,0.0,0.0,0.0,0.0,0.0,0.0,0.0,0.0,0.0,0.0,0.0,0.0,0.0,0.0,0.0,0.0,0.0,0.0,0.0,0.0,0.0,0.0,0.0,0.0,0.0,0.0,0.0,0.0,0.0,0.0,5.7822,5.7886,5.8063,5.8288,5.8288,5.8545,5.891,5.891,5.9183,5.9502,5.9502,5.9502,5.9537,0.0,0.0,0.0,0.0,0.0,0.0,0.0,0.0,0.0,0.0,0.0,0.0,0.0,0.0,6.1482,6.2077,0.0,6.2469,6.3319,6.3466,6.3753,6.4567,6.4714,6.4714,6.4714,6.5044,6.5448,6.5852,6.6629,6.7106,6.7106,6.7841,6.8311,6.8311,6.9045,6.9486,6.9486,7.0293,7.069,7.069,7.1101,7.1505,7.1901,7.1901,7.2121,7.2496,7.2936,7.3083,7.312,7.3516,7.37,7.37,7.37,7.3957,7.425,7.3846,7.37,7.37,7.37,7.37,7.3773,0.0,0.0,0.0,0.0,0.0,0.0,0.0,0.0,0.0,0.0,0.0,0.0,0.0,0.0,0.0,0.0,0.0,0.0,0.0,0.0,0.0,0.0,0.0,0.0,0.0,0.0,0.0,0.0,0.0,0.0,0.0,0.0,0.0,0.0,0.0,0.0,0.0,0.0,0.0,0.0,0.0,0.0,5.7577,5.7845,5.7945,5.802,5.8358,5.8466,5.8519,5.8865,5.9031,5.9093,5.9093,5.9093,5.9107,5.9187,5.9155,0.0,0.0,0.0,0.0,0.0,0.0,0.0,0.0,6.1102,6.1254,6.1716,6.1814,6.2034,6.2683,6.2939,6.3276,6.3992,6.4243,6.4604,6.5405,6.5515,6.5588,6.5735,6.6219,6.6549,6.6739,6.7474,6.7914,6.7914,6.8678,6.9112,6.9112,6.9889,7.033,7.033,7.1094,7.1527,7.1527,7.2195,7.2488,7.2488,7.2679,7.2716,7.2753,7.356,7.3927,7.3971,7.4617,7.4903,7.4903,7.505,7.5124,7.5168,7.5307,7.538,7.5344,7.5014,7.4903,7.4903,0.0,0.0,0.0,0.0,0.0,0.0,0.0,0.0,0.0,0.0,0.0,0.0,0.0,0.0,0.0,0.0,0.0,0.0,0.0,5.8186,0.0,0.0,0.0,0.0,0.0,0.0,0.0,0.0,0.0,0.0,0.0,0.0,0.0,0.0,0.0,0.0,0.0,0.0,0.0,0.0,0.0,0.0,5.7431,5.7577,5.7739,5.7857,5.8025,5.8082,5.8057,5.8108,5.8369,5.8669,5.8669,5.8669,5.8745,5.9107,0.0,5.8899,5.9969,6.0536,6.0735,6.0463,6.0395,6.0599,0.0,6.1532,6.1734,6.2518,6.2683,6.2683,6.2793,6.3429,6.3986,6.4096,6.4714,6.5441,6.6256,6.6366,6.6629,6.737,6.6886,6.6776,6.7517,6.8274,6.8788,6.8788,6.9522,6.9963,6.9963,7.0727,7.116,7.116,7.1938,7.2378,7.2378,7.2452,7.2488,7.2496,7.323,7.3567,7.3604,7.4404,7.4764,7.4757,7.4874,7.4903,7.494,7.5682,7.5983,7.6056,7.6738,7.7024,7.6848,7.5417,7.4903,7.5021,0.0,0.0,0.0,0.0,0.0,0.0,0.0,0.0,0.0,0.0,0.0,0.0,0.0,0.0,0.0,0.0,0.0,0.0,5.7457,5.8251,5.8651,5.8498,0.0,0.0,0.0,0.0,0.0,0.0,0.0,0.0,0.0,0.0,0.0,0.0,0.0,0.0,0.0,0.0,0.0,0.0,0.0,0.0,5.7295,5.7425,5.7559,5.7685,5.7845,5.7939,0.0,0.0,5.8102,5.8233,5.8233,5.8233,5.8377,5.9,5.9067,0.0,6.0148,6.0535,6.071,6.1018,6.108,6.13,6.2101,6.2285,6.2395,6.2719,6.3203,6.3576,6.3576,6.4237,6.4934,6.5418,6.5778,6.6292,6.7106,6.718,6.751,6.8311,6.8091,6.8017,6.8385,6.8708,6.9075,6.9559,7.0323,7.08,7.08,7.1571,7.2011,7.2011,7.2305,7.2488,7.2488,7.2973,7.32,7.3193,7.4001,7.4404,7.4441,7.5241,7.5865,7.6298,7.6298,7.6298,7.6335,7.6665,7.6812,7.6812,7.7171,7.7281,7.7208,7.6547,7.6298,7.6335,0.0,0.0,0.0,0.0,0.0,0.0,0.0,0.0,0.0,0.0,0.0,0.0,0.0,0.0,0.0,0.0,0.0,0.0,0.0,5.8607,5.8834,5.8596,5.8407,0.0,0.0,0.0,0.0,0.0,0.0,0.0,0.0,0.0,0.0,0.0,0.0,0.0,0.0,0.0,0.0,0.0,0.0,0.0,5.7201,5.7301,5.7443,5.7601,5.7769,5.7898,0.0,0.0,5.8002,5.8033,5.8253,5.8321,5.8505,5.9306,5.9673,6.0009,6.056,6.089,6.1184,6.1777,6.1924,6.2071,6.2683,6.2793,6.2866,6.3123,6.3656,6.417,6.439,6.5081,6.5809,6.6402,6.6703,6.7033,6.7627,6.7877,6.8244,6.8818,6.9112,6.9332,6.9552,6.9545,6.9809,7.0403,7.1167,7.1637,7.1637,7.2195,7.2488,7.2488,7.2716,7.2826,7.2826,7.3634,7.4037,7.4037,7.4837,7.5241,7.5278,7.6049,7.6746,7.7281,7.7281,7.7281,7.7281,7.7281,7.7281,7.7281,7.7281,7.7281,7.7281,7.7281,7.7281,7.7281,0.0,0.0,0.0,0.0,0.0,0.0,0.0,0.0,0.0,0.0,0.0,0.0,0.0,0.0,0.0,0.0,0.0,0.0,0.0,5.9492,5.9496,5.8638,5.8407,5.794,5.7207,0.0,0.0,0.0,0.0,0.0,0.0,0.0,0.0,0.0,0.0,0.0,0.0,0.0,0.0,0.0,0.0,0.0,5.7195,5.7195,5.7363,5.7601,5.7769,0.0,0.0,0.0,5.8002,5.8143,5.8902,5.9153,0.0,6.012,6.0933,0.0,6.1563,6.2138,6.2719,6.2756,6.2756,6.2756,6.2793,6.2793,6.3056,6.3876,6.4066,6.4353,6.5111,6.5919,6.6476,6.6512,6.7143,6.7664,6.77,6.8385,6.8855,6.8892,6.9596,7.0367,7.116,7.1233,7.1233,7.127,7.2011,7.2452,7.2452,7.2488,7.2488,7.2488,7.3274,7.3678,7.3678,7.447,7.4874,7.4867,7.5682,7.6056,7.6093,7.6885,7.7281,7.7281,7.7281,7.7281,7.7281,7.7281,7.7281,7.7281,7.7281,7.7281,7.7281,7.7281,7.7281,7.7281,0.0,0.0,0.0,0.0,0.0,0.0,0.0,0.0,0.0,0.0,0.0,0.0,0.0,0.0,0.0,0.0,0.0,0.0,0.0,5.953,5.9492,5.8638,5.8407,5.794,5.7207,5.7195,5.7195,0.0,0.0,0.0,0.0,0.0,0.0,0.0,0.0,0.0,0.0,0.0,0.0,0.0,0.0,0.0,5.7201,5.7295,5.7437,5.7601,0.0,0.0,0.0,0.0,0.0,0.0,5.9753,0.0,0.0,6.097,0.0,0.0,6.2395,6.2572,6.2793,6.2793,6.2793,6.2939,6.3539,6.3649,6.3906,6.4744,6.5301,6.5785,6.6035,6.6739,6.729,6.729,6.7517,6.7877,6.8421,6.8745,6.9295,7.0353,7.072,7.1204,7.2011,7.16,7.1527,7.2048,7.2342,7.2488,7.2488,7.2488,7.2753,7.3274,7.3567,7.3964,7.447,7.5278,7.5682,7.5718,7.6526,7.6885,7.6922,7.7179,7.7281,7.7281,7.7281,7.7281,7.7281,7.7281,7.7281,7.7281,7.7281,7.7656,7.8177,7.8177,7.8516,7.8809,0.0,0.0,0.0,0.0,0.0,0.0,0.0,0.0,0.0,0.0,0.0,0.0,0.0,0.0,0.0,0.0,0.0,0.0,0.0,0.0,5.9523,5.8708,5.8444,5.794,5.7207,5.7195,5.7195,5.7195,0.0,0.0,0.0,0.0,0.0,0.0,0.0,0.0,0.0,0.0,0.0,0.0,0.0,0.0,5.7282,5.7412,5.7541,0.0,0.0,0.0,0.0,0.0,0.0,0.0,0.0,0.0,0.0,0.0,6.2395,6.2793,6.2793,6.2793,6.2793,6.2793,6.3019,6.3423,6.3986,6.4316,6.4751,6.5552,6.6145,6.6586,6.6886,6.737,6.7811,6.8098,6.8134,6.8421,6.9229,6.9589,7.0132,7.1197,7.1564,7.1938,7.2459,7.2048,7.1938,7.2452,7.2488,7.2488,7.2488,7.2789,7.3164,7.3678,7.4265,7.4808,7.5315,7.6122,7.6526,7.6526,7.7069,7.7281,7.7281,7.7281,7.7281,7.7281,7.7281,7.7281,7.7318,7.7656,7.7766,7.7803,7.8067,7.8552,7.9037,7.9037,7.9368,7.9669,0.0,0.0,0.0,0.0,0.0,0.0,0.0,0.0,0.0,0.0,0.0,0.0,0.0,0.0,0.0,0.0,0.0,0.0,0.0,0.0,0.0,5.8803,5.8466,5.7923,5.7207,5.7195,5.7195,5.7195,0.0,0.0,0.0,0.0,0.0,0.0,0.0,0.0,0.0,0.0,0.0,0.0,0.0,0.0,5.7412,5.7547,0.0,0.0,0.0,0.0,0.0,0.0,0.0,0.0,0.0,6.2181,6.2793,6.2793,6.2793,6.2793,6.2793,6.2793,6.2793,6.2866,6.3503,6.4133,6.4206,6.4824,6.5588,6.6402,6.6549,6.6769,6.7554,6.7737,6.8024,6.8781,6.8928,6.9222,7.0036,7.0837,7.1307,7.1344,7.2048,7.2488,7.2488,7.2488,7.2488,7.2488,7.2488,7.2525,7.2569,7.331,7.3751,7.3824,7.5285,7.613,7.6166,7.6922,7.7281,7.7281,7.7281,7.7281,7.7281,7.7281,7.7281,7.7281,7.7362,7.7362,7.7436,7.8295,7.8662,7.8736,7.9515,7.9816,7.9845,7.9845,7.989,7.9926,0.0,0.0,0.0,0.0,0.0,0.0,0.0,0.0,0.0,0.0,0.0,0.0,0.0,0.0,0.0,0.0,0.0,0.0,0.0,0.0,0.0,0.0,0.0,0.0,0.0,0.0,0.0,0.0,0.0,0.0,0.0,0.0,0.0,0.0,0.0,0.0,0.0,0.0,0.0,0.0,0.0,0.0,5.7553,0.0,0.0,0.0,0.0,0.0,0.0,0.0,6.1037,6.2205,6.2432,6.2646,6.2793,6.2793,6.2793,6.2793,6.2793,6.2793,6.2976,6.3613,6.3949,6.4427,6.5595,6.6035,6.6402,6.7217,6.74,6.748,6.7664,6.8208,6.8678,6.8855,6.9412,7.0073,7.0874,7.116,7.1527,7.2121,7.2378,7.2488,7.2488,7.2488,7.2488,7.2488,7.2488,7.2753,7.334,7.3604,7.4265,7.5432,7.5873,7.6379,7.6995,7.7208,7.7281,7.7281,7.7281,7.7281,7.7281,7.7281,7.7281,7.7355,7.7994,7.8259,7.8332,7.9147,7.9478,7.9522,7.9706,8.0175,8.0681,8.0681,8.1085,8.1607,0.0,0.0,0.0,0.0,0.0,0.0,0.0,0.0,0.0,0.0,0.0,0.0,0.0,0.0,0.0,0.0,0.0,0.0,0.0,0.0,0.0,0.0,0.0,0.0,0.0,0.0,0.0,0.0,0.0,0.0,0.0,0.0,0.0,0.0,0.0,0.0,0.0,0.0,0.0,0.0,0.0,0.0,0.0,0.0,0.0,0.0,0.0,0.0,0.0,6.1331,6.2059,6.2793,6.2793,6.2793,6.2793,6.2793,6.2793,6.2793,6.2793,6.3086,6.3503,6.3986,6.4647,6.5381,6.6292,6.6776,6.7143,6.7627,6.77,6.7811,6.8171,6.8605,6.9148,6.9846,7.0323,7.091,7.1718,7.1821,7.1975,7.2459,7.2488,7.2488,7.2488,7.2488,7.2642,7.301,7.3046,7.323,7.3678,7.4375,7.5175,7.6056,7.6452,7.6848,7.7281,7.7281,7.7281,7.7281,7.7281,7.7509,7.7876,7.7876,7.8067,7.8434,0.0,7.9147,7.9184,7.9992,8.0322,8.0359,8.0726,8.113,8.1525,8.1525,8.1819,8.2194,0.0,0.0,0.0,0.0,0.0,0.0,0.0,0.0,0.0,0.0,0.0,0.0,0.0,0.0,0.0,0.0,0.0,0.0,0.0,0.0,0.0,0.0,0.0,0.0,0.0,0.0,0.0,0.0,0.0,0.0,0.0,0.0,0.0,0.0,0.0,0.0,0.0,0.0,0.0,0.0,0.0,0.0,0.0,0.0,0.0,0.0,0.0,0.0,0.0,0.0,6.2793,6.2793,6.2793,6.2793,6.2793,6.2793,6.2793,6.2829,6.2939,6.3503,6.4133,6.4353,6.5454,6.6512,6.6629,6.718,6.77,6.77,6.7767,6.8061,6.8781,6.9075,6.9699,7.1087,7.138,7.1711,7.2415,7.2488,7.2488,7.2488,7.2488,7.2488,7.2488,7.2606,7.2936,7.3641,7.3898,7.4008,7.4008,7.5322,7.6166,7.6276,7.6922,7.7281,7.7281,7.7391,7.7472,7.7472,7.7582,7.8031,7.878,7.878,7.9147,7.9816,7.9918,0.0,8.0028,8.0828,8.1142,8.1191,8.1897,8.2145,8.2121,8.2121,8.2121,8.2121,0.0,0.0,0.0,0.0,0.0,0.0,0.0,0.0,0.0,0.0,0.0,0.0,0.0,0.0,0.0,0.0,0.0,0.0,0.0,0.0,0.0,0.0,0.0,0.0,0.0,0.0,0.0,0.0,0.0,0.0,0.0,0.0,0.0,0.0,0.0,0.0,0.0,0.0,0.0,0.0,0.0,0.0,0.0,0.0,0.0,0.0,0.0,0.0,0.0,0.0,6.2793,6.2793,6.2793,6.2793,6.2793,6.2793,6.2793,6.2976,6.3686,6.3986,6.4427,6.5748,6.6292,6.6659,6.7327,6.759,6.77,6.77,6.8244,6.8745,6.8855,6.9986,7.0977,7.1233,7.1857,7.2342,7.2496,7.2488,7.2488,7.2488,7.2488,7.2488,7.2488,7.3083,7.3567,7.3678,7.4926,7.5689,7.5689,7.5946,7.6416,7.7069,7.7244,7.7281,7.7281,7.7994,7.8369,7.8369,7.9029,7.9441,7.9596,7.9596,7.9669,7.9853,8.0498,0.0,8.0865,8.1672,8.1884,8.1752,8.1899,8.1844,8.1717,8.1717,8.1717,8.1717,0.0,0.0,0.0,0.0,0.0,0.0,0.0,0.0,0.0,0.0,0.0,0.0,0.0,0.0,0.0,0.0,0.0,0.0,0.0,0.0,0.0,0.0,0.0,0.0,0.0,0.0,5.7363,5.7295,0.0,0.0,0.0,0.0,0.0,0.0,0.0,0.0,0.0,0.0,0.0,0.0,0.0,0.0,0.0,0.0,0.0,0.0,0.0,0.0,0.0,0.0,6.2793,6.2793,6.2793,6.2793,6.2793,6.2793,6.3129,6.3576,6.3986,6.472,6.5528,6.6292,6.6813,6.7217,6.7627,6.77,6.7811,6.8244,6.8635,6.9148,6.9986,7.0793,7.1454,7.1857,7.2268,7.2488,7.2488,7.2488,7.2488,7.2488,7.2488,7.2679,7.3083,7.3457,7.4045,7.4889,7.5652,7.6093,7.6093,7.6489,7.6885,7.7289,7.7729,7.7994,7.7994,7.8817,7.9221,7.9221,7.9633,8.0028,8.0424,8.0424,8.0653,8.1056,8.1452,0.0,8.1664,8.1949,8.2005,8.1885,8.1785,8.1664,8.1587,8.1587,8.1587,8.1587,0.0,0.0,0.0,0.0,0.0,0.0,0.0,0.0,0.0,0.0,0.0,0.0,0.0,0.0,0.0,0.0,0.0,0.0,0.0,0.0,0.0,0.0,0.0,0.0,0.0,0.0,0.0,5.7437,5.7437,0.0,0.0,0.0,0.0,0.0,5.7276,0.0,0.0,0.0,0.0,0.0,0.0,0.0,0.0,0.0,0.0,0.0,0.0,0.0,0.0,0.0,6.2793,6.2793,6.2793,6.2793,6.2829,6.3013,6.3576,6.417,6.4537,6.5528,6.6549,6.6703,6.7217,6.77,6.77,6.7841,6.8134,6.8781,6.9185,6.9802,7.1087,7.1454,7.1754,7.2415,7.2488,7.2488,7.2488,7.2488,7.2488,7.2488,7.246,7.279,7.3604,7.3832,7.4522,7.5975,7.6269,7.6335,7.6341,7.6913,7.7345,7.7528,7.816,7.8631,7.8846,7.9661,8.0065,8.0065,8.0212,8.0653,8.126,8.126,8.1575,8.2137,8.2137,8.2113,0.0,8.1894,8.181,8.1768,8.1624,8.1538,8.1504,8.1504,8.1504,8.1504,0.0,0.0,0.0,0.0,0.0,0.0,0.0,0.0,0.0,0.0,0.0,0.0,0.0,0.0,0.0,0.0,0.0,0.0,0.0,0.0,0.0,0.0,0.0,0.0,0.0,0.0,0.0,5.7565,5.7565,0.0,0.0,0.0,0.0,0.0,0.0,5.7655,5.7744,0.0,0.0,0.0,0.0,0.0,0.0,0.0,0.0,0.0,0.0,6.1435,6.2793,6.2793,6.2793,6.2793,6.2793,6.2793,6.2976,6.3766,6.4023,6.4427,6.5888,6.6402,6.6659,6.7407,6.7664,6.77,6.77,6.8274,6.8818,6.8892,7.0059,7.1123,7.127,7.1901,7.2415,7.2488,7.2488,7.2488,7.2488,7.2488,7.2488,7.2488,7.2373,7.268,7.3626,7.4241,7.5025,7.6012,7.6783,7.7154,7.7022,7.7087,7.7445,7.8206,7.8279,7.8761,7.9661,8.0498,8.0901,8.0893,8.1636,8.2011,8.2084,8.2084,8.2031,8.1919,8.1919,8.1827,0.0,8.1658,8.1555,8.1445,8.1427,8.1305,8.1137,8.1137,8.1137,8.1137,0.0,0.0,0.0,0.0,0.0,0.0,0.0,0.0,0.0,0.0,0.0,0.0,0.0,0.0,0.0,0.0,0.0,0.0,0.0,0.0,0.0,0.0,0.0,0.0,0.0,0.0,0.0,5.7739,5.7739,0.0,0.0,0.0,0.0,0.0,0.0,5.7661,5.7816,0.0,0.0,0.0,0.0,0.0,0.0,0.0,0.0,0.0,0.0,0.0,6.2793,6.2793,6.2793,6.2793,6.2793,6.3166,6.3649,6.3986,6.4427,6.5081,6.6182,6.6849,6.729,6.7627,6.77,6.7847,6.8318,6.8678,6.9185,7.0132,7.0866,7.1454,7.1938,7.2268,7.2488,7.2488,7.2488,7.2488,7.2488,7.2488,7.2488,7.2488,7.2885,7.3494,7.436,7.5079,7.5877,7.6652,7.6873,7.7188,7.7615,7.7872,7.8165,7.845,7.9299,7.9991,8.0534,8.1102,8.141,8.1554,8.1739,8.1835,8.1835,8.1835,8.1802,8.1734,8.1734,8.1655,0.0,8.1512,8.1462,8.1384,8.1252,8.1155,8.1119,8.1119,8.1119,8.1119,0.0,0.0,0.0,0.0,0.0,0.0,0.0,0.0,0.0,0.0,0.0,0.0,0.0,0.0,0.0,0.0,0.0,0.0,0.0,0.0,0.0,0.0,0.0,0.0,0.0,0.0,0.0,0.0,0.0,5.7869,0.0,0.0,5.7739,5.7739,0.0,0.0,0.0,0.0,0.0,0.0,0.0,0.0,0.0,0.0,0.0,0.0,0.0,0.0,0.0,0.0,0.0,6.2793,6.2793,0.0,0.0,6.439,6.5007,6.5845,6.6623,6.7253,6.77,6.77,6.77,6.7914,6.8715,6.9075,6.9626,7.1013,7.149,7.1821,7.2415,7.2488,7.2488,7.2488,7.2488,7.2488,7.2488,7.2488,7.2606,7.2826,7.334,7.4059,7.516,7.5937,7.6579,7.7001,7.7085,7.7413,7.7968,7.8707,7.9128,7.9128,8.0055,8.0742,8.1179,8.145,8.1655,8.181,8.1683,8.1587,8.1587,8.1587,8.159,8.1547,8.1547,8.1512,0.0,8.1358,8.1305,8.1287,8.1173,8.1119,8.1119,8.1119,8.1119,8.1119,0.0,0.0,0.0,0.0,0.0,0.0,0.0,0.0,0.0,0.0,0.0,0.0,0.0,0.0,0.0,0.0,0.0,0.0,0.0,0.0,0.0,0.0,0.0,0.0,0.0,0.0,0.0,0.0,0.0,0.0,5.7997,5.7997,5.7997,5.7997,0.0,0.0,0.0,0.0,0.0,0.0,0.0,0.0,0.0,0.0,0.0,0.0,0.0,0.0,0.0,0.0,0.0,0.0,0.0,0.0,0.0,0.0,6.5845,6.6666,6.748,6.77,6.77,6.77,6.77,6.7914,6.8715,6.9522,7.033,7.1123,7.1938,7.2488,7.2488,7.2488,7.2488,7.2488,7.2488,7.2488,7.2488,7.2488,7.2789,7.3604,7.3567,7.4189,7.5931,7.6681,7.6993,7.6809,7.7559,7.798,7.7988,7.952,8.0367,8.0367,8.027,8.0634,8.1587,8.1587,8.1587,8.1587,8.1587,8.1587,8.1587,8.1587,8.1529,8.1401,8.1401,8.1287,0.0,8.1083,8.1083,8.1083,8.1119,8.1119,8.1119,8.1119,8.1119,8.1119,0.0,0.0,0.0,0.0,0.0,0.0,0.0,0.0,0.0,0.0,0.0,0.0,0.0,0.0,0.0,0.0,0.0,0.0,0.0,0.0,0.0,0.0,0.0,0.0,0.0,0.0,0.0,0.0,0.0,0.0,0.0,0.0,0.0,5.8002,5.8002,5.8002,0.0,0.0,0.0,0.0,0.0,0.0,0.0,0.0,0.0,0.0,0.0,0.0,0.0,0.0,0.0,0.0,0.0,0.0,0.0,0.0,0.0,6.6659,6.7474,6.77,6.77,6.77,6.8098,6.8715,6.9522,7.0323,7.1167,7.1938,7.2305,7.2488,7.2488,7.2488,7.2488,7.2488,7.2488,7.2488,7.2488,7.2488,7.2789,7.3604,7.4617,7.5664,7.6702,7.6839,7.7065,7.7448,7.7598,7.8199,7.9444,7.9842,8.0148,8.0395,8.0788,8.1225,8.1587,8.1365,8.134,8.1443,8.1331,8.1261,8.1261,8.1261,8.1234,8.1181,8.1181,8.1146,0.0,8.1119,8.1119,8.1119,8.1119,8.1119,8.1119,8.1119,8.1119,8.1119,0.0,0.0,0.0,0.0,0.0,0.0,0.0,0.0,0.0,0.0,0.0,0.0,0.0,0.0,0.0,0.0,0.0,0.0,0.0,0.0,0.0,0.0,0.0,0.0,0.0,0.0,0.0,0.0,0.0,0.0,0.0,0.0,0.0,0.0,0.0,0.0,0.0,0.0,0.0,0.0,0.0,0.0,5.818,0.0,0.0,0.0,0.0,0.0,0.0,0.0,0.0,0.0,0.0,0.0,0.0,0.0,0.0,0.0,6.7554,6.77,6.7774,6.8098,6.8531,6.9185,7.0286,7.0947,7.1527,7.2342,7.2488,7.2488,7.2488,7.2488,7.2488,7.2488,7.2488,7.2488,7.2488,7.2753,7.3377,7.4485,7.571,7.66,7.694,7.6838,7.702,7.7766,7.7907,7.8607,8.0122,8.0284,8.0465,8.0655,8.1077,8.1331,8.1408,8.1199,8.1146,8.1278,8.1146,8.1119,8.1119,8.1119,8.1119,8.1119,8.1119,0.0,0.0,8.1119,8.1119,8.1119,8.1119,8.1119,8.1119,8.1119,8.1119,8.1119,0.0,0.0,0.0,0.0,0.0,0.0,0.0,0.0,0.0,0.0,0.0,0.0,0.0,0.0,0.0,0.0,0.0,0.0,0.0,0.0,0.0,0.0,0.0,0.0,0.0,0.0,0.0,0.0,5.8979,5.8597,5.8586,0.0,0.0,0.0,0.0,0.0,0.0,0.0,0.0,0.0,0.0,0.0,0.0,0.0,0.0,0.0,0.0,0.0,0.0,0.0,0.0,0.0,0.0,0.0,0.0,0.0,0.0,0.0,0.0,6.77,6.7877,6.8708,6.8928,6.9405,7.094,7.1344,0.0,7.2342,7.2488,7.2488,7.2488,7.2488,7.2488,7.2488,7.2488,7.2488,7.2488,7.323,7.4375,7.5909,7.6689,7.7029,7.6817,7.6749,7.7005,7.7805,7.8443,7.9215,8.0214,8.0782,8.1119,8.1119,8.1119,8.1119,8.1119,8.1119,8.1119,8.1119,8.1119,8.1119,8.1119,8.1119,8.1119,0.0,8.1119,0.0,0.0,8.1119,8.1119,8.1119,8.1119,8.1119,8.1119,8.1119,8.1119,8.1119,0.0,0.0,0.0,0.0,0.0,0.0,0.0,0.0,0.0,0.0,0.0,0.0,0.0,0.0,0.0,0.0,0.0,0.0,0.0,0.0,0.0,0.0,0.0,0.0,0.0,0.0,0.0,5.9814,5.8979,5.8597,5.8586,5.8192,0.0,0.0,0.0,0.0,0.0,0.0,0.0,0.0,0.0,0.0,0.0,0.0,0.0,0.0,6.2353,6.302,0.0,0.0,0.0,0.0,0.0,0.0,0.0,0.0,6.7554,0.0,0.0,0.0,6.7877,6.8708,6.9376,7.0073,0.0,0.0,0.0,0.0,0.0,7.2488,7.2488,7.2488,7.2488,7.2488,7.2488,7.2488,7.2488,7.3736,7.4984,7.5983,7.6689,7.7029,7.6817,7.723,7.7799,7.8453,7.9199,7.9978,8.0856,8.1029,8.1119,8.1119,8.1119,8.1119,8.1119,8.1119,8.1119,8.1119,8.1119,8.1119,8.1119,8.1119,8.1119,8.1119,0.0,0.0,8.1119,8.1119,8.1119,8.1119,8.1119,8.1119,8.1119,8.1119,8.1119,8.1119,0.0,0.0,0.0,0.0,0.0,0.0,0.0,0.0,0.0,0.0,0.0,0.0,0.0,0.0,0.0,0.0,0.0,0.0,0.0,0.0,0.0,0.0,0.0,0.0,0.0,0.0,0.0,0.0,0.0,5.9079,0.0,0.0,0.0,0.0,0.0,0.0,0.0,0.0,0.0,0.0,5.8297,0.0,0.0,0.0,0.0,0.0,6.2596,6.3104,0.0,6.2978,6.338,6.4202,0.0,0.0,0.0,0.0,6.77,0.0,0.0,6.7951,6.8421,0.0,0.0,0.0,0.0,0.0,0.0,0.0,0.0,7.2488,7.2488,7.2488,7.2488,7.2488,7.2488,7.2745,7.3516,7.4654,7.5732,7.6471,7.6792,7.691,7.6725,7.7288,7.7944,7.8638,7.9462,8.025,8.1047,8.1119,8.1119,8.1119,8.1119,8.1119,8.1119,8.1119,8.1119,8.1119,8.1119,8.1119,8.1119,8.1119,8.1119,8.1119,0.0,0.0,8.1119,8.1119,8.1119,8.1119,8.1119,8.1119,8.1119,8.1119,8.1119,8.1119,0.0,0.0,0.0,0.0,0.0,0.0,0.0,0.0,0.0,0.0,0.0,0.0,0.0,0.0,0.0,0.0,0.0,0.0,0.0,0.0,0.0,0.0,0.0,0.0,0.0,0.0,0.0,0.0,0.0,0.0,0.0,0.0,0.0,0.0,0.0,0.0,0.0,0.0,0.0,0.0,5.8669,0.0,0.0,0.0,0.0,0.0,0.0,0.0,0.0,6.2996,6.3715,6.4964,6.523,0.0,0.0,0.0,0.0,0.0,0.0,0.0,0.0,0.0,0.0,0.0,0.0,0.0,0.0,0.0,0.0,7.2488,7.2488,7.2488,7.2488,7.2488,7.2606,7.3186,7.4683,7.5593,7.6339,7.7006,7.6918,7.6769,7.6768,7.7319,7.8014,7.881,7.9635,8.0395,8.1047,8.1119,8.1119,8.1119,8.1119,8.1119,8.1119,8.1119,8.1119,8.1119,8.1119,8.1119,8.1119,8.1119,8.1119,8.1119,0.0,0.0,8.1119,8.1119,8.1119,8.1119,8.1119,8.1119,8.1119,8.1119,8.1119,8.1119,0.0,0.0,0.0,0.0,0.0,0.0,0.0,0.0,0.0,0.0,0.0,0.0,0.0,0.0,0.0,0.0,0.0,0.0,0.0,0.0,0.0,0.0,0.0,0.0,0.0,0.0,0.0,0.0,0.0,0.0,5.921,5.915,5.8939,0.0,0.0,0.0,0.0,0.0,0.0,0.0,5.8983,0.0,0.0,0.0,0.0,0.0,0.0,0.0,0.0,6.3197,6.4125,6.5736,6.5416,0.0,0.0,0.0,0.0,0.0,6.8623,6.9302,0.0,0.0,0.0,0.0,0.0,0.0,0.0,7.2488,7.2488,7.2488,7.2488,7.2488,7.2488,7.2488,7.3083,7.3854,7.4757,7.5487,7.6201,7.699,7.6814,7.6893,7.7539,7.8161,7.8847,7.9671,8.0468,8.0975,8.1083,8.1119,8.1119,8.1119,8.1119,8.1119,8.1119,8.1119,8.1119,8.1119,8.1119,8.1119,8.1119,8.1119,8.1119,8.1119,0.0,8.1119,8.1119,8.1119,8.1119,8.1119,8.1119,8.1119,8.1119,8.1119,8.1119,8.1119,0.0,0.0,0.0,0.0,0.0,0.0,0.0,0.0,0.0,0.0,0.0,0.0,0.0,0.0,0.0,0.0,0.0,0.0,0.0,0.0,0.0,0.0,0.0,0.0,0.0,0.0,0.0,0.0,0.0,5.9914,5.9524,5.9524,5.9173,5.8597,0.0,0.0,0.0,0.0,0.0,0.0,0.0,0.0,0.0,0.0,0.0,0.0,0.0,0.0,0.0,0.0,6.4737,6.6588,6.586,0.0,0.0,0.0,0.0,0.0,6.879,6.9486,0.0,0.0,0.0,0.0,0.0,0.0,0.0,0.0,7.2488,7.2488,7.2488,7.2488,7.2642,7.3083,7.3817,7.4625,7.5425,7.6132,7.6659,7.6893,7.6733,7.6863,7.7578,7.8283,7.9028,7.9861,8.0649,8.1119,8.1119,8.1119,8.1119,8.1119,8.1119,8.1119,8.1119,8.1119,8.1119,8.1119,8.1119,8.1119,8.1119,8.1119,8.1119,8.1119,0.0,8.1119,8.1119,8.1119,8.1119,8.1119,8.1119,8.1119,8.1119,8.1119,8.1119,8.1119,0.0,0.0,0.0,0.0,0.0,0.0,0.0,0.0,0.0,0.0,0.0,0.0,0.0,0.0,0.0,0.0,0.0,0.0,0.0,0.0,0.0,0.0,0.0,0.0,0.0,0.0,0.0,6.0415,6.0415,6.0256,5.9929,5.9648,5.9224,0.0,0.0,0.0,0.0,0.0,0.0,0.0,0.0,0.0,0.0,0.0,0.0,0.0,0.0,0.0,0.0,0.0,0.0,0.0,0.0,0.0,0.0,0.0,6.8115,6.866,6.9088,6.9633,7.033,0.0,0.0,0.0,0.0,0.0,0.0,0.0,0.0,7.2488,7.2488,7.2488,7.2753,7.3567,7.4338,7.5115,7.5922,7.6596,7.6926,7.679,7.68,7.7079,7.7705,7.8521,7.9309,8.0105,8.0757,8.1119,8.1119,8.1119,8.1119,8.1119,8.1119,8.1119,8.1119,8.1119,8.1119,8.1119,8.1119,8.1119,8.1119,8.1119,8.1119,8.1119,8.1119,8.1119,8.1119,8.1119,8.1119,8.1119,8.1119,8.1119,8.1119,8.1119,8.1119,8.1119,0.0,0.0,0.0,0.0,0.0,0.0,0.0,0.0,0.0,0.0,0.0,0.0,0.0,0.0,0.0,0.0,0.0,0.0,0.0,0.0,0.0,0.0,0.0,0.0,0.0,6.0415,6.0415,6.0415,6.0415,6.0405,6.0324,5.9196,5.8865,0.0,0.0,0.0,0.0,0.0,0.0,0.0,0.0,0.0,0.0,0.0,0.0,0.0,0.0,0.0,0.0,0.0,0.0,0.0,0.0,0.0,0.0,0.0,0.0,6.9173,6.9821,7.0073,0.0,0.0,0.0,0.0,0.0,0.0,0.0,7.2488,0.0,7.2488,7.2488,7.2488,7.2753,7.3567,7.4249,7.4993,7.5791,7.6348,7.6639,7.6622,7.709,7.7741,7.8557,7.9345,8.0142,8.0938,8.1083,8.1119,8.1119,8.1119,8.1119,8.1119,8.1119,8.1119,8.1119,8.1119,8.1119,8.1119,8.1119,8.1119,8.1119,8.1119,8.1119,8.1119,8.1119,8.1119,8.1119,8.1119,8.1119,8.1119,8.1119,8.1119,8.1119,8.1119,8.1119,8.1119,0.0,0.0,0.0,0.0,0.0,0.0,0.0,0.0,0.0,0.0,0.0,0.0,0.0,0.0,0.0,0.0,0.0,0.0,0.0,0.0,0.0,0.0,0.0,6.0068,6.0377,6.0415,6.0415,6.0415,6.0415,6.0415,6.0366,5.9673,0.0,0.0,0.0,0.0,0.0,0.0,0.0,0.0,0.0,0.0,0.0,0.0,0.0,0.0,0.0,0.0,0.0,0.0,0.0,0.0,0.0,0.0,0.0,0.0,0.0,6.8867,6.9851,7.0117,7.0484,0.0,0.0,0.0,0.0,0.0,0.0,7.2488,7.2488,0.0,7.2488,7.2899,7.3523,7.4331,7.5086,7.5825,7.6523,7.6704,7.6692,7.6614,7.7146,7.7833,7.8629,7.9426,8.0214,8.1047,8.1119,8.1119,8.1119,8.1119,8.1119,8.1119,8.1119,8.1119,8.1119,8.1119,8.1119,8.1119,8.1119,8.1119,8.1119,8.1119,8.1119,8.1119,8.1119,8.1119,8.1119,8.1119,8.1119,8.1119,8.1119,8.1119,8.1119,8.1119,8.1119,8.1119,0.0,0.0,0.0,0.0,0.0,0.0,0.0,0.0,0.0,0.0,0.0,0.0,0.0,0.0,0.0,0.0,0.0,0.0,0.0,0.0,0.0,0.0,0.0,6.0415,6.0415,6.0415,6.0415,6.0415,6.0415,6.0415,6.037,0.0,0.0,0.0,0.0,0.0,0.0,0.0,0.0,0.0,0.0,0.0,0.0,0.0,0.0,0.0,0.0,0.0,0.0,0.0,0.0,0.0,0.0,0.0,0.0,0.0,0.0,0.0,6.9864,7.0293,7.0807,0.0,0.0,0.0,0.0,0.0,0.0,7.2488,7.2488,7.2488,7.2488,7.3156,7.3964,7.4757,7.5526,7.6249,7.6891,7.6862,7.6684,7.6512,7.7329,7.8086,7.8666,7.9671,8.0504,8.1047,8.1119,8.1119,8.1119,8.1119,8.1119,8.1119,8.1119,8.1119,8.1119,8.1119,8.1119,8.1119,8.1119,8.1119,8.1119,8.1119,8.1119,8.1119,8.1119,8.1119,8.1119,8.1119,8.1119,8.1119,8.1119,8.1119,8.1119,8.1119,8.1119,8.1119,0.0,0.0,0.0,0.0,0.0,0.0,0.0,0.0,0.0,0.0,0.0,0.0,0.0,0.0,0.0,0.0,0.0,0.0,0.0,0.0,0.0,0.0,0.0,6.0415,6.0415,6.0415,6.0415,6.0415,6.0415,6.0415,6.037,0.0,0.0,0.0,0.0,0.0,0.0,0.0,0.0,0.0,0.0,6.4452,6.4783,0.0,0.0,0.0,0.0,0.0,0.0,0.0,0.0,0.0,0.0,0.0,0.0,0.0,6.897,6.9662,7.0011,7.069,7.149,0.0,0.0,0.0,7.2488,0.0,7.2488,7.2488,7.2488,7.2488,7.2496,7.3164,7.3971,7.4801,7.5472,7.6115,7.6708,7.6684,7.6548,7.6337,7.7732,7.8702,7.8702,8.0142,8.1119,8.1119,8.1119,8.1119,8.1119,8.1119,8.1119,8.1119,8.1119,8.1119,8.1119,8.1119,8.1119,8.1119,8.1119,8.1119,8.1119,8.1119,8.1119,8.1119,8.1119,8.1119,8.1119,8.1119,8.1119,8.1119,8.1119,8.1119,8.1119,8.1119,8.1119,8.1119,0.0,0.0,0.0,0.0,0.0,0.0,0.0,0.0,0.0,0.0,0.0,0.0,0.0,0.0,0.0,0.0,0.0,0.0,0.0,0.0,0.0,0.0,0.0,0.0,0.0,0.0,6.0415,6.0415,6.0415,6.0415,0.0,0.0,0.0,6.0219,0.0,0.0,0.0,0.0,0.0,0.0,0.0,6.4494,6.4355,0.0,0.0,0.0,0.0,0.0,0.0,0.0,0.0,0.0,0.0,0.0,0.0,0.0,6.8491,6.9255,6.9938,7.069,7.149,7.2305,7.2488,7.2488,0.0,7.2488,0.0,0.0,7.2488,7.2679,7.323,7.4001,7.4801,7.5616,7.6322,7.6745,7.6781,7.6684,7.6721,7.7097,7.805,7.8919,7.949,8.0504,8.1119,8.1119,8.1119,8.1119,8.1119,8.1119,8.1119,8.1119,8.1119,8.1119,8.1119,8.1119,8.1119,8.1119,8.1119,8.1119,8.1119,8.1119,8.1119,8.1119,8.1119,8.1119,8.1119,8.1119,8.1119,8.1119,8.1119,8.1119,8.1119,8.1119,8.1119,8.1119,0.0,0.0,0.0,0.0,0.0,0.0,0.0,0.0,0.0,0.0,0.0,0.0,0.0,0.0,0.0,0.0,0.0,0.0,0.0,0.0,0.0,0.0,0.0,0.0,0.0,6.0415,6.0415,0.0,0.0,0.0,0.0,0.0,0.0,6.0894,0.0,0.0,0.0,0.0,0.0,6.3788,6.4494,6.4645,6.4417,0.0,0.0,0.0,0.0,0.0,0.0,0.0,0.0,0.0,0.0,0.0,0.0,6.8452,6.889,6.9559,7.036,7.1167,7.1894,7.2378,7.2488,7.2488,7.2488,7.2488,7.2488,7.2488,7.2488,7.2753,7.3567,7.4316,7.51,7.5975,7.6598,7.6958,7.6809,7.6684,7.683,7.7423,7.8195,7.9028,7.9816,8.0612,8.1119,8.1119,8.1119,8.1119,8.1119,8.1119,8.1119,8.1119,8.1119,8.1119,8.1119,8.1119,8.1119,8.1119,8.1119,8.1119,8.1119,8.1119,8.1119,8.1119,8.1119,8.1119,8.1119,8.1119,8.1119,8.1119,8.1119,8.1119,8.1119,8.1119,8.1119,8.1119,0.0,0.0,0.0,0.0,0.0,0.0,0.0,0.0,0.0,0.0,0.0,0.0,0.0,0.0,0.0,0.0,0.0,0.0,0.0,0.0,0.0,0.0,0.0,0.0,0.0,0.0,0.0,0.0,0.0,0.0,0.0,0.0,6.0908,6.1627,0.0,6.2425,0.0,6.36,6.3863,6.424,6.4659,6.4788,6.4788,6.4788,0.0,0.0,0.0,0.0,0.0,0.0,0.0,0.0,0.0,0.0,6.8476,6.9311,6.981,7.0293,7.1087,7.1894,7.2488,7.2488,7.2488,7.2488,7.2488,7.2488,7.2488,7.2488,7.2569,7.2863,7.3678,7.4366,7.512,7.6047,7.6533,7.6793,7.6769,7.666,7.6813,7.7532,7.8231,7.9028,7.9924,8.0685,8.1119,8.1119,8.1119,8.1119,8.1119,8.1119,8.1119,8.1119,8.1119,8.1119,8.1119,8.1119,8.1119,8.1119,8.1119,8.1119,8.1119,8.1119,8.1119,8.1119,8.1119,8.1119,8.1119,8.1119,8.1119,8.1119,8.1119,8.1119,8.1119,8.1119,8.1119,8.1119,0.0,0.0,0.0,0.0,0.0,0.0,0.0,0.0,0.0,0.0,0.0,0.0,0.0,0.0,0.0,0.0,0.0,0.0,0.0,0.0,0.0,0.0,0.0,0.0,0.0,0.0,0.0,0.0,0.0,0.0,0.0,0.0,0.0,6.1658,0.0,6.3442,0.0,6.4373,6.4748,6.5105,6.4908,6.4788,6.4788,6.4788,6.4836,0.0,0.0,0.0,0.0,0.0,0.0,0.0,6.8971,6.8538,6.8027,6.8817,6.9545,7.0293,7.1087,7.1894,7.2488,7.2488,7.2488,7.2488,7.2488,7.2488,7.2488,7.2488,7.301,7.367,7.447,7.5292,7.6054,7.6768,7.6828,7.6745,7.6643,7.6478,7.6861,7.8276,7.8593,7.9273,8.0685,8.1011,8.1119,8.1119,8.1119,8.1119,8.1119,8.1119,8.1119,8.1119,8.1119,8.1119,8.1119,8.1119,8.1119,0.0,8.1119,8.1119,8.1119,8.1119,8.1119,8.1119,8.1119,8.1119,8.1119,8.1119,8.1119,8.1119,8.1119,8.1119,8.1119,8.1119,8.1119,8.1119,0.0,0.0,0.0,0.0,0.0,0.0,0.0,0.0,0.0,0.0,0.0,0.0,0.0,0.0,0.0,0.0,0.0,0.0,0.0,0.0,0.0,0.0,0.0,0.0,0.0,0.0,0.0,0.0,0.0,0.0,0.0,0.0,0.0,6.2262,0.0,6.3984,6.4776,6.4554,6.458,6.4797,6.4788,6.4677,6.4506,6.4947,6.5347,6.5766,6.6222,0.0,0.0,0.0,0.0,0.0,0.0,0.0,6.8737,6.9304,7.0036,7.0837,7.1644,7.2195,7.2488,7.2488,7.2488,7.2488,7.2488,7.2488,7.2599,7.301,7.3421,7.4052,7.5173,7.5646,7.611,7.6844,7.6721,7.6586,7.6606,7.6429,7.6899,7.8521,7.8702,7.9318,8.0938,8.1119,8.1119,8.1119,8.1119,8.1119,8.1119,8.1119,8.1119,8.1119,8.1119,8.1119,8.1119,8.1119,8.1119,8.1119,8.1119,8.1119,8.1119,8.1119,8.1119,8.1119,8.1119,8.1119,8.1119,8.1119,8.1119,8.1119,8.1119,8.1119,8.1119,8.1119,8.1119,8.1119,0.0,0.0,0.0,0.0,0.0,0.0,0.0,0.0,0.0,0.0,0.0,0.0,0.0,0.0,0.0,0.0,0.0,0.0,0.0,0.0,0.0,0.0,0.0,0.0,0.0,0.0,0.0,0.0,0.0,0.0,0.0,0.0,0.0,6.3144,0.0,0.0,6.5259,6.4603,6.4269,6.424,6.4726,6.4721,6.45,6.5217,6.6006,6.6645,0.0,0.0,0.0,0.0,0.0,0.0,0.0,0.0,6.9598,7.0138,7.0763,7.149,7.2268,7.2488,7.2488,7.2488,7.2488,7.2488,7.2488,7.2599,7.2936,7.3744,7.3891,7.4331,7.569,7.5886,7.6051,7.6692,7.6533,7.6404,7.6548,7.6404,7.6899,7.8521,7.8702,7.9318,8.0938,8.1119,8.1119,8.1119,8.1119,8.1119,8.1119,8.1119,8.1119,8.1119,8.1119,8.1119,8.1119,8.1119,8.1119,8.1119,8.1119,8.1119,8.1119,8.1119,8.1119,8.1119,8.1119,8.1119,8.1119,8.1119,8.1119,8.1119,8.1119,8.1119,8.1119,8.1119,8.1119,8.1119,0.0,0.0,0.0,0.0,0.0,0.0,0.0,0.0,0.0,0.0,0.0,0.0,0.0,0.0,0.0,0.0,0.0,0.0,0.0,0.0,0.0,0.0,0.0,0.0,0.0,0.0,0.0,0.0,0.0,0.0,0.0,0.0,0.0,0.0,0.0,0.0,0.0,6.5121,6.5035,6.4744,6.5138,6.5474,6.5779,6.5883,6.6154,0.0,0.0,0.0,0.0,0.0,6.8857,0.0,0.0,0.0,6.9281,7.0704,7.1233,7.149,7.2268,7.2488,7.2488,7.2488,7.2488,7.2488,7.2488,7.3046,7.378,7.4581,7.4727,7.5014,7.5916,7.6511,7.6867,7.6817,7.6668,7.6495,7.637,7.6337,7.6899,7.8521,7.8702,7.9318,8.0938,8.1119,8.1119,8.1119,8.1119,8.1119,8.1119,8.1119,8.1119,8.1119,8.1119,8.1119,8.1119,8.1119,8.1119,8.1119,8.1119,8.1119,8.1119,8.1119,8.1119,8.1119,8.1119,8.1119,8.1119,8.1119,8.1119,8.1119,8.1119,8.1119,8.1119,8.1119,8.1119,8.1119,0.0,0.0,0.0,0.0,0.0,0.0,0.0,0.0,0.0,0.0,0.0,0.0,0.0,0.0,0.0,0.0,0.0,0.0,0.0,0.0,0.0,0.0,0.0,0.0,0.0,0.0,0.0,0.0,0.0,0.0,0.0,6.3468,6.3816,0.0,0.0,0.0,0.0,0.0,0.0,6.4488,6.5368,6.5567,6.5354,0.0,0.0,0.0,0.0,0.0,0.0,0.0,6.8913,6.8855,6.9416,0.0,0.0,0.0,7.1637,7.2048,7.2415,7.2488,7.2488,7.2488,7.2488,7.2606,7.3083,7.3457,7.4045,7.5322,7.5496,7.5692,7.6506,7.6734,7.6781,7.67,7.6545,7.6404,7.6292,7.6284,7.6899,7.8521,7.8702,7.9318,8.0938,8.1119,8.1119,8.1119,8.1119,8.1119,8.1119,8.1119,8.1119,8.1119,8.1119,8.1119,8.1119,8.1119,8.1119,8.1119,8.1119,8.1119,8.1119,8.1119,8.1119,8.1119,8.1119,8.1119,8.1119,8.1119,8.1119,8.1119,8.1119,8.1119,8.1119,8.1119,8.1119,8.1119,0.0,0.0,0.0,0.0,0.0,0.0,0.0,0.0,0.0,0.0,0.0,0.0,0.0,0.0,0.0,0.0,0.0,0.0,0.0,0.0,0.0,0.0,0.0,0.0,0.0,0.0,0.0,0.0,0.0,0.0,6.4198,6.4306,6.4425,0.0,6.4445,0.0,0.0,0.0,0.0,0.0,0.0,6.5619,0.0,0.0,0.0,0.0,0.0,0.0,0.0,0.0,0.0,0.0,6.9907,7.0622,0.0,0.0,0.0,7.2488,7.2488,7.2488,7.2488,7.2488,7.2642,7.2973,7.3567,7.4008,7.4661,7.5836,7.6109,7.6342,7.6983,7.6814,7.6622,7.6663,7.6462,7.6284,7.6284,7.6284,7.6899,7.8521,7.8702,7.9318,8.0938,8.1119,8.1119,8.1119,8.1119,8.1119,8.1119,8.1119,8.1119,8.1119,8.1119,8.1119,8.1119,8.1119,8.1119,8.1119,8.1119,8.1119,8.1119,8.1119,8.1119,8.1119,8.1119,8.1119,8.1119,8.1119,8.1119,8.1119,8.1119,8.1119,8.1119,8.1119,8.1119,8.1119,0.0,0.0,0.0,0.0,0.0,0.0,0.0,0.0,0.0,0.0,0.0,0.0,0.0,0.0,0.0,0.0,0.0,0.0,0.0,0.0,0.0,0.0,0.0,0.0,0.0,0.0,0.0,0.0,0.0,0.0,6.4195,6.4596,6.4959,6.5337,6.5341,6.4708,6.3662,0.0,0.0,0.0,0.0,0.0,0.0,0.0,0.0,0.0,0.0,0.0,0.0,0.0,0.0,0.0,0.0,0.0,7.1454,0.0,0.0,0.0,7.2488,7.2488,7.2488,7.2488,7.3083,7.3641,7.3678,7.4889,7.5983,7.6093,7.6455,7.6821,7.7069,7.6814,7.6627,7.6753,7.65,7.6284,7.6284,7.6284,7.6899,7.8521,7.8702,7.9318,8.0938,8.1119,8.1119,8.1119,8.1119,8.1119,8.1119,8.1119,8.1119,8.1119,8.1119,8.1119,8.1119,8.1119,8.1119,8.1119,8.1119,8.1119,8.1119,8.1119,8.1119,8.1119,8.1119,8.1119,8.1119,8.1119,8.1119,8.1119,8.1119,8.1119,8.1119,8.1119,8.1119,8.1119,0.0,0.0,0.0,0.0,0.0,0.0,0.0,0.0,0.0,0.0,0.0,0.0,0.0,0.0,0.0,0.0,0.0,0.0,0.0,0.0,0.0,0.0,0.0,0.0,0.0,0.0,0.0,0.0,0.0,6.4169,6.4947,6.4552,6.444,6.4561,6.4307,6.4238,6.433,6.4347,0.0,0.0,0.0,0.0,0.0,0.0,0.0,0.0,0.0,0.0,0.0,0.0,0.0,0.0,0.0,0.0,0.0,7.2415,7.2488,7.2488,7.2488,7.2488,7.2606,7.312,7.3494,7.3971,7.4992,7.5689,7.624,7.6775,7.6841,7.685,7.7069,7.6725,7.6462,7.6635,7.647,7.6284,7.6284,7.6284,7.6718,7.7805,7.8376,7.9136,8.0214,8.0794,8.1119,8.1119,8.1119,8.1119,8.1119,8.1119,8.1119,8.1119,8.1119,8.1119,8.1119,8.1119,8.1119,8.1119,8.1119,8.1119,8.1119,8.1119,8.1119,8.1119,8.1119,8.1119,8.1119,8.1119,8.1119,8.1119,8.1119,8.1119,8.1119,8.1119,8.1119,8.1119,0.0,0.0,0.0,0.0,0.0,0.0,0.0,0.0,0.0,0.0,0.0,0.0,0.0,0.0,0.0,0.0,0.0,0.0,0.0,0.0,0.0,0.0,0.0,0.0,0.0,0.0,0.0,0.0,0.0,0.0,0.0,0.0,6.4091,6.4104,6.3833,6.4017,0.0,0.0,0.0,6.5409,0.0,0.0,6.6999,0.0,0.0,0.0,0.0,0.0,0.0,0.0,0.0,0.0,0.0,0.0,0.0,0.0,0.0,7.2488,7.2488,7.2716,7.3046,7.3567,7.4118,7.4771,7.5873,7.6306,7.6636,7.7179,7.7024,7.6834,7.6953,7.6607,7.6378,7.6581,7.6429,7.6284,7.6284,7.6284,7.661,7.7398,7.8195,7.9028,7.9816,8.0612,8.1119,8.1119,8.1119,8.1119,8.1119,8.1119,8.1119,8.1119,8.1119,8.1119,8.1119,8.1119,8.1119,8.1119,8.1119,8.1119,8.1119,8.1119,8.1119,8.1119,8.1119,8.1119,8.1119,8.1119,8.1119,8.1119,8.1119,8.1119,8.1119,8.1119,8.1119,8.1119,0.0,0.0,0.0,0.0,0.0,0.0,0.0,0.0,0.0,0.0,0.0,0.0,0.0,0.0,0.0,0.0,0.0,0.0,0.0,0.0,0.0,0.0,0.0,0.0,0.0,0.0,0.0,0.0,0.0,0.0,0.0,0.0,6.4099,0.0,6.411,6.4139,6.4208,0.0,6.5423,6.6512,0.0,6.6996,6.77,0.0,0.0,0.0,6.8641,6.8965,0.0,7.0756,0.0,0.0,0.0,0.0,0.0,0.0,0.0,0.0,0.0,0.0,0.0,7.3751,7.4955,7.6093,7.613,7.6738,7.7281,7.7281,7.7024,7.6793,7.6793,7.6517,7.637,7.6573,7.6429,7.6284,7.6284,7.6284,7.6573,7.7362,7.8195,7.9028,7.978,8.0612,8.1119,8.1119,8.1119,8.1119,8.1119,8.1119,8.1119,8.1119,8.1119,8.1119,8.1119,8.1119,8.1119,8.1119,8.1119,8.1119,8.1119,8.1119,8.1119,8.1119,8.1119,8.1119,8.1119,8.1119,8.1119,8.1119,8.1119,8.1119,8.1119,8.1119,8.1119,8.1119,0.0,0.0,0.0,0.0,0.0,0.0,0.0,0.0,0.0,0.0,0.0,0.0,0.0,0.0,0.0,0.0,0.0,0.0,0.0,0.0,0.0,0.0,0.0,0.0,0.0,0.0,0.0,0.0,0.0,0.0,0.0,0.0,0.0,0.0,6.4248,6.4757,6.5828,6.5934,0.0,0.0,6.7143,6.7517,0.0,0.0,0.0,0.0,0.0,7.0139,7.0683,0.0,7.1674,7.2195,0.0,0.0,0.0,0.0,0.0,0.0,7.3193,0.0,0.0,0.0,0.0,0.0,7.6848,7.7142,7.7281,7.7281,7.7024,7.6793,7.6793,7.6517,7.6337,7.6378,7.6353,7.6284,7.6284,7.6284,7.6392,7.661,7.7869,7.8774,7.9028,8.0287,8.1119,0.0,8.1119,8.1119,8.1119,8.1119,8.1119,8.1119,8.1119,8.1119,8.1119,8.1119,8.1119,8.1119,8.1119,8.1119,8.1119,8.1119,8.1119,8.1119,8.1119,8.1119,8.1119,8.1119,8.1119,8.1119,8.1119,8.1119,8.1119,8.1119,8.1119,8.1119,0.0,0.0,0.0,0.0,0.0,0.0,0.0,0.0,0.0,0.0,0.0,0.0,0.0,0.0,0.0,0.0,0.0,0.0,0.0,0.0,0.0,0.0,0.0,0.0,0.0,0.0,0.0,0.0,0.0,0.0,0.0,0.0,0.0,0.0,0.0,0.0,0.0,0.0,0.0,0.0,6.7517,0.0,0.0,6.8708,6.9112,0.0,0.0,0.0,7.1344,7.1674,7.2121,0.0,0.0,0.0,0.0,0.0,0.0,0.0,0.0,0.0,0.0,0.0,0.0,0.0,7.7171,7.7281,7.7281,7.7281,7.7024,7.6793,7.6793,7.6517,7.6284,7.6284,7.6284,7.6284,7.6284,7.6284,7.6428,7.6754,7.7905,7.8847,7.9164,8.0359,8.1119,8.1119,8.1119,8.1119,8.1119,8.1119,8.1119,8.1119,8.1119,8.1119,8.1119,8.1119,8.1119,8.1119,8.1119,8.1119,8.1119,8.1119,8.1119,8.1119,8.1119,8.1119,8.1119,8.1119,8.1119,8.1119,8.1119,8.1119,8.1119,8.1119,8.1119,8.1119,0.0,0.0,0.0,0.0,0.0,0.0,0.0,0.0,0.0,0.0,0.0,0.0,0.0,0.0,0.0,0.0,0.0,0.0,0.0,0.0,0.0,0.0,0.0,0.0,0.0,0.0,0.0,0.0,0.0,0.0,0.0,0.0,0.0,0.0,0.0,0.0,0.0,0.0,0.0,6.7841,6.7841,6.8244,0.0,0.0,6.9626,7.033,7.1123,7.1417,7.1527,7.2268,7.2488,0.0,0.0,0.0,0.0,0.0,7.312,0.0,0.0,0.0,0.0,0.0,0.0,0.0,7.7281,7.7281,7.7281,7.7281,7.704,7.6825,7.6825,7.6549,7.6317,7.6317,7.63,7.6284,7.6284,7.6392,7.6718,7.7406,7.8303,7.91,7.9816,8.0612,8.1119,8.1119,8.1119,8.1119,8.1119,8.1119,8.1119,8.1119,8.1119,8.1119,8.1119,8.1119,8.1119,8.1119,8.1119,8.1119,8.1119,8.1119,8.1119,8.1119,8.1119,8.1119,8.1119,8.1119,8.1119,8.1119,8.1119,8.1119,8.1119,8.1119,8.1119,8.1119,0.0,0.0,0.0,0.0,0.0,0.0,0.0,0.0,0.0,0.0,0.0,0.0,0.0,0.0,0.0,0.0,0.0,0.0,0.0,0.0,0.0,0.0,0.0,0.0,0.0,0.0,0.0,0.0,0.0,0.0,0.0,0.0,0.0,0.0,0.0,0.0,0.0,0.0,0.0,6.8678,6.8678,0.0,6.9038,7.0353,7.094,7.116,7.1975,7.2268,7.2305,7.2459,7.2488,7.2488,0.0,0.0,0.0,7.3274,0.0,0.0,0.0,0.0,0.0,0.0,0.0,0.0,7.7281,7.7281,7.7281,7.7281,7.7178,7.7045,7.7045,7.6765,7.6556,7.6556,7.6412,7.6284,7.6284,7.6863,7.7326,7.7479,7.8774,7.9743,7.9888,8.0612,8.1119,8.1119,8.1119,8.1119,8.1119,8.1119,8.1119,8.1119,8.1119,8.1119,8.1119,8.1119,8.1119,8.1119,8.1119,8.1119,8.1119,8.1119,8.1119,8.1119,8.1119,8.1119,8.1119,8.1119,8.1119,8.1119,8.1119,8.1119,8.1119,8.1119,8.1119,8.1119,0.0,0.0,0.0,0.0,0.0,0.0,0.0,0.0,0.0,0.0,0.0,0.0,0.0,0.0,0.0,0.0,0.0,0.0,0.0,0.0,0.0,0.0,0.0,0.0,0.0,0.0,0.0,0.0,0.0,0.0,0.0,0.0,0.0,0.0,0.0,0.0,0.0,0.0,6.9112,6.9486,6.9486,0.0,7.0169,7.0977,7.1564,7.1938,7.2342,7.2488,7.2488,7.2488,7.2488,0.0,0.0,7.2789,7.3193,0.0,7.4265,7.5073,0.0,0.0,0.0,7.7208,0.0,0.0,0.0,7.7281,7.7281,7.7281,7.7202,7.71,7.71,7.7214,7.7291,7.7291,7.7151,7.7179,7.7578,7.7575,7.766,7.805,7.9173,8.0069,8.0468,8.0866,8.1119,8.1119,8.1119,8.1119,8.1119,8.1119,8.1119,8.1119,8.1119,8.1119,8.1119,8.1119,8.1119,8.1119,8.1119,8.1119,8.1119,8.1119,8.1119,8.1119,8.1119,8.1119,8.1119,8.1119,8.1119,8.1119,8.1119,8.1119,8.1119,8.1119,8.1119,8.1119,0.0,0.0,0.0,0.0,0.0,0.0,0.0,0.0,0.0,0.0,0.0,0.0,0.0,0.0,0.0,0.0,0.0,0.0,0.0,0.0,0.0,0.0,0.0,6.4892,0.0,0.0,0.0,0.0,0.0,0.0,0.0,0.0,0.0,0.0,0.0,0.0,0.0,0.0,0.0,7.033,0.0,7.0881,7.1307,7.1454,7.1938,7.2488,7.2488,7.2488,7.2488,7.2488,7.2488,7.2525,7.2679,7.3193,0.0,0.0,0.0,0.0,0.0,0.0,0.0,0.0,0.0,7.7281,0.0,0.0,0.0,7.7281,7.7225,7.7184,7.7367,7.7744,7.7997,7.7851,7.7959,7.8199,7.8526,7.8291,7.8281,7.8855,7.9635,8.0395,8.1047,8.1119,8.1119,8.1119,8.1119,8.1119,8.1119,8.1119,8.1119,8.1119,8.1119,8.1119,8.1119,8.1119,8.1119,8.1119,8.1119,8.1119,8.1119,8.1119,8.1119,8.1119,8.1119,8.1119,8.1119,8.1119,8.1119,8.1119,8.1119,8.1119,8.1119,8.1119,8.1119,8.1119,0.0,0.0,0.0,0.0,0.0,0.0,0.0,0.0,0.0,0.0,0.0,0.0,0.0,0.0,0.0,0.0,0.0,0.0,6.4259,0.0,0.0,0.0,0.0,0.0,6.6285,0.0,0.0,0.0,0.0,0.0,0.0,0.0,0.0,0.0,6.8385,0.0,0.0,0.0,7.1087,0.0,7.1938,7.1865,0.0,7.2085,7.2415,7.2488,7.2488,7.2488,7.2488,0.0,7.2488,7.2606,0.0,7.3641,7.3971,7.5395,0.0,0.0,0.0,0.0,0.0,0.0,7.7281,0.0,0.0,0.0,7.7281,7.7281,0.0,7.7523,7.8301,0.0,0.0,7.7325,7.824,7.8555,7.7243,7.8786,7.9998,7.9787,8.0468,8.1011,8.1083,8.1119,8.1119,8.1119,8.1119,8.1119,8.1119,8.1119,8.1119,8.1119,8.1119,8.1119,8.1119,8.1119,8.1119,8.1119,8.1119,8.1119,8.1119,8.1119,8.1119,8.1119,8.1119,8.1119,8.1119,8.1119,8.1119,8.1119,8.1119,8.1119,8.1119,8.1119,8.1119,8.1119,0.0,0.0,0.0,0.0,0.0,0.0,0.0,0.0,0.0,0.0,0.0,0.0,0.0,0.0,0.0,0.0,0.0,6.5317,0.0,0.0,0.0,0.0,0.0,0.0,0.0,0.0,0.0,0.0,6.6066,0.0,0.0,0.0,0.0,0.0,6.9229,0.0,7.0353,0.0,7.1564,0.0,0.0,0.0,0.0,7.2378,7.2488,7.2488,7.2488,7.2488,7.2488,0.0,7.2826,0.0,0.0,0.0,0.0,0.0,0.0,0.0,0.0,0.0,0.0,0.0,0.0,0.0,7.7281,0.0,7.7281,0.0,0.0,0.0,0.0,0.0,0.0,0.0,7.978,7.9994,7.9803,8.0142,8.0344,8.0191,8.0814,8.1217,8.1092,8.1119,8.1119,8.1119,8.1119,8.1119,8.1119,8.1119,8.1119,8.1119,8.1119,8.1119,8.1119,8.1119,8.1119,8.1119,8.1119,8.1119,8.1119,8.1119,8.1119,8.1119,8.1119,8.1119,8.1119,8.1119,8.1119,8.1119,8.1119,8.1119,8.1119,8.1119,8.1119,8.1119,0.0,0.0,0.0,0.0,0.0,0.0,0.0,0.0,0.0,0.0,0.0,0.0,6.5155,6.5576,0.0,0.0,6.5454,6.5788,0.0,0.0,6.6254,0.0,0.0,0.0,0.0,0.0,0.0,0.0,0.0,0.0,0.0,0.0,0.0,0.0,0.0,7.0763,7.1307,0.0,7.1975,7.2488,7.2488,7.2488,7.2488,7.2488,7.2488,7.2488,7.2488,7.2642,7.2826,7.2826,7.3377,0.0,7.4302,0.0,0.0,0.0,0.0,0.0,7.7281,0.0,0.0,0.0,0.0,0.0,0.0,0.0,0.0,0.0,0.0,0.0,0.0,0.0,0.0,0.0,0.0,8.1171,8.1309,8.1076,8.0841,8.0748,8.1176,8.141,8.1261,8.1243,8.1226,8.1172,8.1172,8.1146,8.1083,8.1119,8.1119,8.1119,8.1119,8.1119,8.1119,8.1119,8.1119,8.1119,8.1119,8.1119,8.1119,8.1119,8.1119,8.1119,8.1119,8.1119,8.1119,8.1119,8.1119,8.1119,8.1119,8.1119,8.1119,8.1119,8.1119,8.1119,0.0,6.4691,0.0,0.0,0.0,0.0,0.0,0.0,0.0,0.0,0.0,0.0,0.0,0.0,0.0,0.0,0.0,6.5716,6.5342,0.0,6.5677,0.0,0.0,6.6839,0.0,0.0,0.0,0.0,0.0,0.0,0.0,0.0,0.0,0.0,0.0,7.127,7.1344,7.2121,7.2496,7.2488,7.2488,7.2488,7.2488,0.0,7.2488,7.2488,7.2488,0.0,0.0,7.3678,7.4184,0.0,0.0,0.0,0.0,0.0,0.0,0.0,0.0,0.0,0.0,7.7281,0.0,0.0,0.0,0.0,7.7546,0.0,0.0,0.0,0.0,0.0,0.0,0.0,0.0,0.0,0.0,8.1187,8.201,8.163,8.1579,8.1579,8.157,8.157,8.1529,8.1401,8.1384,8.1296,8.1092,8.1119,8.1119,8.1119,8.1119,8.1119,8.1119,8.1119,8.1119,8.1119,8.1119,8.1119,8.1119,8.1119,8.1119,8.1119,8.1119,8.1119,8.1119,8.1119,8.1119,8.1119,8.1119,8.1119,8.1119,8.1119,8.1119,8.1119,0.0,0.0,0.0,0.0,0.0,0.0,0.0,6.625,0.0,0.0,6.6838,0.0,0.0,6.6357,6.6238,0.0,0.0,6.6245,6.5806,6.6254,0.0,0.0,0.0,6.7295,0.0,0.0,0.0,0.0,0.0,0.0,0.0,0.0,0.0,0.0,0.0,7.2085,0.0,0.0,0.0,0.0,0.0,7.2826,7.323,0.0,0.0,7.2569,7.3083,7.3457,0.0,7.4324,7.5028,7.5718,7.6019,7.6452,7.6959,7.7208,7.7281,0.0,0.0,0.0,7.7202,7.7295,0.0,0.0,0.0,0.0,0.0,0.0,0.0,0.0,0.0,0.0,0.0,0.0,0.0,0.0,0.0,8.1864,8.2145,8.203,8.1877,8.1751,8.1596,8.1587,8.1555,8.141,8.1401,8.1305,8.1092,8.1119,8.1119,8.1119,8.1119,8.1119,8.1119,8.1119,8.1119,8.1119,8.1119,8.1119,8.1119,8.1119,8.1119,8.1119,8.1119,8.1119,8.1119,8.1119,8.1119,8.1119,8.1119,8.1119,8.1119,8.1119,8.1119,8.1119,6.5306,0.0,0.0,0.0,0.0,0.0,0.0,0.0,0.0,0.0,6.7181,0.0,6.6345,0.0,6.6573,0.0,6.6459,6.6746,6.6451,6.6912,0.0,6.7604,6.774,0.0,0.0,0.0,0.0,0.0,0.0,6.9743,0.0,0.0,0.0,0.0,0.0,7.2488,7.2488,7.2488,7.2488,0.0,0.0,7.3186,0.0,0.0,7.3237,7.3355,0.0,7.4123,7.4445,7.4987,7.5729,7.6449,7.6449,7.6847,7.7281,7.7281,7.7281,7.7281,7.7281,7.7248,0.0,7.7258,7.7248,0.0,7.7669,0.0,0.0,0.0,0.0,0.0,0.0,0.0,0.0,0.0,0.0,0.0,0.0,8.2194,8.2194,8.2194,8.2096,8.1919,8.1734,8.1776,8.1717,8.1478,8.1452,8.141,8.1208,8.1155,8.1119,8.1119,8.1119,8.1119,8.1119,8.1119,8.1119,8.1119,8.1119,8.1119,8.1119,8.1119,8.1119,8.1119,8.1119,8.1119,8.1119,8.1119,8.1119,8.1119,8.1119,8.1119,8.1119,8.1119,8.1119,8.1119,6.5203,0.0,0.0,0.0,6.6162,0.0,0.0,0.0,6.7056,0.0,6.7181,6.7428,6.6988,6.7492,6.7693,6.7245,6.7226,6.7226,6.7226,6.7299,0.0,0.0,6.8458,6.8823,6.9581,0.0,0.0,0.0,0.0,0.0,0.0,0.0,0.0,0.0,7.2488,0.0,7.2481,7.2488,7.2525,7.2614,7.3222,7.3521,7.3689,7.4214,7.4582,7.4749,7.4551,7.4954,7.5611,7.5647,7.6277,7.7092,7.7092,7.7186,7.7258,7.7258,7.7258,7.7258,7.7258,7.725,7.7287,7.7258,0.0,0.0,0.0,0.0,7.8788,0.0,0.0,0.0,0.0,0.0,0.0,0.0,0.0,0.0,0.0,8.2194,8.2194,8.2194,8.2194,8.2121,8.1919,8.2088,8.2047,8.1621,8.1624,8.1547,8.141,8.1208,8.1092,8.1119,8.1119,8.1119,8.1119,8.1119,8.1119,8.1119,8.1119,8.1119,8.1119,8.1119,8.1119,8.1119,8.1119,8.1119,8.1119,8.1119,8.1119,8.1119,8.1119,8.1119,8.1119,8.1119,8.1119,8.1119,6.6147,6.6185,6.6303,0.0,6.6875,6.7154,0.0,0.0,0.0,0.0,6.7758,6.7628,6.7176,6.7211,6.7167,6.7054,6.7513,0.0,0.0,0.0,0.0,6.8986,6.9076,6.9237,6.9455,6.9748,0.0,7.0799,0.0,0.0,7.2195,0.0,0.0,0.0,0.0,7.2431,7.2373,7.2445,7.279,7.3259,7.3276,7.3974,0.0,0.0,7.554,7.6025,7.5477,7.5428,7.5684,7.6275,7.668,7.6866,7.6866,7.6889,7.6921,7.6921,7.6921,7.6921,7.6921,7.6862,7.6798,7.6889,7.6862,7.6879,0.0,0.0,0.0,0.0,0.0,0.0,0.0,0.0,0.0,0.0,0.0,0.0,0.0,0.0,0.0,8.2194,8.2194,8.217,8.2129,8.2047,8.1919,8.1835,8.1664,8.1547,8.141,0.0,8.1243,8.1083,8.1119,8.1119,8.1119,8.1119,8.1119,8.1119,8.1119,8.1119,8.1119,8.1119,8.1119,8.1119,8.1119,8.1119,8.1119,8.1119,8.1119,8.1119,8.1119,8.1119,8.1119,8.1119,8.1119,8.1119,6.6435,6.6949,0.0,6.7364,0.0,0.0,6.7648,6.7739,0.0,6.8184,6.8125,0.0,6.816,6.8029,6.797,6.797,6.8324,0.0,6.8532,0.0,0.0,6.9699,6.9812,6.9995,7.0314,7.0571,0.0,7.139,0.0,0.0,7.2394,0.0,0.0,0.0,0.0,7.2431,7.2714,7.3162,7.355,7.3926,7.4093,7.4714,0.0,7.5729,7.6063,7.6434,7.6052,7.5911,7.5976,7.6429,7.6623,7.6717,7.6717,7.6765,7.6793,7.6793,7.6793,7.6793,7.6793,7.6721,7.6708,7.6769,7.6757,7.689,7.7689,7.8494,7.931,0.0,0.0,0.0,0.0,0.0,0.0,0.0,0.0,0.0,0.0,0.0,0.0,8.2194,8.2194,8.2194,8.2194,8.2104,8.1977,8.1902,8.1802,8.1666,0.0,0.0,8.1296,8.1128,8.1119,8.1119,8.1119,8.1119,8.1119,8.1119,8.1119,8.1119,8.1119,8.1119,8.1119,8.1119,8.1119,8.1119,8.1119,8.1119,8.1119,8.1119,8.1119,8.1119,8.1119,8.1119,8.1119,8.1119,6.6512,6.7595,0.0,0.0,0.0,0.0,0.0,6.7951,0.0,6.8493,0.0,6.8618,6.93,6.9268,6.9199,6.9199,0.0,6.9373,6.9373,6.9445,6.9808,7.0496,7.0524,7.085,7.1494,7.1687,7.1809,0.0,0.0,0.0,0.0,0.0,0.0,0.0,0.0,7.2615,7.3402,7.4048,7.4405,7.4587,7.5156,7.5418,7.5584,7.6088,7.6284,7.6284,7.6284,7.6284,7.6284,7.6284,7.642,7.6573,7.6573,7.6643,7.6729,7.6729,7.6729,7.6729,7.6729,7.6729,7.6765,7.6875,7.6875,7.7275,7.8777,7.9134,7.9524,8.0921,8.1285,8.1305,0.0,0.0,0.0,0.0,0.0,0.0,0.0,0.0,0.0,0.0,0.0,0.0,8.2194,8.217,8.2104,8.1935,8.1902,0.0,0.0,0.0,8.1322,8.1128,8.1119,8.1119,8.1119,0.0,8.1119,8.1119,8.1119,8.1119,8.1119,8.1119,8.1119,8.1119,8.1119,8.1119,8.1119,8.1119,8.1119,8.1119,8.1119,8.1119,8.1119,8.1119,8.1119,8.1119,6.748,6.8071,0.0,0.0,0.0,6.9273,6.9085,6.856,6.8429,6.9128,6.9103,6.9085,6.923,6.9214,6.9199,6.9199,6.9808,0.0,0.0,0.0,0.0,7.1313,7.1313,7.1386,7.1487,7.1687,7.1809,0.0,0.0,0.0,0.0,0.0,0.0,0.0,7.3024,7.3446,7.4181,7.405,0.0,7.5221,7.5187,7.5556,7.6144,7.6264,7.6284,7.6284,7.6284,7.6284,7.6284,7.6284,7.6309,7.637,7.637,7.6387,7.6376,7.6376,7.6376,7.6376,7.6376,7.6376,7.6557,7.7201,7.7391,7.7645,7.8579,7.9278,7.9832,8.0086,8.0702,8.1181,8.1314,0.0,0.0,0.0,0.0,0.0,0.0,0.0,0.0,0.0,0.0,8.2194,0.0,8.2063,8.2022,8.2137,8.1977,8.1818,0.0,0.0,8.1417,0.0,8.1119,0.0,0.0,0.0,8.1119,8.1119,8.1119,8.1119,8.1119,8.1119,8.1119,8.1119,8.1119,8.1119,8.1119,8.1119,8.1119,8.1119,8.1119,8.1119,8.1119,8.1119,8.1119,8.1119,6.8583,0.0,0.0,0.0,0.0,0.0,0.0,6.9633,6.9472,6.9871,6.9846,6.9989,7.0343,7.0379,7.0379,7.0379,7.0742,7.0959,7.0959,7.1313,7.1487,7.1487,7.1487,7.1487,7.1487,7.1601,7.1648,7.1648,0.0,0.0,0.0,0.0,0.0,7.3125,7.3868,7.4409,0.0,0.0,0.0,7.5856,7.5765,7.5949,7.6284,7.6284,7.6284,7.6284,7.6284,7.6284,7.6284,7.6284,7.6284,7.6284,7.6284,7.6284,7.6284,7.6284,7.6284,7.6284,7.6284,7.661,7.7008,7.7398,7.7796,7.834,7.9136,7.9607,8.0033,8.0431,8.083,8.1146,8.1358,8.1462,0.0,0.0,0.0,0.0,0.0,0.0,0.0,0.0,0.0,0.0,0.0,8.2121,8.2104,8.2186,8.2113,8.191,8.1604,0.0,8.1452,0.0,0.0,0.0,0.0,0.0,0.0,8.1119,8.1119,8.1119,8.1119,8.1119,8.1119,8.1119,8.1119,8.1119,8.1119,8.1119,8.1119,8.1119,8.1119,8.1119,8.1119,8.1119,8.1119,8.1119,6.9479,6.9712,0.0,0.0,6.9819,0.0,7.0673,7.0718,7.0633,7.0633,7.0633,7.085,7.1458,7.1487,7.1487,7.1487,7.1487,7.1487,7.1487,7.1487,7.1487,7.1487,7.1487,7.1487,7.1487,7.1487,7.1487,0.0,0.0,0.0,0.0,0.0,0.0,0.0,0.0,0.0,0.0,0.0,7.6284,7.6284,7.6284,7.6284,7.6284,7.6284,7.6284,7.6284,7.6284,7.6284,7.632,7.6501,7.6428,7.6284,7.6284,7.6284,7.6284,7.6284,7.6428,7.6573,7.6573,7.7153,7.7805,7.7977,7.8484,7.9173,7.9961,8.0142,8.0323,8.0975,8.1119,8.1146,8.1358,8.1366,0.0,0.0,0.0,0.0,0.0,0.0,0.0,0.0,0.0,0.0,8.2194,0.0,8.2194,8.2194,8.2194,8.2002,8.1604,8.1587,8.1452,0.0,0.0,8.1119,8.1119,0.0,8.1119,8.1119,8.1119,8.1119,8.1119,8.1119,8.1119,8.1119,8.1119,8.1119,8.1119,8.1119,8.1119,8.1119,8.1119,8.1119,8.1119,8.1119,8.1119,8.1119,0.0,0.0,0.0,0.0,0.0,0.0,7.1409,7.1394,7.1386,7.1386,7.1386,7.1414,7.1487,7.1487,7.1487,7.1487,7.1487,7.1487,7.1487,7.1487,7.1487,7.1487,7.1487,7.1487,7.1487,7.1487,7.1487,0.0,0.0,0.0,0.0,0.0,0.0,0.0,0.0,0.0,0.0,7.6284,7.6284,7.6284,7.6284,7.6284,7.6284,7.6284,7.6284,7.6284,7.6284,7.6284,7.6428,7.7153,7.6899,7.6284,7.6284,7.6284,7.6284,7.6284,7.6827,7.7406,7.7406,7.7977,7.8774,7.949,7.9743,7.9997,8.0794,8.0975,8.1011,8.1083,8.1119,8.1146,8.1358,8.1243,8.1234,0.0,0.0,0.0,0.0,0.0,8.2194,8.2194,0.0,0.0,8.2194,8.2194,8.2194,8.2194,8.2194,8.2002,8.1604,8.1587,8.1452,8.1092,0.0,8.1119,8.1119,8.1119,8.1119,8.1119,8.1119,8.1119,8.1119,8.1119,8.1119,8.1119,8.1119,8.1119,8.1119,8.1119,8.1119,8.1119,8.1119,8.1119,8.1119,8.1119,8.1119,8.1119,0.0,0.0,0.0,0.0,0.0,0.0,0.0,7.1487,7.1487,7.1487,7.1487,7.1487,7.1487,7.1487,7.1487,7.1487,7.1487,7.1487,7.1487,7.1487,7.1487,7.1487,7.1487,7.1487,7.1487,7.1487,7.1487,0.0,0.0,0.0,0.0,0.0,0.0,0.0,0.0,7.6284,7.6284,7.6284,7.6284,7.6284,7.6284,7.6284,7.6284,7.6284,7.6284,7.6356,7.6863,7.7008,7.7153,7.7941,7.7688,7.7108,7.7579,7.7724,7.7724,7.7724,7.7977,7.8231,7.8231,7.881,7.9499,7.9816,8.025,8.0721,8.1047,8.1119,8.1119,8.1119,8.1119,8.111,8.119,8.1137,8.1172,0.0,0.0,0.0,0.0,0.0,0.0,8.2194,0.0,8.2194,8.2194,8.2194,8.2194,0.0,8.2194,8.2002,8.1604,8.1587,0.0,8.1092,0.0,8.1119,8.1119,8.1119,8.1119,8.1119,8.1119,8.1119,8.1119,8.1119,8.1119,8.1119,8.1119,8.1119,8.1119,8.1119,8.1119,8.1119,8.1119,8.1119,8.1119,8.1119,8.1119,8.1119,7.1386,0.0,7.1487,0.0,7.1487,7.1487,7.1487,7.1487,7.1487,7.1487,7.1487,7.1487,7.1487,7.1487,7.1487,7.1487,7.1487,7.1487,7.1487,7.1487,7.1487,7.1487,7.1487,0.0,7.1487,7.174,7.1849,7.1849,7.2645,0.0,0.0,0.0,0.0,0.0,7.6284,7.6284,7.6284,7.6284,7.6284,7.6284,7.6284,7.6284,7.632,7.6573,7.6646,7.6754,7.7543,7.7833,7.7977,7.8774,7.8666,7.8267,7.8593,7.8702,7.8702,7.8702,7.8883,7.9064,7.9064,7.9635,8.025,8.025,8.0685,8.1119,8.1119,8.1119,8.1119,8.1119,8.1119,8.1119,8.1119,8.1119,8.1155,8.1366,0.0,0.0,0.0,0.0,0.0,0.0,8.2162,8.2194,8.2194,8.2194,8.2194,0.0,0.0,0.0,0.0,0.0,0.0,0.0,0.0,0.0,0.0,8.1119,8.1119,8.1119,8.1119,8.1119,8.1119,8.1119,8.1119,8.1119,8.1119,8.1119,8.1119,8.1119,8.1119,8.1119,8.1119,8.1119,8.1119,8.1119,8.1119,8.1119,7.1487,7.1487,7.1487,7.1487,7.1487,7.1487,7.1487,7.1487,7.1487,7.1487,7.1487,7.1487,7.1487,7.1487,7.1487,7.1487,7.1487,7.1487,7.1487,7.1487,7.1487,0.0,0.0,7.1487,7.1487,7.2283,7.2682,7.2682,0.0,0.0,7.3905,0.0,7.5542,7.6284,7.6284,7.6284,7.6284,7.6284,7.6284,7.6284,7.6284,7.6284,7.6392,7.7189,7.7479,7.7579,7.8412,7.8702,7.881,7.9598,7.9888,7.9743,7.8955,7.8702,7.8702,7.8702,7.9245,7.9897,7.9897,8.0468,8.1083,8.1083,8.1083,8.1119,8.1119,8.1119,8.1119,8.1119,8.1119,8.1119,8.1119,8.1119,8.1155,8.1366,0.0,0.0,0.0,0.0,0.0,8.1919,8.2088,8.2194,8.2194,8.2194,8.2194,0.0,0.0,0.0,0.0,0.0,0.0,8.1092,8.1119,0.0,8.1119,8.1119,8.1119,8.1119,8.1119,8.1119,8.1119,8.1119,8.1119,8.1119,8.1119,8.1119,8.1119,8.1119,8.1119,8.1119,8.1119,8.1119,8.1119,8.1119,8.1119,8.1119,7.1487,7.1487,7.1487,7.1487,7.1487,7.1487,7.1487,7.1487,7.1487,7.1487,7.1994,7.2319,7.2319,7.1812,7.1704,0.0,7.2319,7.2537,0.0,7.3152,7.3152,7.3152,7.3152,7.3152,7.3152,7.3398,7.3506,7.3506,0.0,0.0,0.0,7.5804,7.6058,7.6284,7.6284,7.6284,7.6284,7.6284,7.6284,7.6356,7.6899,7.7117,7.7225,7.8014,7.8303,7.8412,7.9245,7.9535,7.9635,8.0468,8.0721,8.0685,8.0431,8.0323,8.0323,8.0323,8.0504,8.0721,8.0721,8.0902,8.1119,8.1119,8.1119,8.1119,8.1119,8.1119,8.1119,8.1119,8.1119,8.1119,8.1119,8.1119,8.1101,8.1172,8.1417,0.0,0.0,0.0,0.0,8.2113,8.2162,8.2194,8.2194,8.2194,0.0,0.0,0.0,0.0,0.0,0.0,0.0,0.0,8.1119,0.0,8.1119,8.1119,8.1119,8.1119,8.1119,8.1119,8.1119,8.1119,8.1119,8.1119,8.1119,8.1119,8.1119,8.1119,8.1119,8.1119,8.1119,8.1119,8.1119,8.1119,8.1119,8.1119,7.1487,7.1487,7.1487,7.1487,7.1487,7.1595,7.1885,7.1957,7.2066,7.2356,7.2826,7.3144,7.3144,7.2718,0.0,7.3116,7.3144,7.3362,7.3868,7.3905,7.3905,7.3905,7.3905,7.3905,7.3905,0.0,0.0,7.4339,7.518,7.5804,7.6284,7.6284,7.6284,7.6284,7.6284,7.6284,7.6284,7.6284,7.6465,7.6791,7.7289,7.7688,7.805,7.8847,7.9136,7.9245,8.0069,8.0359,8.0431,8.0938,8.1119,8.1119,8.1119,8.1119,8.1119,8.1119,8.1119,8.1119,8.1119,8.1119,8.1119,8.1119,8.1119,8.1119,8.1119,8.1119,8.1119,8.1119,8.1119,8.1119,8.1119,8.1119,8.111,8.119,8.141,8.1547,8.1579,0.0,0.0,0.0,0.0,0.0,0.0,8.2194,8.2194,0.0,0.0,0.0,0.0,0.0,0.0,8.1128,8.1119,0.0,8.1119,8.1119,8.1119,8.1119,8.1119,8.1119,8.1119,8.1119,8.1119,8.1119,8.1119,8.1119,8.1119,8.1119,8.1119,8.1119,8.1119,8.1119,8.1119,8.1119,8.1119,8.1119,7.1487,7.1523,7.1567,0.0,7.1639,0.0,7.2682,7.279,7.3036,7.3796,7.3941,7.3977,7.3977,7.4013,7.4058,7.4058,0.0,0.0,0.0,7.4058,7.4058,7.4058,7.4058,7.4058,7.4058,7.481,7.5172,7.5172,7.5913,7.6284,7.6284,7.6284,7.6284,7.6284,7.6284,7.632,7.6392,7.6392,7.6863,7.7579,7.7651,7.8122,7.8883,7.9671,7.9961,8.0069,8.083,8.1119,8.1119,8.1119,8.1119,8.1119,8.1119,8.1119,8.1119,8.1119,8.1119,8.1119,8.1119,8.1119,8.1119,8.1119,8.1119,8.1119,8.1119,8.1119,8.1119,8.1119,8.1119,8.1119,8.1119,8.1119,8.1146,8.134,8.1392,8.1453,8.1581,0.0,0.0,0.0,0.0,0.0,0.0,8.2186,8.2186,0.0,0.0,0.0,0.0,0.0,8.1434,8.1092,8.1119,8.1119,8.1119,8.1119,8.1119,8.1119,8.1119,8.1119,8.1119,8.1119,8.1119,8.1119,8.1119,8.1119,8.1119,8.1119,8.1119,8.1119,8.1119,8.1119,8.1119,8.1119,8.1119,8.1119,0.0,0.0,7.2428,7.2428,7.2935,7.3406,7.3579,7.3615,7.3687,7.3868,7.4448,7.481,7.481,7.5361,7.5732,7.5732,7.518,7.5072,7.5696,7.5732,7.5732,7.5732,7.5732,7.5732,7.5732,7.5921,7.6022,7.6022,7.6211,7.6284,7.6284,7.6284,7.6284,7.6284,7.6284,7.6646,7.7225,7.7225,7.7688,7.8484,7.91,7.9462,7.9707,8.0504,8.083,8.083,8.1047,8.1119,8.1119,8.1119,8.1119,8.1119,8.1119,8.1119,8.1119,8.1119,8.1119,8.1119,8.1119,8.1119,8.1119,8.1119,8.1119,8.1119,8.1119,8.1119,8.1119,8.1119,8.1119,8.1119,8.1119,8.1119,8.1137,8.1146,8.1287,8.141,8.1453,8.17,0.0,0.0,8.1969,8.2137,8.2005,8.2113,8.2137,0.0,0.0,0.0,0.0,8.1462,8.1349,8.1128,8.1119,8.1119,8.1119,8.1119,8.1119,8.1119,8.1119,8.1119,8.1119,8.1119,8.1119,8.1119,8.1119,8.1119,8.1119,8.1119,8.1119,8.1119,8.1119,8.1119,8.1119,8.1119,8.1119,8.1119,7.2537,7.2935,7.3253,7.3253,7.3615,7.4013,7.4375,7.4448,7.4593,7.4963,7.5361,7.5651,7.5651,7.603,7.6284,7.6284,7.5913,7.5841,7.6284,7.6284,7.6284,7.6284,7.6284,7.6284,7.6284,7.6284,7.6284,7.6284,7.6284,7.6284,7.632,7.6682,7.6863,7.6863,7.7225,7.7651,7.805,7.805,7.8521,7.9281,7.9707,8.0105,8.0504,8.0938,8.1119,8.1119,8.1119,8.1119,8.1119,8.1119,8.1119,8.1119,8.1119,8.1119,8.1119,8.1119,8.1119,8.1119,8.1119,8.1119,8.1119,8.1119,8.1119,8.1119,8.1119,8.1119,8.1119,8.1119,8.1119,8.1119,8.1119,8.1119,8.1119,8.1119,8.1172,8.1287,8.1384,8.1566,0.0,8.1624,8.1793,8.1877,8.1776,8.186,8.1877,8.1776,8.17,0.0,8.141,8.1305,8.1199,8.1083,8.1119,8.1119,8.1119,8.1119,8.1119,8.1119,8.1119,8.1119,8.1119,8.1119,8.1119,8.1119,8.1119,8.1119,8.1119,8.1119,8.1119,8.1119,8.1119,8.1119,8.1119,8.1119,8.1119,8.1119,7.3768,7.4013,7.4086,7.4086,7.4194,7.4492,7.5172,7.5281,7.5542,7.6211,7.6284,7.6284,7.6284,7.6284,7.6284,7.6284,7.6428,7.6428,7.632,7.6284,7.6284,7.6284,7.6284,7.6284,7.6284,7.6428,7.6465,7.6465,7.661,7.6646,7.6682,7.737,7.7688,7.7724,7.8412,7.8774,7.8883,7.8883,7.9354,8.0069,8.0069,8.0504,8.1119,8.1119,8.1119,8.1119,8.1119,8.1119,8.1119,8.1119,8.1119,8.1119,8.1119,8.1119,8.1119,8.1119,8.1119,8.1119,8.1119,8.1119,8.1119,8.1119,8.1119,8.1119,8.1119,8.1119,8.1119,8.1119,8.1119,8.1119,8.1119,8.1119,8.1119,8.1119,8.1119,8.1146,8.1322,0.0,8.1445,8.1521,8.1553,8.1579,8.159,8.157,8.1579,8.159,8.1443,8.1384,8.1349,8.1181,8.1119,8.1119,8.1119,8.1119,8.1119,8.1119,8.1119,8.1119,8.1119,8.1119,8.1119,8.1119,8.1119,8.1119,8.1119,8.1119,8.1119,8.1119,8.1119,8.1119,8.1119,8.1119,8.1119,8.1119,8.1119,8.1119,7.3868,7.4448,7.4919,7.4919,7.547,7.5958,7.6102,7.6094,7.6175,7.6284,7.6284,7.6284,7.6284,7.6284,7.6284,7.6284,7.6936,7.7044,7.6356,7.6284,7.6284,7.6284,7.6284,7.6284,7.6284,7.6972,7.7298,7.7298,7.7977,7.834,7.834,7.8448,7.8521,7.8521,7.8629,7.91,7.9707,7.9707,8.0178,8.0902,8.0902,8.0975,8.1119,8.1119,8.1119,8.1119,8.1119,8.1119,8.1119,8.1119,8.1119,8.1119,8.1119,8.1119,8.1119,8.1119,8.1119,8.1119,8.1119,8.1119,8.1119,8.1119,8.1119,8.1119,8.1119,8.1119,8.1119,8.1119,8.1119,8.1119,8.1119,8.1119,8.1119,8.1119,8.1119,8.1092,8.1128,0.0,8.134,8.119,8.1426,8.1564,8.1453,8.1538,8.1564,8.1453,8.141,8.1322,8.1173,8.1137,8.1119,8.1119,8.1119,8.1119,8.1119,8.1119,8.1119,8.1119,8.1119,8.1119,8.1119,8.1119,8.1119,8.1119,8.1119,8.1119,8.1119,8.1119,8.1119,8.1119,8.1119,8.1119,8.1119,8.1119,8.1119,8.1119,7.5108,7.5478,7.576,7.576,7.6058,7.6284,7.6284,7.6284,7.6284,7.6284,7.6284,7.6465,7.6899,7.6936,7.7117,7.7543,7.7941,7.7977,7.7615,7.7579,7.7579,7.7579,7.7579,7.7579,7.7579,7.7941,7.8159,7.8159,7.8521,7.8702,7.8702,7.9136,7.9354,7.939,7.978,8.0214,8.054,8.054,8.0757,8.1119,8.1119,8.1119,8.1119,8.1119,8.1119,8.1119,8.1119,8.1119,8.1119,8.1119,8.1119,8.1119,8.1119,8.1119,8.1119,8.1119,8.1119,8.1119,8.1119,8.1119,8.1119,8.1119,8.1119,8.1119,8.1119,8.1119,8.1119,8.1119,8.1119,8.1119,8.1119,8.1119,8.1119,8.1119,8.1119,0.0,0.0,8.1163,8.119,8.1092,8.1243,8.1322,8.1234,8.1296,8.1314,8.1234,8.1226,8.1181,8.1083,8.1119,8.1119,8.1119,8.1119,8.1119,8.1119,8.1119,8.1119,8.1119,8.1119,8.1119,8.1119,8.1119,8.1119,8.1119,8.1119,8.1119,8.1119,8.1119,8.1119,8.1119,8.1119,8.1119,8.1119,8.1119,8.1119,8.1119,7.6175,7.6284,7.6284,7.6284,7.6284,7.6284,7.6284,7.6284,7.6356,7.6537,7.6573,7.6899,7.7688,7.776,7.8014,7.8666,7.8883,7.8992,7.8992,7.9136,7.91,7.8738,7.8702,7.8702,7.8702,7.8883,7.8992,7.8992,7.9173,7.9245,7.9273,7.9888,8.0178,8.0214,8.083,8.1119,8.1119,8.1119,8.1119,8.1119,8.1119,8.1119,8.1119,8.1119,8.1119,8.1119,8.1119,8.1119,8.1119,8.1119,8.1119,8.1119,8.1119,8.1119,8.1119,8.1119,8.1119,8.1119,8.1119,8.1119,8.1119,8.1119,8.1119,8.1119,8.1119,8.1119,8.1119,8.1119,8.1119,8.1119,8.1119,8.1119,8.1119,8.1119,0.0,0.0,0.0,8.1119,8.1119,8.1119,8.1119,8.1119,8.1119,8.1119,8.1119,8.1119,8.1119,8.1119,8.1119,8.1119,8.1119,8.1119,8.1119,8.1119,8.1119,8.1119,8.1119,8.1119,8.1119,8.1119,8.1119,8.1119,8.1119,8.1119,8.1119,8.1119,8.1119,8.1119,8.1119,8.1119,8.1119,8.1119,8.1119,8.1119,8.1119,8.1119,7.6284,7.6284,7.6284,7.6284,7.6284,7.6284,7.6284,7.6284,7.6573,7.7298,7.7406,7.7724,7.8521,7.8593,7.8629,7.8702,7.939,7.9816,7.9816,8.0504,8.025,7.8774,7.8702,7.8702,7.8702,7.9426,7.9816,7.9816,8.0576,8.0938,8.0938,8.0975,8.1011,8.1011,8.1083,8.1119,8.1119,8.1119,8.1119,8.1119,8.1119,8.1119,8.1119,8.1119,8.1119,8.1119,8.1119,8.1119,8.1119,8.1119,8.1119,8.1119,8.1119,8.1119,8.1119,8.1119,8.1119,8.1119,8.1119,8.1119,8.1119,8.1119,8.1119,8.1119,8.1119,8.1119,8.1119,8.1119,8.1119,8.1119,8.1119,8.1119,8.1119,8.1119,0.0,0.0,8.1119,8.1119,8.1119,8.1119,8.1119,8.1119,8.1119,8.1119,8.1119,8.1119,8.1119,8.1119,8.1119,8.1119,8.1119,8.1119,8.1119,8.1119,8.1119,8.1119,8.1119,8.1119,8.1119,8.1119,8.1119,8.1119,8.1119,8.1119,8.1119,8.1119,8.1119,8.1119,8.1119,8.1119,8.1119,8.1119,8.1119,8.1119,8.1119,8.1119,7.6284,7.6284,7.6284,7.6284,7.6284,7.6465,7.6972,7.7044,7.7334,7.8122,7.8231,7.8557,7.9354,7.9454,7.9643,8.0142,8.0468,8.0649,8.0649,8.0938,8.083,8.0214,8.0178,8.0178,8.0178,8.0504,8.0649,8.0649,8.0938,8.1119,8.1119,8.1119,8.1119,8.1119,8.1119,8.1119,8.1119,8.1119,8.1119,8.1119,8.1119,8.1119,8.1119,8.1119,8.1119,8.1119,8.1119,8.1119,8.1119,8.1119,8.1119,8.1119,8.1119,8.1119,8.1119,8.1119,8.1119,8.1119,8.1119,8.1119,8.1119,8.1119,8.1119,8.1119,8.1119,8.1119,8.1119,8.1119,8.1119,8.1119,8.1119,8.1119,8.1119,8.1119,0.0,8.1119,8.1119,8.1119,8.1119,8.1119,8.1119,8.1119,8.1119,8.1119,8.1119,8.1119,8.1119,8.1119,8.1119,8.1119,8.1119,8.1119,8.1119,8.1119,8.1119,8.1119,8.1119,8.1119,8.1119,8.1119,8.1119,8.1119,8.1119,8.1119,8.1119,8.1119,8.1119,8.1119,8.1119,8.1119,8.1119,8.1119,8.1119,8.1119,8.1119,8.1119,7.6284,7.6284,7.6392,7.6646,7.6682,7.6936,7.776,7.7869,7.8159,7.8955,7.91,7.939,8.0178,8.0287,8.0504,8.1047,8.1119,8.1119,8.1119,8.1119,8.1119,8.1119,8.1119,8.1119,8.1119,8.1119,8.1119,8.1119,8.1119,8.1119,8.1119,8.1119,8.1119,8.1119,8.1119,8.1119,8.1119,8.1119,8.1119,8.1119,8.1119,8.1119,8.1119,8.1119,8.1119,8.1119,8.1119,8.1119,8.1119,8.1119,8.1119,8.1119,8.1119,8.1119,8.1119,8.1119,8.1119,8.1119,8.1119,8.1119,8.1119,8.1119,8.1119,8.1119,8.1119,8.1119,8.1119,8.1119,8.1119,8.1119,8.1119,8.1119,8.1119,8.1119,8.1119,8.1119,8.1119,8.1119,8.1119,8.1119,8.1119,8.1119,8.1119,8.1119,8.1119,8.1119,8.1119,8.1119,8.1119,8.1119,8.1119,8.1119,8.1119,8.1119,8.1119,8.1119,8.1119,8.1119,8.1119,8.1119,8.1119,8.1119,8.1119,8.1119,8.1119,8.1119,8.1119,8.1119,8.1119,8.1119,8.1119,8.1119,8.1119,8.1119,8.1119,8.1119,7.632,7.632,7.6573,7.7362,7.7515,7.776,7.8593,7.8702,7.8992,7.978,7.9888,8.0214,8.1011,8.1119,8.1119,8.1119,8.1119,8.1119,8.1119,8.1119,8.1119,8.1119,8.1119,8.1119,8.1119,8.1119,8.1119,8.1119,8.1119,8.1119,8.1119,8.1119,8.1119,8.1119,8.1119,8.1119,8.1119,8.1119,8.1119,8.1119,8.1119,8.1119,8.1119,8.1119,8.1119,8.1119,8.1119,8.1119,8.1119,8.1119,8.1119,8.1119,8.1119,8.1119,8.1119,8.1119,8.1119,8.1119,8.1119,8.1119,8.1119,8.1119,8.1119,8.1119,8.1119,8.1119,8.1119,8.1119,8.1119,8.1119,8.1119,8.1119,8.1119,8.1119,8.1119,8.1119,8.1119,8.1119,8.1119,8.1119,8.1119,8.1119,8.1119,8.1119,8.1119,8.1119,8.1119,8.1119,8.1119,8.1119,8.1119,8.1119,8.1119,8.1119,8.1119,8.1119,8.1119,8.1119,8.1119,8.1119,8.1119,8.1119,8.1119,8.1119,8.1119,8.1119,8.1119,8.1119,8.1119,8.1119,8.1119,8.1119,8.1119,8.1119,8.1119,8.1119,7.7044,7.7153,7.7398,7.8195,7.834,7.8593,7.9426,7.9526,7.9816,8.0649,8.0757,8.083,8.1083,8.1119,8.1119,8.1119,8.1119,8.1119,8.1119,8.1119,8.1119,8.1119,8.1119,8.1119,8.1119,8.1119,8.1119,8.1119,8.1119,8.1119,8.1119,8.1119,8.1119,8.1119,8.1119,8.1119,8.1119,8.1119,8.1119,8.1119,8.1119,8.1119,8.1119,8.1119,8.1119,8.1119,8.1119,8.1119,8.1119,8.1119,8.1119,8.1119,8.1119,8.1119,8.1119,8.1119,8.1119,8.1119,8.1119,8.1119,8.1119,8.1119,8.1119,8.1119,8.1119,8.1119,8.1119,8.1119,8.1119,8.1119,8.1119,8.1119,8.1119,8.1119,8.1119,8.1119,8.1119,8.1119,8.1119,8.1119,8.1119,8.1119,8.1119,8.1119,8.1119,8.1119,8.1119,8.1119,8.1119,8.1119,8.1119,8.1119,8.1119,8.1119,8.1119,8.1119,8.1119,8.1119,8.1119,8.1119,8.1119,8.1119,8.1119,8.1119,8.1119,8.1119,8.1119,8.1119,8.1119,8.1119,8.1119,8.1119,8.1119,8.1119,8.1119,8.1119,7.7869,7.7977,7.8231,7.9028,7.9164,7.9462,8.025,8.0359,8.054,8.1047,8.1119,8.1119,8.1119,8.1119,8.1119,8.1119,8.1119,8.1119,8.1119,8.1119,8.1119,8.1119,8.1119,8.1119,8.1119,8.1119,8.1119,8.1119,8.1119,8.1119,8.1119,8.1119,8.1119,8.1119,8.1119,8.1119,8.1119,8.1119,8.1119,8.1119,8.1119,8.1119,8.1119,8.1119,8.1119,8.1119,8.1119,8.1119,8.1119,8.1119,8.1119,8.1119,8.1119,8.1119,8.1119,8.1119,8.1119,8.1119,8.1119,8.1119,8.1119,8.1119,8.1119,8.1119,8.1119,8.1119,8.1119,8.1119,8.1119,8.1119,8.1119,8.1119,8.1119,8.1119,8.1119,8.1119,8.1119,8.1119,8.1119,8.1119,8.1119,8.1119,8.1119,8.1119,8.1119,8.1119,8.1119,8.1119,8.1119,8.1119,8.1119,8.1119,8.1119,8.1119,8.1119,8.1119,8.1119,8.1119,8.1119,8.1119,8.1119,8.1119,8.1119,8.1119,8.1119,8.1119,8.1119,8.1119,8.1119,8.1119,8.1119,8.1119,8.1119,8.1119,8.1119,8.1119,7.8774,7.881,7.9064,7.9852,7.9997,8.025,8.0975,8.1119,8.1119,8.1119,8.1119,8.1119,8.1119,8.1119,8.1119,8.1119,8.1119,8.1119,8.1119,8.1119,8.1119,8.1119,8.1119,8.1119,8.1119,8.1119,8.1119,8.1119,8.1119,8.1119,8.1119,8.1119,8.1119,8.1119,8.1119,8.1119,8.1119,8.1119,8.1119,8.1119,8.1119,8.1119,8.1119,8.1119,8.1119,8.1119,8.1119,8.1119,8.1119,8.1119,8.1119,8.1119,8.1119,8.1119,8.1119,8.1119,8.1119,8.1119,8.1119,8.1119,8.1119,8.1119,8.1119,8.1119,8.1119,8.1119,8.1119,8.1119,8.1119,8.1119,8.1119,8.1119,8.1119,8.1119,8.1119,8.1119,8.1119,8.1119,8.1119,8.1119,8.1119,8.1119,8.1119,8.1119,8.1119,8.1119,8.1119,8.1119,8.1119,8.1119,8.1119,8.1119,8.1119,8.1119,8.1119,8.1119,8.1119,8.1119,8.1119,8.1119,8.1119,8.1119,8.1119,8.1119,8.1119,8.1119,8.1119,8.1119,8.1119,8.1119,8.1119,8.1119,8.1119,8.1119,8.1119,8.1119,7.9535,7.9635,7.9888,8.0685,8.083,8.0902,8.1083,8.1119,8.1119,8.1119,8.1119,8.1119,8.1119,8.1119,8.1119,8.1119,8.1119,8.1119,8.1119,8.1119,8.1119,8.1119,8.1119,8.1119,8.1119,8.1119,8.1119,8.1119,8.1119,8.1119,8.1119,8.1119,8.1119,8.1119,8.1119,8.1119,8.1119,8.1119,8.1119,8.1119,8.1119,8.1119,8.1119,8.1119,8.1119,8.1119,8.1119,8.1119,8.1119,8.1119,8.1119,8.1119,8.1119,8.1119,8.1119,8.1119,8.1119,8.1119,8.1119,8.1119,8.1119,8.1119,8.1119,8.1119,8.1119,8.1119,8.1119,8.1119,8.1119,8.1119,8.1119,8.1119,8.1119,8.1119,8.1119,8.1119,8.1119,8.1119,8.1119,8.1119,8.1119,8.1119,8.1119,8.1119,8.1119,8.1119,8.1119,8.1119,8.1119,8.1119,8.1119,8.1119,8.1119,8.1119,8.1119,8.1119,8.1119,8.1119,8.1119,8.1119,8.1119,8.1119,8.1119,8.1119,8.1119,8.1119,8.1119,8.1119,8.1119,8.1119,8.1119,8.1119,8.1119,8.1119,8.1119,8.1119,8.0395,8.0468,8.0612,8.1047,8.1119,8.1119,8.1119,8.1119,8.1119,8.1119,8.1119,8.1119,8.1119,8.1119,8.1119,8.1119,8.1119,8.1119,8.1119,8.1119,8.1119,8.1119,8.1119,8.1119,8.1119,8.1119,8.1119,8.1119,8.1119,8.1119,8.1119,8.1119,8.1119,8.1119,8.1119,8.1119,8.1119,8.1119,8.1119,8.1119,8.1119,8.1119,8.1119,8.1119,8.1119,8.1119,8.1119,8.1119,8.1119,8.1119,8.1119,8.1119,8.1119,8.1119,8.1119,8.1119,8.1119,8.1119,8.1119,8.1119,8.1119,8.1119,8.1119,8.1119,8.1119,8.1119,8.1119,8.1119,8.1119,8.1119,8.1119,8.1119,8.1119,8.1119,8.1119,8.1119,8.1119,8.1119,8.1119,8.1119,8.1119,8.1119,8.1119,8.1119,8.1119,8.1119,8.1119,8.1119,8.1119,8.1119,8.1119,8.1119,8.1119,8.1119,8.1119,8.1119,8.1119,8.1119,8.1119,8.1119,8.1119,8.1119,8.1119,8.1119,8.1119,8.1119,8.1119,8.1119,8.1119,8.1119,8.1119,8.1119,8.1119,8.1119,8.1119,8.1119,8.1119,8.1119,8.1119,8.1119,8.1119,8.1119,8.1119,8.1119,8.1119,8.1119,8.1119,8.1119,8.1119,8.1119,8.1119,8.1119,8.1119,8.1119,8.1119,8.1119,8.1119,8.1119,8.1119,8.1119,8.1119,8.1119,8.1119,8.1119,8.1119,8.1119,8.1119,8.1119,8.1119,8.1119,8.1119,8.1119,8.1119,8.1119,8.1119,8.1119,8.1119,8.1119,8.1119,8.1119,8.1119,8.1119,8.1119,8.1119,8.1119,8.1119,8.1119,8.1119,8.1119,8.1119,8.1119,8.1119,8.1119,8.1119,8.1119,8.1119,8.1119,8.1119,8.1119,8.1119,8.1119,8.1119,8.1119,8.1119,8.1119,8.1119,8.1119,8.1119,8.1119,8.1119,8.1119,8.1119,8.1119,8.1119,8.1119,8.1119,8.1119,8.1119,8.1119,8.1119,8.1119,8.1119,8.1119,8.1119,8.1119,8.1119,8.1119,8.1119,8.1119,8.1119,8.1119,8.1119,8.1119,8.1119,8.1119,8.1119,8.1119,8.1119,8.1119,8.1119,8.1119,8.1119,8.1119,8.1119,8.1119,8.1119,8.1119,8.1119,8.1119,8.1119,8.1119,8.1119,8.1119,8.1119,8.1119,8.1119,8.1119,8.1119,8.1119,8.1119,8.1119,8.1119,8.1119,8.1119,8.1119,8.1119,8.1119,8.1119,8.1119,8.1119,8.1119,8.1119,8.1119,8.1119,8.1119,8.1119,8.1119,8.1119,8.1119,8.1119,8.1119,8.1119,8.1119,8.1119,8.1119,8.1119,8.1119,8.1119,8.1119,8.1119,8.1119,8.1119,8.1119,8.1119,8.1119,8.1119,8.1119,8.1119,8.1119,8.1119,8.1119,8.1119,8.1119,8.1119,8.1119,8.1119,8.1119,8.1119,8.1119,8.1119,8.1119,8.1119,8.1119,8.1119,8.1119,8.1119,8.1119,8.1119,8.1119,8.1119,8.1119,8.1119,8.1119,8.1119,8.1119,8.1119,8.1119,8.1119,8.1119,8.1119,8.1119,8.1119,8.1119,8.1119,8.1119,8.1119,8.1119,8.1119,8.1119,8.1119,8.1119,8.1119,8.1119,8.1119,8.1119,8.1119,8.1119,8.1119,8.1119,8.1119,8.1119,8.1119,8.1119,8.1119,8.1119,8.1119,8.1119,8.1119,8.1119,8.1119,8.1119,8.1119,8.1119,8.1119,8.1119,8.1119,8.1119,8.1119,8.1119,8.1119,8.1119,8.1119,8.1119,8.1119,8.1119,8.1119,8.1119,8.1119,8.1119,8.1119,8.1119,8.1119,8.1119,8.1119,8.1119,8.1119,8.1119,8.1119,8.1119,8.1119,8.1119,8.1119,8.1119,8.1119,8.1119,8.1119,8.1119,8.1119,8.1119,8.1119,8.1119,8.1119,8.1119,8.1119,8.1119,8.1119,8.1119,8.1119,8.1119,8.1119,8.1119,8.1119,8.1119,8.1119,8.1119,8.1119,8.1119,8.1119,8.1119,8.1119,8.1119,8.1119,8.1119,8.1119,8.1119,8.1119,8.1119,8.1119,8.1119,8.1119,8.1119,8.1119,8.1119,8.1119,8.1119,8.1119,8.1119,8.1119,8.1119,8.1119,8.1119,8.1119,8.1119,8.1119,8.1119,8.1119,8.1119,8.1119,8.1119,8.1119,8.1119,8.1119,8.1119,8.1119,8.1119,8.1119,8.1119,8.1119,8.1119,8.1119,8.1119,8.1119,8.1119,8.1119,8.1119,8.1119,8.1119,8.1119,8.1119,8.1119,8.1119,8.1119,8.1119,8.1119,8.1119,8.1119,8.1119,8.1119,8.1119,8.1119,8.1119,8.1119,8.1119,8.1119]},{"header":{"parameterUnit":"m.s-1","parameterCategory":1,"la1":30.6,"la2":28.766,"lo1":-90.7593,"lo2":-88.6598,"dx":0.0162,"dy":0.0183,"nx":116,"ny":114,"refTime":"2023-01-30T06:00:00:Z","depth":0,"parameterNumber":3,"parameterNumberName":"V-component_of_WINDS"},"data":[0.0,0.0,0.0,0.0,0.0,0.0,0.0,0.0,0.0,0.0,0.0,0.0,0.0,0.0,0.0,0.0,0.0,0.0,0.0,0.0,0.0,0.0,0.0,0.0,0.0,0.0,0.0,0.0,0.0,0.0,0.0,0.0,0.0,0.0,0.0,0.0,0.0,0.0,0.0,0.0,0.0,0.0,0.0,0.0,0.0,0.0,0.0,0.0,0.0,0.0,0.0,0.0,0.0,0.0,0.0,0.0,0.0,0.0,0.0,0.0,0.0,0.0,0.0,0.0,0.0,0.0,0.0,0.0,0.0,0.0,0.0,0.0,0.0,0.0,0.0,0.0,0.0,0.0,0.0,0.0,0.0,0.0,0.0,0.0,0.0,0.0,0.0,0.0,0.0,0.0,0.0,0.0,0.0,0.0,0.0,0.0,0.0,0.0,0.0,0.0,0.0,0.0,0.0,0.0,0.0,0.0,0.0,0.0,0.0,0.0,0.0,0.0,0.0,0.0,0.0,0.0,0.0,0.0,0.0,0.0,0.0,0.0,0.0,0.0,0.0,0.0,0.0,0.0,0.0,0.0,0.0,0.0,0.0,0.0,0.0,0.0,0.0,0.0,0.0,0.0,0.0,0.0,0.0,0.0,0.0,0.0,0.0,0.0,0.0,0.0,0.0,0.0,0.0,0.0,0.0,0.0,0.0,0.0,0.0,0.0,0.0,0.0,0.0,0.0,0.0,0.0,0.0,0.0,0.0,0.0,0.0,0.0,0.0,0.0,0.0,0.0,0.0,0.0,0.0,0.0,0.0,0.0,0.0,0.0,0.0,0.0,0.0,0.0,0.0,0.0,0.0,0.0,0.0,0.0,0.0,0.0,0.0,0.0,0.0,0.0,0.0,0.0,0.0,0.0,0.0,0.0,0.0,0.0,0.0,0.0,0.0,0.0,0.0,0.0,0.0,0.0,0.0,0.0,0.0,0.0,0.0,0.0,0.0,0.0,0.0,0.0,0.0,0.0,0.0,0.0,0.0,0.0,0.0,0.0,0.0,0.0,0.0,0.0,0.0,0.0,0.0,0.0,0.0,0.0,0.0,0.0,0.0,0.0,0.0,0.0,0.0,0.0,0.0,0.0,0.0,0.0,0.0,0.0,0.0,0.0,0.0,0.0,0.0,0.0,0.0,0.0,0.0,0.0,0.0,0.0,0.0,0.0,0.0,0.0,0.0,0.0,0.0,0.0,0.0,0.0,0.0,0.0,0.0,0.0,0.0,0.0,0.0,0.0,0.0,0.0,0.0,0.0,0.0,0.0,0.0,0.0,0.0,0.0,0.0,0.0,0.0,0.0,0.0,0.0,0.0,0.0,0.0,0.0,0.0,0.0,0.0,0.0,0.0,0.0,0.0,0.0,0.0,0.0,0.0,0.0,0.0,0.0,0.0,0.0,0.0,0.0,0.0,0.0,0.0,0.0,0.0,0.0,0.0,0.0,0.0,0.0,0.0,0.0,0.0,0.0,0.0,0.0,0.0,0.0,0.0,0.0,0.0,0.0,0.0,0.0,0.0,0.0,0.0,0.0,0.0,0.0,0.0,0.0,0.0,0.0,0.0,0.0,0.0,0.0,0.0,0.0,0.0,0.0,0.0,0.0,0.0,0.0,0.0,0.0,0.0,0.0,0.0,0.0,0.0,0.0,0.0,0.0,0.0,0.0,0.0,0.0,0.0,0.0,0.0,0.0,0.0,0.0,0.0,0.0,0.0,0.0,0.0,0.0,0.0,0.0,0.0,0.0,0.0,0.0,0.0,0.0,0.0,0.0,0.0,0.0,0.0,0.0,0.0,0.0,0.0,0.0,0.0,0.0,0.0,0.0,0.0,0.0,0.0,0.0,0.0,0.0,0.0,0.0,0.0,0.0,0.0,0.0,0.0,0.0,0.0,0.0,0.0,0.0,0.0,0.0,0.0,0.0,0.0,0.0,0.0,0.0,0.0,0.0,0.0,0.0,0.0,0.0,0.0,0.0,0.0,0.0,0.0,0.0,0.0,0.0,0.0,0.0,0.0,0.0,0.0,0.0,0.0,0.0,0.0,0.0,0.0,0.0,0.0,0.0,0.0,0.0,0.0,0.0,0.0,0.0,0.0,0.0,0.0,0.0,0.0,0.0,0.0,0.0,0.0,0.0,0.0,0.0,0.0,0.0,0.0,0.0,0.0,0.0,0.0,0.0,0.0,0.0,0.0,0.0,0.0,0.0,0.0,0.0,0.0,0.0,0.0,0.0,0.0,0.0,0.0,0.0,0.0,0.0,0.0,0.0,0.0,0.0,0.0,0.0,0.0,0.0,0.0,0.0,0.0,0.0,0.0,0.0,0.0,0.0,0.0,0.0,0.0,0.0,0.0,0.0,0.0,0.0,0.0,0.0,0.0,0.0,0.0,0.0,0.0,0.0,0.0,0.0,0.0,0.0,0.0,0.0,0.0,0.0,0.0,0.0,0.0,0.0,0.0,0.0,0.0,0.0,0.0,0.0,0.0,0.0,0.0,0.0,0.0,0.0,0.0,0.0,0.0,0.0,0.0,0.0,0.0,0.0,0.0,0.0,0.0,0.0,0.0,0.0,0.0,0.0,0.0,0.0,0.0,0.0,0.0,0.0,0.0,0.0,0.0,0.0,0.0,0.0,0.0,0.0,0.0,0.0,0.0,0.0,0.0,0.0,0.0,0.0,0.0,0.0,0.0,0.0,0.0,0.0,0.0,0.0,0.0,0.0,0.0,0.0,0.0,0.0,0.0,0.0,0.0,0.0,0.0,0.0,0.0,0.0,0.0,0.0,0.0,0.0,0.0,0.0,0.0,0.0,0.0,0.0,0.0,0.0,0.0,0.0,0.0,0.0,0.0,0.0,0.0,0.0,0.0,0.0,0.0,0.0,0.0,0.0,0.0,0.0,0.0,0.0,0.0,0.0,0.0,0.0,0.0,0.0,0.0,0.0,0.0,0.0,0.0,0.0,0.0,0.0,0.0,0.0,0.0,0.0,0.0,0.0,0.0,0.0,0.0,0.0,0.0,0.0,0.0,0.0,0.0,0.0,0.0,0.0,0.0,0.0,0.0,0.0,0.0,0.0,0.0,0.0,0.0,0.0,0.0,0.0,0.0,0.0,0.0,0.0,0.0,0.0,0.0,0.0,0.0,0.0,0.0,0.0,0.0,0.0,0.0,0.0,0.0,0.0,0.0,0.0,0.0,0.0,0.0,0.0,0.0,0.0,0.0,0.0,0.0,0.0,0.0,0.0,0.0,0.0,0.0,0.0,0.0,0.0,0.0,0.0,0.0,0.0,0.0,0.0,0.0,0.0,0.0,0.0,0.0,0.0,0.0,0.0,0.0,0.0,0.0,0.0,0.0,0.0,0.0,0.0,0.0,0.0,0.0,0.0,0.0,0.0,0.0,0.0,0.0,0.0,0.0,0.0,0.0,0.0,0.0,0.0,0.0,0.0,0.0,0.0,0.0,0.0,0.0,0.0,0.0,0.0,0.0,0.0,0.0,0.0,0.0,0.0,0.0,0.0,0.0,0.0,0.0,0.0,0.0,0.0,0.0,0.0,0.0,0.0,0.0,0.0,0.0,0.0,0.0,0.0,0.0,0.0,0.0,0.0,0.0,0.0,0.0,0.0,0.0,0.0,0.0,0.0,0.0,0.0,0.0,0.0,0.0,0.0,0.0,0.0,0.0,0.0,0.0,0.0,0.0,0.0,0.0,0.0,0.0,0.0,0.0,0.0,0.0,0.0,0.0,0.0,0.0,0.0,0.0,0.0,0.0,0.0,0.0,0.0,0.0,0.0,0.0,0.0,0.0,0.0,0.0,0.0,0.0,0.0,0.0,0.0,0.0,0.0,0.0,0.0,0.0,0.0,0.0,0.0,0.0,0.0,0.0,0.0,0.0,0.0,0.0,0.0,0.0,0.0,0.0,0.0,0.0,0.0,0.0,0.0,0.0,0.0,0.0,0.0,0.0,0.0,0.0,0.0,0.0,0.0,0.0,0.0,0.0,0.0,0.0,0.0,0.0,0.0,0.0,0.0,0.0,0.0,0.0,0.0,0.0,0.0,0.0,0.0,0.0,0.0,0.0,0.0,0.0,0.0,0.0,0.0,0.0,0.0,0.0,0.0,0.0,0.0,0.0,0.0,0.0,0.0,0.0,0.0,0.0,0.0,0.0,0.0,0.0,0.0,0.0,0.0,0.0,0.0,0.0,0.0,0.0,0.0,0.0,0.0,0.0,0.0,0.0,0.0,0.0,0.0,0.0,0.0,0.0,0.0,0.0,0.0,0.0,0.0,0.0,0.0,0.0,0.0,0.0,0.0,0.0,0.0,0.0,0.0,0.0,0.0,0.0,0.0,0.0,0.0,0.0,0.0,0.0,0.0,0.0,0.0,0.0,0.0,0.0,0.0,0.0,0.0,0.0,0.0,0.0,0.0,0.0,0.0,0.0,0.0,0.0,0.0,0.0,0.0,0.0,0.0,0.0,0.0,0.0,0.0,0.0,0.0,0.0,0.0,0.0,0.0,0.0,0.0,0.0,0.0,0.0,0.0,0.0,0.0,0.0,0.0,0.0,0.0,0.0,0.0,0.0,0.0,0.0,0.0,0.0,0.0,0.0,0.0,0.0,0.0,0.0,0.0,0.0,0.0,0.0,0.0,0.0,0.0,0.0,0.0,0.0,0.0,0.0,0.0,0.0,0.0,0.0,0.0,0.0,0.0,0.0,0.0,0.0,0.0,0.0,0.0,0.0,0.0,0.0,0.0,0.0,0.0,0.0,0.0,0.0,0.0,0.0,0.0,0.0,0.0,0.0,0.0,0.0,0.0,0.0,0.0,0.0,0.0,0.0,0.0,0.0,0.0,0.0,0.0,0.0,0.0,0.0,0.0,0.0,0.0,0.0,0.0,0.0,0.0,0.0,0.0,0.0,0.0,0.0,0.0,0.0,0.0,0.0,0.0,0.0,0.0,0.0,0.0,0.0,0.0,0.0,0.0,0.0,0.0,0.0,0.0,0.0,0.0,0.0,0.0,0.0,0.0,0.0,0.0,0.0,0.0,0.0,0.0,0.0,0.0,0.0,0.0,0.0,0.0,0.0,0.0,0.0,0.0,0.0,0.0,0.0,0.0,0.0,0.0,0.0,0.0,0.0,0.0,0.0,0.0,0.0,0.0,0.0,0.0,0.0,0.0,0.0,0.0,0.0,0.0,0.0,0.0,0.0,0.0,0.0,0.0,0.0,0.0,0.0,0.0,0.0,0.0,0.0,0.0,0.0,0.0,0.0,0.0,0.0,0.0,0.0,0.0,0.0,0.0,0.0,0.0,0.0,0.0,0.0,0.0,0.0,0.0,0.0,0.0,0.0,0.0,0.0,0.0,0.0,0.0,0.0,0.0,0.0,0.0,0.0,0.0,0.0,0.0,0.0,0.0,0.0,0.0,0.0,0.0,0.0,0.0,0.0,0.0,0.0,0.0,0.0,0.0,0.0,0.0,0.0,0.0,0.0,0.0,0.0,0.0,0.0,0.0,0.0,0.0,0.0,0.0,0.0,0.0,0.0,0.0,0.0,0.0,0.0,0.0,0.0,0.0,0.0,0.0,0.0,0.0,0.0,0.0,0.0,0.0,0.0,0.0,0.0,0.0,0.0,0.0,0.0,0.0,0.0,0.0,0.0,0.0,0.0,0.0,0.0,0.0,0.0,0.0,0.0,0.0,0.0,0.0,0.0,0.0,0.0,0.0,0.0,0.0,0.0,0.0,0.0,0.0,0.0,0.0,0.0,0.0,0.0,0.0,0.0,0.0,0.0,0.0,0.0,0.0,0.0,0.0,0.0,0.0,0.0,0.0,0.0,0.0,0.0,0.0,0.0,0.0,0.0,0.0,0.0,0.0,0.0,0.0,0.0,0.0,0.0,0.0,0.0,0.0,0.0,0.0,0.0,0.0,0.0,0.0,0.0,0.0,0.0,0.0,0.0,0.0,0.0,0.0,0.0,0.0,0.0,0.0,0.0,0.0,0.0,0.0,0.0,0.0,0.0,0.0,0.0,0.0,0.0,0.0,0.0,0.0,0.0,0.0,0.0,0.0,1.2773,0.0,0.0,0.0,0.0,0.0,0.0,0.0,0.0,0.0,0.0,0.0,0.0,0.0,0.0,0.0,0.0,0.0,0.0,0.0,0.0,0.0,0.0,0.0,0.0,0.0,0.0,0.0,0.0,0.0,0.0,0.0,0.0,0.0,0.0,0.0,0.0,0.0,0.0,0.0,0.0,0.0,0.0,0.0,0.0,0.0,0.0,0.0,0.0,0.0,0.0,0.0,0.0,0.0,0.0,0.0,0.0,0.0,0.0,0.0,0.0,0.0,0.0,0.0,0.0,0.0,0.0,0.0,0.0,0.0,0.0,0.0,0.0,0.0,0.0,0.0,0.0,0.0,0.0,0.0,0.0,0.0,0.0,0.0,0.0,0.0,0.0,0.0,0.0,0.0,0.0,0.0,0.0,0.0,0.0,0.0,0.0,0.0,0.0,0.0,0.0,0.0,0.0,0.0,0.0,0.0,0.0,0.0,0.0,0.0,0.0,0.0,0.0,0.0,0.0,0.0,0.0,1.2771,0.0,0.0,0.0,0.0,0.0,0.0,0.0,0.0,0.0,0.0,0.0,0.0,0.0,0.0,0.0,0.0,0.0,0.0,0.0,0.0,0.0,0.0,0.0,0.0,0.0,0.0,0.0,0.0,0.0,0.0,0.0,0.0,0.0,0.0,0.0,0.0,0.0,0.0,0.0,0.0,0.0,0.0,0.0,0.0,0.0,0.0,0.0,0.0,0.0,0.0,0.0,0.0,0.0,0.0,0.0,0.0,0.0,0.0,0.0,0.0,0.0,0.0,0.0,0.0,0.0,0.0,0.0,0.0,0.0,0.0,0.0,0.0,0.0,0.0,0.0,0.0,0.0,0.0,0.0,0.0,0.0,0.0,0.0,0.0,0.0,0.0,0.0,0.0,0.0,0.0,0.0,0.0,0.0,0.0,0.0,0.0,0.0,0.0,0.0,0.0,0.0,0.0,0.0,0.0,0.0,0.0,0.0,0.0,1.4128,1.411,1.3807,1.4128,1.4465,1.4704,1.3811,1.3384,1.3289,1.3003,0.0,0.0,0.0,0.0,0.0,0.0,0.0,0.0,0.0,0.0,0.0,0.0,0.0,0.0,0.0,0.0,0.0,0.0,0.0,0.0,0.0,0.0,0.0,0.0,0.0,0.0,0.0,0.0,0.0,0.0,0.0,0.0,0.0,0.0,0.0,0.0,0.0,0.0,0.0,0.0,0.0,0.0,0.0,0.0,0.0,0.0,0.0,0.0,0.0,0.0,0.0,0.0,0.0,0.0,0.0,0.0,0.0,0.0,0.0,0.0,0.0,0.0,0.0,0.0,0.0,0.0,0.0,0.0,0.0,0.0,0.0,0.0,0.0,0.0,0.0,0.0,0.0,0.0,0.0,0.0,0.0,0.0,0.0,0.0,0.0,0.0,1.2239,1.2288,0.0,0.0,0.0,0.0,0.0,0.0,0.0,0.0,0.0,0.0,0.0,0.0,0.0,1.4485,1.576,1.5805,1.5779,1.5726,1.5779,1.5779,1.5726,1.5779,1.6671,1.8058,1.6567,0.0,1.3307,1.3253,0.0,0.0,0.0,0.0,0.0,0.0,0.0,0.0,0.0,0.0,0.0,0.0,0.0,0.0,0.0,0.0,0.0,0.0,0.0,0.0,0.0,0.0,0.0,0.0,0.0,0.0,0.0,0.0,0.0,0.0,0.0,0.0,0.0,0.0,0.0,0.0,0.0,0.0,0.0,0.0,0.0,0.0,0.0,0.0,0.0,0.0,0.0,0.0,0.0,0.0,0.0,0.0,0.0,0.0,0.0,0.0,0.0,0.0,0.0,0.0,0.0,0.0,0.0,0.0,0.0,0.0,0.0,0.0,0.0,0.0,0.0,0.0,0.0,0.0,0.0,0.0,0.0,0.0,0.0,0.0,0.0,0.0,0.0,0.0,0.0,1.2461,1.2568,1.2568,1.2673,1.2844,0.0,0.0,0.0,0.0,0.0,0.0,0.0,0.0,0.0,1.5132,1.5973,1.6317,1.6097,1.6951,1.7391,1.7391,1.7549,1.7628,1.762,1.7814,1.834,1.9036,1.8334,1.7,1.5252,1.4316,1.3832,1.3704,0.0,0.0,0.0,0.0,1.3733,1.3785,0.0,0.0,0.0,0.0,0.0,0.0,0.0,0.0,0.0,0.0,0.0,0.0,0.0,0.0,0.0,0.0,0.0,0.0,0.0,0.0,0.0,0.0,0.0,0.0,0.0,0.0,0.0,0.0,0.0,0.0,0.0,0.0,0.0,0.0,0.0,0.0,0.0,0.0,0.0,0.0,0.0,0.0,0.0,0.0,0.0,0.0,0.0,0.0,0.0,0.0,0.0,0.0,0.0,0.0,0.0,0.0,0.0,0.0,0.0,0.0,0.0,0.0,0.0,0.0,0.0,0.0,0.0,0.0,0.0,0.0,0.0,0.0,0.0,0.0,0.0,0.0,0.0,1.2691,1.2889,1.2889,1.3059,1.3181,0.0,0.0,0.0,0.0,0.0,0.0,1.6599,1.6309,1.6274,1.667,1.7802,1.8061,1.7394,1.8511,1.9124,1.9208,1.9404,1.9482,1.9511,1.9744,2.012,2.0533,2.0116,1.9311,1.8087,1.5928,1.4794,1.4395,1.4395,1.4395,1.4395,1.4395,1.4427,1.4486,0.0,0.0,0.0,0.0,0.0,0.0,0.0,0.0,0.0,0.0,0.0,0.0,0.0,0.0,0.0,0.0,0.0,0.0,0.0,0.0,0.0,0.0,0.0,0.0,0.0,0.0,0.0,0.0,0.0,0.0,0.0,0.0,0.0,0.0,0.0,0.0,0.0,0.0,0.0,0.0,0.0,0.0,0.0,0.0,0.0,0.0,0.0,0.0,0.0,0.0,0.0,0.0,0.0,0.0,0.0,0.0,0.0,0.0,0.0,0.0,0.0,0.0,0.0,0.0,0.0,0.0,0.0,0.0,0.0,0.0,0.0,0.0,0.0,0.0,0.0,0.0,0.0,0.0,0.0,1.3084,1.3263,0.0,0.0,0.0,0.0,1.5963,1.5964,1.6642,1.8205,1.6899,1.6768,1.8239,1.8362,1.92,2.0827,2.0933,2.1101,2.1342,2.1354,2.1366,2.1366,2.1378,2.233,2.386,2.2342,2.1761,2.1673,1.8199,1.5837,1.4395,1.4395,1.4395,1.4395,1.4395,1.4527,1.4673,0.0,0.0,0.0,0.0,0.0,0.0,0.0,0.0,0.0,0.0,0.0,0.0,0.0,0.0,0.0,0.0,0.0,0.0,0.0,0.0,0.0,0.0,0.0,0.0,0.0,0.0,0.0,0.0,0.0,0.0,0.0,0.0,0.0,0.0,0.0,0.0,0.0,0.0,0.0,0.0,0.0,0.0,0.0,0.0,0.0,0.0,0.0,0.0,0.0,0.0,0.0,0.0,0.0,0.0,0.0,0.0,0.0,0.0,0.0,0.0,0.0,0.0,0.0,0.0,0.0,0.0,0.0,0.0,0.0,0.0,0.0,0.0,0.0,0.0,0.0,0.0,0.0,0.0,0.0,1.3288,1.3433,0.0,1.4971,1.5664,1.6451,1.7504,1.7584,1.8233,1.9733,1.9509,1.957,2.0116,2.1276,2.1712,2.1353,2.234,2.2902,2.2974,2.3168,2.3228,2.3241,2.3422,2.3857,2.4421,2.3838,2.3078,2.2099,2.0839,1.9348,1.7883,1.7883,1.7883,1.7883,1.7883,1.7274,1.645,0.0,0.0,0.0,0.0,0.0,0.0,0.0,0.0,0.0,0.0,0.0,0.0,0.0,0.0,0.0,0.0,0.0,0.0,0.0,0.0,0.0,0.0,0.0,0.0,0.0,0.0,0.0,0.0,0.0,0.0,0.0,0.0,0.0,0.0,0.0,0.0,0.0,0.0,0.0,0.0,0.0,0.0,1.5554,0.0,0.0,0.0,0.0,0.0,0.0,0.0,0.0,0.0,0.0,0.0,0.0,0.0,0.0,0.0,0.0,0.0,0.0,0.0,0.0,0.0,0.0,0.0,0.0,0.0,0.0,0.0,0.0,0.0,0.0,0.0,0.0,0.0,0.0,1.4002,1.3854,1.4852,1.4658,1.5052,1.6594,1.7264,1.804,1.9071,1.9254,1.9947,2.1436,2.1333,2.1462,2.1988,2.3168,2.3361,2.242,2.3417,2.3986,2.4062,2.4262,2.4324,2.4337,2.4631,2.4764,2.4778,2.4853,2.43,2.3311,2.3311,2.2677,2.1595,2.0291,1.9865,1.993,1.993,1.9337,1.8432,0.0,0.0,0.0,0.0,0.0,0.0,0.0,0.0,0.0,0.0,0.0,0.0,0.0,0.0,0.0,0.0,0.0,0.0,0.0,0.0,0.0,0.0,0.0,0.0,0.0,0.0,0.0,0.0,0.0,0.0,0.0,0.0,0.0,0.0,0.0,0.0,0.0,0.0,0.0,0.0,0.0,0.0,1.6915,0.0,0.0,0.0,0.0,0.0,0.0,0.0,0.0,0.0,0.0,0.0,0.0,0.0,0.0,0.0,0.0,0.0,0.0,0.0,0.0,0.0,0.0,0.0,0.0,0.0,0.0,0.0,0.0,0.0,0.0,0.0,0.0,0.0,1.7655,1.5484,1.4823,1.7764,1.6955,1.6775,1.8309,1.9779,2.0624,2.0676,2.1,2.181,2.3235,2.2215,2.2277,2.3763,2.383,2.3946,2.4209,2.4222,2.4351,2.4613,2.4613,2.4613,2.4639,2.4957,2.5109,2.5122,2.5384,2.5499,2.5499,2.5499,2.5499,2.5127,2.142,2.0144,2.0358,2.0358,2.053,2.0542,0.0,0.0,0.0,0.0,0.0,0.0,0.0,0.0,0.0,0.0,0.0,0.0,0.0,0.0,0.0,0.0,0.0,0.0,0.0,0.0,0.0,0.0,0.0,0.0,0.0,0.0,0.0,0.0,0.0,0.0,0.0,0.0,0.0,0.0,0.0,0.0,0.0,0.0,0.0,0.0,0.0,0.0,1.8412,0.0,0.0,0.0,0.0,0.0,0.0,0.0,0.0,0.0,0.0,0.0,0.0,0.0,0.0,0.0,0.0,0.0,0.0,0.0,0.0,0.0,0.0,0.0,0.0,0.0,0.0,0.0,0.0,0.0,0.0,0.0,1.8136,1.7241,1.6545,1.681,1.7387,1.8224,1.7998,1.8355,1.9854,2.0571,2.1405,2.2479,2.2862,2.3226,2.363,2.3538,2.366,2.4088,2.4271,2.4417,2.4497,2.4497,2.4644,2.4957,2.4957,2.5064,2.5258,2.5358,2.5398,2.5398,2.5478,2.5499,2.5499,2.5499,2.5499,2.5396,2.4348,2.3979,2.4042,2.4042,2.3363,2.2195,0.0,0.0,0.0,0.0,0.0,0.0,0.0,0.0,0.0,0.0,0.0,0.0,0.0,0.0,0.0,0.0,0.0,0.0,0.0,0.0,0.0,0.0,0.0,0.0,0.0,0.0,0.0,0.0,0.0,0.0,0.0,0.0,0.0,0.0,0.0,0.0,0.0,0.0,0.0,0.0,0.0,0.0,1.975,1.8604,1.7898,1.7383,1.6446,1.5456,1.4504,1.4137,0.0,0.0,0.0,0.0,0.0,0.0,0.0,0.0,0.0,0.0,0.0,0.0,0.0,0.0,0.0,0.0,0.0,0.0,0.0,0.0,0.0,0.0,0.0,0.0,1.9649,1.8842,1.7995,1.8182,1.8868,2.0132,1.9843,2.0105,2.1595,2.2021,2.2587,2.3443,2.3781,2.3973,2.3973,2.4222,2.4364,2.4364,2.4644,2.4805,2.4805,2.4925,2.5072,2.5264,2.5264,2.5344,2.5499,2.5638,2.5711,2.5724,2.5825,2.5879,2.5879,2.5879,2.5879,0.0,0.0,0.0,0.0,0.0,2.5283,2.4238,0.0,0.0,0.0,0.0,0.0,0.0,0.0,0.0,0.0,0.0,0.0,0.0,0.0,0.0,0.0,0.0,0.0,0.0,0.0,0.0,0.0,0.0,0.0,0.0,0.0,0.0,0.0,0.0,0.0,0.0,0.0,0.0,0.0,0.0,0.0,0.0,0.0,0.0,0.0,0.0,0.0,0.0,2.084,1.8428,1.8908,2.0399,1.6867,1.6203,1.664,1.4292,0.0,0.0,0.0,0.0,0.0,0.0,0.0,0.0,0.0,0.0,0.0,0.0,0.0,0.0,0.0,0.0,0.0,0.0,0.0,0.0,0.0,0.0,0.0,0.0,2.0708,2.0866,2.0903,1.9779,1.9953,2.2638,2.1997,2.188,2.3227,2.3647,2.3857,2.3857,2.4088,2.4249,2.4249,0.0,0.0,0.0,0.0,2.5149,2.5149,2.5384,2.5512,2.5558,2.5558,2.5585,2.5625,2.5898,2.6051,2.6065,2.6299,2.6406,2.6406,2.6406,2.6433,2.6386,2.5825,2.5772,2.6078,2.6312,2.6406,2.6169,0.0,0.0,0.0,0.0,0.0,0.0,0.0,0.0,0.0,0.0,0.0,0.0,0.0,0.0,0.0,0.0,0.0,0.0,0.0,0.0,0.0,0.0,0.0,0.0,0.0,0.0,0.0,0.0,0.0,0.0,0.0,0.0,0.0,0.0,0.0,0.0,0.0,0.0,0.0,0.0,0.0,0.0,2.1077,2.0811,2.0179,1.9451,1.9782,1.8652,1.7077,1.7625,1.6333,1.4488,1.4488,0.0,0.0,0.0,0.0,0.0,0.0,0.0,0.0,0.0,0.0,0.0,0.0,0.0,0.0,0.0,0.0,0.0,0.0,0.0,0.0,2.2282,2.2425,2.2526,2.2741,2.2523,2.2575,2.3146,2.3025,2.3091,2.3643,2.3973,2.4115,2.4115,2.4364,2.4519,2.4519,2.4836,2.4997,2.4997,2.5277,2.5424,2.5424,2.5459,2.5638,2.5885,0.0,0.0,2.6226,2.6299,2.6326,2.6326,2.6379,2.6406,2.6406,2.6406,2.6533,2.6687,2.636,2.6272,2.6339,2.6393,2.6406,2.6387,0.0,0.0,0.0,0.0,0.0,0.0,0.0,0.0,0.0,0.0,0.0,0.0,0.0,0.0,0.0,0.0,0.0,0.0,0.0,0.0,0.0,0.0,0.0,0.0,0.0,0.0,0.0,0.0,0.0,0.0,0.0,0.0,0.0,0.0,0.0,0.0,0.0,0.0,0.0,0.0,0.0,0.0,2.1583,2.1409,2.0811,2.0052,2.0052,1.9164,1.8011,1.8011,1.7093,1.5944,1.5944,1.5944,1.5814,0.0,0.0,0.0,0.0,0.0,0.0,0.0,0.0,0.0,0.0,0.0,0.0,0.0,0.0,2.1452,2.246,0.0,2.2756,2.3046,2.31,2.3224,2.35,2.3554,2.3554,2.3554,2.3674,2.3821,2.3968,2.423,2.4404,2.4404,2.4671,2.4863,2.4863,2.513,2.5291,2.5291,2.5585,2.5751,2.5751,2.5879,2.6026,2.6192,2.6192,2.6272,2.6386,2.6547,2.66,2.6613,2.678,2.6847,2.6847,2.6847,2.6941,2.7048,2.6901,2.6847,2.6847,2.6847,2.6847,2.6874,0.0,0.0,0.0,0.0,0.0,0.0,0.0,0.0,0.0,0.0,0.0,0.0,0.0,0.0,0.0,0.0,0.0,0.0,0.0,0.0,0.0,0.0,0.0,0.0,0.0,0.0,0.0,0.0,0.0,0.0,0.0,0.0,0.0,0.0,0.0,0.0,0.0,0.0,0.0,0.0,0.0,0.0,2.212,2.152,2.1251,2.1046,1.9846,1.9403,1.9243,1.8155,1.7608,1.7399,1.7399,1.7399,1.7351,1.7077,1.7189,0.0,0.0,0.0,0.0,0.0,0.0,0.0,0.0,2.0389,2.0793,2.2196,2.2498,2.2579,2.2853,2.2947,2.305,2.3252,2.3363,2.3514,2.3826,2.3866,2.3892,2.3946,2.4102,2.4222,2.4271,2.4538,2.4698,2.4698,2.4997,2.5176,2.5176,2.5438,2.5598,2.5598,2.5898,2.6078,2.6078,2.6299,2.6406,2.6406,2.6453,2.6466,2.648,2.6774,2.6907,2.69,2.7181,2.7309,2.7309,2.7362,2.7389,2.7382,2.7456,2.7483,2.7469,2.7349,2.7309,2.7309,0.0,0.0,0.0,0.0,0.0,0.0,0.0,0.0,0.0,0.0,0.0,0.0,0.0,0.0,0.0,0.0,0.0,0.0,0.0,1.3818,0.0,0.0,0.0,0.0,0.0,0.0,0.0,0.0,0.0,0.0,0.0,0.0,0.0,0.0,0.0,0.0,0.0,0.0,0.0,0.0,0.0,0.0,2.2496,2.212,2.1803,2.1488,2.103,2.0872,2.0827,2.0684,1.9814,1.878,1.878,1.878,1.854,1.7351,0.0,1.8571,1.7604,1.8436,1.9881,2.117,2.148,2.1608,0.0,2.213,2.226,2.2735,2.2853,2.2853,2.2893,2.3086,2.3269,2.3309,2.3554,2.3839,2.4115,2.4155,2.423,2.4479,2.4324,2.4284,2.4532,2.485,2.5037,2.5037,2.5304,2.5464,2.5464,2.5764,2.5944,2.5944,2.6205,2.6366,2.6366,2.6393,2.6406,2.6386,2.6653,2.6754,2.6767,2.7081,2.7235,2.7255,2.7275,2.7309,2.7322,2.7569,2.7655,2.7682,2.7978,2.8106,2.8018,2.7496,2.7309,2.7329,0.0,0.0,0.0,0.0,0.0,0.0,0.0,0.0,0.0,0.0,0.0,0.0,0.0,0.0,0.0,0.0,0.0,0.0,1.3678,1.4052,1.5801,1.9307,0.0,0.0,0.0,0.0,0.0,0.0,0.0,0.0,0.0,0.0,0.0,0.0,0.0,0.0,0.0,0.0,0.0,0.0,0.0,0.0,2.284,2.2512,2.2167,2.1837,2.152,2.1267,0.0,0.0,2.07,2.0211,2.0211,2.0211,2.0154,1.9777,2.0068,0.0,2.0162,2.0604,2.1294,2.2058,2.2231,2.2311,2.2622,2.2689,2.2729,2.2867,2.3023,2.314,2.314,2.338,2.3634,2.379,2.3941,2.4128,2.4404,2.4431,2.4551,2.4863,2.4783,2.4756,2.489,2.5029,2.5163,2.5317,2.5617,2.5791,2.5791,2.6072,2.6232,2.6232,2.6339,2.6406,2.6406,2.656,2.662,2.664,2.6934,2.7081,2.7094,2.7409,2.7636,2.7817,2.7817,2.7817,2.7831,2.7951,2.8005,2.8005,2.816,2.82,2.8173,2.7932,2.7817,2.7831,0.0,0.0,0.0,0.0,0.0,0.0,0.0,0.0,0.0,0.0,0.0,0.0,0.0,0.0,0.0,0.0,0.0,0.0,0.0,1.424,1.6023,1.888,1.9702,0.0,0.0,0.0,0.0,0.0,0.0,0.0,0.0,0.0,0.0,0.0,0.0,0.0,0.0,0.0,0.0,0.0,0.0,0.0,2.3074,2.2825,2.2465,2.2057,2.1725,2.1378,0.0,0.0,2.1093,2.1122,2.1203,2.1245,2.1312,2.1622,2.1756,2.186,2.2061,2.2181,2.2288,2.2485,2.2539,2.2592,2.2853,2.2893,2.292,2.3014,2.3149,2.3336,2.3416,2.3688,2.3973,2.4168,2.4257,2.4377,2.4572,2.4684,2.4818,2.5069,2.5176,2.5256,2.5336,2.5355,2.543,2.5625,2.5925,2.6118,2.6118,2.6299,2.6406,2.6406,2.6466,2.6507,2.6507,2.68,2.6947,2.6947,2.7262,2.7409,2.7422,2.7703,2.7957,2.82,2.82,2.82,2.82,2.82,2.82,2.82,2.82,2.82,2.82,2.82,2.82,2.82,0.0,0.0,0.0,0.0,0.0,0.0,0.0,0.0,0.0,0.0,0.0,0.0,0.0,0.0,0.0,0.0,0.0,0.0,0.0,1.4403,1.6116,1.8876,1.9702,2.1035,2.3059,0.0,0.0,0.0,0.0,0.0,0.0,0.0,0.0,0.0,0.0,0.0,0.0,0.0,0.0,0.0,0.0,0.0,2.309,2.309,2.2668,2.2057,2.1725,0.0,0.0,0.0,2.1093,2.1162,2.1475,2.1585,0.0,2.19,2.2178,0.0,2.2388,2.2636,2.2867,2.288,2.288,2.288,2.2893,2.2893,2.297,2.3229,2.3278,2.3403,2.3719,2.4013,2.4195,2.4209,2.4417,2.4586,2.4599,2.489,2.5082,2.5096,2.5331,2.5611,2.5944,2.5971,2.5971,2.5984,2.6232,2.6393,2.6393,2.6406,2.6406,2.6406,2.6647,2.6794,2.6794,2.7128,2.7275,2.7296,2.7569,2.7682,2.7696,2.8031,2.82,2.82,2.82,2.82,2.82,2.82,2.82,2.82,2.82,2.82,2.82,2.82,2.82,2.82,0.0,0.0,0.0,0.0,0.0,0.0,0.0,0.0,0.0,0.0,0.0,0.0,0.0,0.0,0.0,0.0,0.0,0.0,0.0,1.4412,1.6132,1.8876,1.9702,2.1035,2.3059,2.309,2.309,0.0,0.0,0.0,0.0,0.0,0.0,0.0,0.0,0.0,0.0,0.0,0.0,0.0,0.0,0.0,2.3074,2.284,2.248,2.2057,0.0,0.0,0.0,0.0,0.0,0.0,2.1767,0.0,0.0,2.2191,0.0,0.0,2.2729,2.2813,2.2893,2.2893,2.2893,2.2947,2.3126,2.3166,2.326,2.3585,2.3768,2.3923,2.4035,2.4271,2.4471,2.4471,2.4532,2.4684,2.4903,2.5042,2.5243,2.565,2.5784,2.5938,2.6232,2.6105,2.6078,2.6246,2.6353,2.6406,2.6406,2.6406,2.648,2.6647,2.6754,2.6921,2.7128,2.7422,2.7569,2.7583,2.7877,2.8031,2.8045,2.8138,2.82,2.82,2.82,2.82,2.82,2.82,2.82,2.82,2.82,2.8312,2.8478,2.8478,2.8577,2.8684,0.0,0.0,0.0,0.0,0.0,0.0,0.0,0.0,0.0,0.0,0.0,0.0,0.0,0.0,0.0,0.0,0.0,0.0,0.0,0.0,1.6019,1.8528,1.9591,2.1035,2.3059,2.309,2.309,2.309,0.0,0.0,0.0,0.0,0.0,0.0,0.0,0.0,0.0,0.0,0.0,0.0,0.0,0.0,2.2871,2.2543,2.2214,0.0,0.0,0.0,0.0,0.0,0.0,0.0,0.0,0.0,0.0,0.0,2.2729,2.2893,2.2893,2.2893,2.2893,2.2893,2.2957,2.3104,2.3269,2.3389,2.3567,2.3879,2.4075,2.4235,2.4324,2.4479,2.4639,2.4764,2.4778,2.4903,2.5197,2.535,2.5569,2.5957,2.6091,2.6205,2.6373,2.6246,2.6205,2.6393,2.6406,2.6406,2.6406,2.6493,2.6607,2.6794,2.7007,2.7228,2.7436,2.773,2.7877,2.7877,2.8098,2.82,2.82,2.82,2.82,2.82,2.82,2.82,2.8213,2.8312,2.8353,2.8366,2.8438,2.8591,2.8743,2.8743,2.8863,2.8948,0.0,0.0,0.0,0.0,0.0,0.0,0.0,0.0,0.0,0.0,0.0,0.0,0.0,0.0,0.0,0.0,0.0,0.0,0.0,0.0,0.0,1.796,1.9403,2.1082,2.3059,2.309,2.309,2.309,0.0,0.0,0.0,0.0,0.0,0.0,0.0,0.0,0.0,0.0,0.0,0.0,0.0,0.0,2.2543,2.2198,0.0,0.0,0.0,0.0,0.0,0.0,0.0,0.0,0.0,2.2632,2.2893,2.2893,2.2893,2.2893,2.2893,2.2893,2.2893,2.292,2.3113,2.3323,2.3349,2.3594,2.3892,2.4168,2.4222,2.4302,2.4546,2.4613,2.4738,2.5056,2.5109,2.5216,2.5491,2.5804,2.5998,2.6011,2.6246,2.6406,2.6406,2.6406,2.6406,2.6406,2.6406,2.6419,2.6413,2.666,2.682,2.6847,2.7402,2.7709,2.7722,2.8045,2.82,2.82,2.82,2.82,2.82,2.82,2.82,2.82,2.8205,2.8205,2.8232,2.8497,2.8631,2.8657,2.8916,2.9001,2.9037,2.9037,2.9028,2.9041,0.0,0.0,0.0,0.0,0.0,0.0,0.0,0.0,0.0,0.0,0.0,0.0,0.0,0.0,0.0,0.0,0.0,0.0,0.0,0.0,0.0,0.0,0.0,0.0,0.0,0.0,0.0,0.0,0.0,0.0,0.0,0.0,0.0,0.0,0.0,0.0,0.0,0.0,0.0,0.0,0.0,0.0,2.2182,0.0,0.0,0.0,0.0,0.0,0.0,0.0,2.2235,2.2679,2.2743,2.284,2.2893,2.2893,2.2893,2.2893,2.2893,2.2893,2.296,2.3153,2.3256,2.3429,2.3875,2.4035,2.4168,2.4444,2.4511,2.4519,2.4586,2.4805,2.4997,2.5082,2.5264,2.5504,2.5818,2.5944,2.6078,2.6272,2.6366,2.6406,2.6406,2.6406,2.6406,2.6406,2.6406,2.648,2.6694,2.6767,2.7007,2.7455,2.7615,2.7823,2.8072,2.8173,2.82,2.82,2.82,2.82,2.82,2.82,2.82,2.8226,2.8412,2.8484,2.8511,2.8783,2.8903,2.8895,2.8961,2.9157,2.9366,2.9366,2.9513,2.9677,0.0,0.0,0.0,0.0,0.0,0.0,0.0,0.0,0.0,0.0,0.0,0.0,0.0,0.0,0.0,0.0,0.0,0.0,0.0,0.0,0.0,0.0,0.0,0.0,0.0,0.0,0.0,0.0,0.0,0.0,0.0,0.0,0.0,0.0,0.0,0.0,0.0,0.0,0.0,0.0,0.0,0.0,0.0,0.0,0.0,0.0,0.0,0.0,0.0,2.2342,2.2626,2.2893,2.2893,2.2893,2.2893,2.2893,2.2893,2.2893,2.2893,2.3,2.3113,2.3269,2.351,2.3777,2.4128,2.4284,2.4417,2.4572,2.4599,2.4639,2.4791,2.497,2.5189,2.5443,2.5617,2.5831,2.6125,2.6185,2.6219,2.6373,2.6406,2.6406,2.6406,2.6406,2.644,2.6573,2.6587,2.6653,2.6794,2.7047,2.7362,2.7682,2.785,2.8018,2.82,2.82,2.82,2.82,2.82,2.8259,2.8393,2.8393,2.8438,2.8572,0.0,2.8783,2.8796,2.909,2.921,2.9223,2.9357,2.9504,2.9673,2.9673,2.978,2.9891,0.0,0.0,0.0,0.0,0.0,0.0,0.0,0.0,0.0,0.0,0.0,0.0,0.0,0.0,0.0,0.0,0.0,0.0,0.0,0.0,0.0,0.0,0.0,0.0,0.0,0.0,0.0,0.0,0.0,0.0,0.0,0.0,0.0,0.0,0.0,0.0,0.0,0.0,0.0,0.0,0.0,0.0,0.0,0.0,0.0,0.0,0.0,0.0,0.0,0.0,2.2893,2.2893,2.2893,2.2893,2.2893,2.2893,2.2893,2.2907,2.2947,2.3113,2.3323,2.3403,2.3803,2.4209,2.423,2.4431,2.4599,2.4599,2.4644,2.4751,2.5056,2.5163,2.539,2.5917,2.6024,2.6145,2.6379,2.6406,2.6406,2.6406,2.6406,2.6406,2.6406,2.6426,2.6547,2.678,2.6874,2.6914,2.6914,2.7415,2.7722,2.7762,2.8045,2.82,2.82,2.824,2.8245,2.8245,2.8286,2.8425,2.8649,2.8649,2.8783,2.9001,2.9063,0.0,2.9103,2.9419,2.9584,2.9677,2.9909,3.0025,3.0093,3.0093,3.0093,3.0093,0.0,0.0,0.0,0.0,0.0,0.0,0.0,0.0,0.0,0.0,0.0,0.0,0.0,0.0,0.0,0.0,0.0,0.0,0.0,0.0,0.0,0.0,0.0,0.0,0.0,0.0,0.0,0.0,0.0,0.0,0.0,0.0,0.0,0.0,0.0,0.0,0.0,0.0,0.0,0.0,0.0,0.0,0.0,0.0,0.0,0.0,0.0,0.0,0.0,0.0,2.2893,2.2893,2.2893,2.2893,2.2893,2.2893,2.2893,2.296,2.318,2.3269,2.3429,2.391,2.4128,2.4262,2.4484,2.4559,2.4599,2.4599,2.4818,2.5042,2.5082,2.5516,2.5877,2.5971,2.6198,2.6353,2.6386,2.6406,2.6406,2.6406,2.6406,2.6406,2.6406,2.66,2.6754,2.6794,2.7248,2.7549,2.7549,2.7642,2.7837,2.8098,2.8186,2.82,2.82,2.8412,2.8524,2.8524,2.8764,2.889,2.8921,2.8921,2.8948,2.9015,2.9299,0.0,2.9432,2.9726,3.0057,3.0414,3.0468,3.0727,3.1062,3.1062,3.1062,3.1062,0.0,0.0,0.0,0.0,0.0,0.0,0.0,0.0,0.0,0.0,0.0,0.0,0.0,0.0,0.0,0.0,0.0,0.0,0.0,0.0,0.0,0.0,0.0,0.0,0.0,0.0,2.2668,2.284,0.0,0.0,0.0,0.0,0.0,0.0,0.0,0.0,0.0,0.0,0.0,0.0,0.0,0.0,0.0,0.0,0.0,0.0,0.0,0.0,0.0,0.0,2.2893,2.2893,2.2893,2.2893,2.2893,2.2893,2.2997,2.314,2.3269,2.3536,2.383,2.4128,2.4297,2.4444,2.4572,2.4599,2.4639,2.4818,2.5002,2.5189,2.5516,2.581,2.6051,2.6198,2.6326,2.6406,2.6406,2.6406,2.6406,2.6406,2.6406,2.6453,2.66,2.6714,2.6927,2.7234,2.7535,2.7696,2.7696,2.7863,2.8031,2.8179,2.8339,2.8412,2.8412,2.8663,2.881,2.881,2.8935,2.9103,2.9272,2.9272,2.933,2.9477,2.9646,0.0,2.9749,3.0106,3.0406,3.0616,3.0884,3.1093,3.1293,3.1293,3.1293,3.1293,0.0,0.0,0.0,0.0,0.0,0.0,0.0,0.0,0.0,0.0,0.0,0.0,0.0,0.0,0.0,0.0,0.0,0.0,0.0,0.0,0.0,0.0,0.0,0.0,0.0,0.0,0.0,2.248,2.248,0.0,0.0,0.0,0.0,0.0,2.2887,0.0,0.0,0.0,0.0,0.0,0.0,0.0,0.0,0.0,0.0,0.0,0.0,0.0,0.0,0.0,2.2893,2.2893,2.2893,2.2893,2.2907,2.2974,2.314,2.3336,2.347,2.383,2.4222,2.4257,2.4444,2.4599,2.4599,2.4671,2.4778,2.5056,2.5203,2.5449,2.5917,2.6051,2.6139,2.6379,2.6406,2.6406,2.6406,2.6406,2.6406,2.6406,2.6485,2.6606,2.6767,2.6941,2.7216,2.7676,2.7783,2.7831,2.7927,2.8184,2.8366,2.8434,2.8641,2.8717,2.8698,2.897,2.9117,2.9117,2.917,2.933,2.9601,2.9601,2.9766,3.0048,3.0048,3.0115,0.0,3.0593,3.0817,3.0928,3.1307,3.1529,3.1618,3.1618,3.1618,3.1618,0.0,0.0,0.0,0.0,0.0,0.0,0.0,0.0,0.0,0.0,0.0,0.0,0.0,0.0,0.0,0.0,0.0,0.0,0.0,0.0,0.0,0.0,0.0,0.0,0.0,0.0,0.0,2.2151,2.2151,0.0,0.0,0.0,0.0,0.0,0.0,2.2024,2.1679,0.0,0.0,0.0,0.0,0.0,0.0,0.0,0.0,0.0,0.0,2.2398,2.2893,2.2893,2.2893,2.2893,2.2893,2.2893,2.296,2.3189,2.3283,2.3429,2.3981,2.4168,2.4262,2.4492,2.4586,2.4599,2.4599,2.485,2.5069,2.5096,2.5543,2.5931,2.5984,2.6192,2.6379,2.6406,2.6406,2.6406,2.6406,2.6406,2.6406,2.6406,2.6722,2.6903,2.6821,2.7412,2.7771,2.769,2.797,2.832,2.8678,2.8726,2.8883,2.9191,2.9219,2.9154,2.897,2.9299,2.9446,2.9468,2.9713,2.9824,2.9851,2.9851,3.011,3.0526,3.0526,3.0772,0.0,3.1218,3.1485,3.1877,3.1921,3.2232,3.2653,3.2653,3.2653,3.2653,0.0,0.0,0.0,0.0,0.0,0.0,0.0,0.0,0.0,0.0,0.0,0.0,0.0,0.0,0.0,0.0,0.0,0.0,0.0,0.0,0.0,0.0,0.0,0.0,0.0,0.0,0.0,2.1803,2.1803,0.0,0.0,0.0,0.0,0.0,0.0,2.19,2.1599,0.0,0.0,0.0,0.0,0.0,0.0,0.0,0.0,0.0,0.0,0.0,2.2893,2.2893,2.2893,2.2893,2.2893,2.301,2.3166,2.3269,2.3429,2.3688,2.4088,2.4311,2.4471,2.4572,2.4599,2.4653,2.4845,2.4997,2.5203,2.5569,2.5837,2.6051,2.6205,2.6326,2.6406,2.6406,2.6406,2.6406,2.6406,2.6406,2.6406,2.6406,2.6686,2.6954,2.7088,2.7512,2.7945,2.8326,2.8742,2.9124,2.943,2.897,2.874,2.8869,2.9501,2.9659,2.9312,3.0146,3.0438,3.0163,3.0561,3.075,3.075,3.075,3.0839,3.1017,3.1017,3.1115,0.0,3.1596,3.1832,3.2032,3.2365,3.2609,3.28,3.28,3.28,3.28,0.0,0.0,0.0,0.0,0.0,0.0,0.0,0.0,0.0,0.0,0.0,0.0,0.0,0.0,0.0,0.0,0.0,0.0,0.0,0.0,0.0,0.0,0.0,0.0,0.0,0.0,0.0,0.0,0.0,2.1457,0.0,0.0,2.1803,2.1803,0.0,0.0,0.0,0.0,0.0,0.0,0.0,0.0,0.0,0.0,0.0,0.0,0.0,0.0,0.0,0.0,0.0,2.2893,2.2893,0.0,0.0,2.3416,2.3661,2.3986,2.4249,2.4457,2.4599,2.4599,2.4599,2.4698,2.501,2.5163,2.5363,2.5891,2.6065,2.6185,2.6379,2.6406,2.6406,2.6406,2.6406,2.6406,2.6406,2.6406,2.6426,2.6507,2.6807,2.7116,2.7403,2.778,2.8299,2.8957,2.9397,2.974,2.9929,2.9525,2.929,2.929,3.0156,3.0439,3.0049,3.0884,3.1115,3.0817,3.1151,3.1293,3.1293,3.1293,3.1396,3.1507,3.1507,3.1596,0.0,3.2099,3.2232,3.2276,3.2667,3.28,3.28,3.28,3.28,3.28,0.0,0.0,0.0,0.0,0.0,0.0,0.0,0.0,0.0,0.0,0.0,0.0,0.0,0.0,0.0,0.0,0.0,0.0,0.0,0.0,0.0,0.0,0.0,0.0,0.0,0.0,0.0,0.0,0.0,0.0,2.1109,2.1109,2.1109,2.1109,0.0,0.0,0.0,0.0,0.0,0.0,0.0,0.0,0.0,0.0,0.0,0.0,0.0,0.0,0.0,0.0,0.0,0.0,0.0,0.0,0.0,0.0,2.3986,2.4244,2.4519,2.4599,2.4599,2.4599,2.4599,2.4698,2.501,2.5304,2.5598,2.5931,2.6205,2.6406,2.6406,2.6406,2.6406,2.6406,2.6406,2.6406,2.6406,2.6406,2.6493,2.6767,2.7209,2.7554,2.7684,2.836,2.8978,2.946,2.9796,3.0007,2.9986,3.0575,3.0875,3.0875,3.1341,3.1483,3.1293,3.1293,3.1293,3.1293,3.1293,3.1293,3.1293,3.1293,3.1552,3.1988,3.1988,3.2276,0.0,3.2785,3.2785,3.2785,3.28,3.28,3.28,3.28,3.28,3.28,0.0,0.0,0.0,0.0,0.0,0.0,0.0,0.0,0.0,0.0,0.0,0.0,0.0,0.0,0.0,0.0,0.0,0.0,0.0,0.0,0.0,0.0,0.0,0.0,0.0,0.0,0.0,0.0,0.0,0.0,0.0,0.0,0.0,2.1093,2.1093,2.1093,0.0,0.0,0.0,0.0,0.0,0.0,0.0,0.0,0.0,0.0,0.0,0.0,0.0,0.0,0.0,0.0,0.0,0.0,0.0,0.0,0.0,2.4262,2.4538,2.4599,2.4599,2.4599,2.4764,2.501,2.5304,2.5617,2.5925,2.6205,2.6339,2.6406,2.6406,2.6406,2.6406,2.6406,2.6406,2.6406,2.6406,2.6406,2.6493,2.6767,2.7297,2.7844,2.8416,2.8944,2.9558,3.0191,3.0665,3.0951,3.1094,3.1576,3.1546,3.0911,3.1518,3.1689,3.1293,3.1974,3.2143,3.1774,3.2165,3.2343,3.2343,3.2343,3.2409,3.2542,3.2542,3.2631,0.0,3.28,3.28,3.28,3.28,3.28,3.28,3.28,3.28,3.28,0.0,0.0,0.0,0.0,0.0,0.0,0.0,0.0,0.0,0.0,0.0,0.0,0.0,0.0,0.0,0.0,0.0,0.0,0.0,0.0,0.0,0.0,0.0,0.0,0.0,0.0,0.0,0.0,0.0,0.0,0.0,0.0,0.0,0.0,0.0,0.0,0.0,0.0,0.0,0.0,0.0,0.0,2.1176,0.0,0.0,0.0,0.0,0.0,0.0,0.0,0.0,0.0,0.0,0.0,0.0,0.0,0.0,0.0,2.4546,2.4599,2.4626,2.4764,2.4943,2.5203,2.5604,2.5844,2.6078,2.6353,2.6406,2.6406,2.6406,2.6406,2.6406,2.6406,2.6406,2.6406,2.6406,2.648,2.6707,2.7087,2.772,2.8354,2.9006,2.9495,3.0,3.0559,3.1156,3.151,3.1611,3.2157,3.2229,3.1644,3.2065,3.2165,3.1863,3.2498,3.2631,3.2298,3.2631,3.28,3.28,3.28,3.28,3.28,3.28,0.0,0.0,3.28,3.28,3.28,3.28,3.28,3.28,3.28,3.28,3.28,0.0,0.0,0.0,0.0,0.0,0.0,0.0,0.0,0.0,0.0,0.0,0.0,0.0,0.0,0.0,0.0,0.0,0.0,0.0,0.0,0.0,0.0,0.0,0.0,0.0,0.0,0.0,0.0,1.7646,1.9004,1.9036,0.0,0.0,0.0,0.0,0.0,0.0,0.0,0.0,0.0,0.0,0.0,0.0,0.0,0.0,0.0,0.0,0.0,0.0,0.0,0.0,0.0,0.0,0.0,0.0,0.0,0.0,0.0,0.0,2.4599,2.4684,2.5029,2.5109,2.5283,2.5864,2.6011,0.0,2.6353,2.6406,2.6406,2.6406,2.6406,2.6406,2.6406,2.6406,2.6406,2.6406,2.6653,2.7047,2.7629,2.834,2.8992,2.9439,2.9942,3.0357,3.0673,3.1395,3.1779,3.1698,3.2382,3.28,3.28,3.28,3.28,3.28,3.28,3.28,3.28,3.28,3.28,3.28,3.28,3.28,0.0,3.28,0.0,0.0,3.28,3.28,3.28,3.28,3.28,3.28,3.28,3.28,3.28,0.0,0.0,0.0,0.0,0.0,0.0,0.0,0.0,0.0,0.0,0.0,0.0,0.0,0.0,0.0,0.0,0.0,0.0,0.0,0.0,0.0,0.0,0.0,0.0,0.0,0.0,0.0,1.4896,1.7646,1.9004,1.9036,2.0446,0.0,0.0,0.0,0.0,0.0,0.0,0.0,0.0,0.0,0.0,0.0,0.0,0.0,0.0,2.2272,2.2143,0.0,0.0,0.0,0.0,0.0,0.0,0.0,0.0,2.4546,0.0,0.0,0.0,2.4684,2.5029,2.5251,2.5504,0.0,0.0,0.0,0.0,0.0,2.6406,2.6406,2.6406,2.6406,2.6406,2.6406,2.6406,2.6406,2.6861,2.7315,2.7655,2.834,2.8992,2.9439,3.0106,3.0793,3.1473,3.1923,3.2288,3.2514,3.2712,3.28,3.28,3.28,3.28,3.28,3.28,3.28,3.28,3.28,3.28,3.28,3.28,3.28,3.28,0.0,0.0,3.28,3.28,3.28,3.28,3.28,3.28,3.28,3.28,3.28,3.28,0.0,0.0,0.0,0.0,0.0,0.0,0.0,0.0,0.0,0.0,0.0,0.0,0.0,0.0,0.0,0.0,0.0,0.0,0.0,0.0,0.0,0.0,0.0,0.0,0.0,0.0,0.0,0.0,0.0,1.7447,0.0,0.0,0.0,0.0,0.0,0.0,0.0,0.0,0.0,0.0,2.0144,0.0,0.0,0.0,0.0,0.0,2.1936,2.1902,0.0,2.2379,2.194,2.1093,0.0,0.0,0.0,0.0,2.4599,0.0,0.0,2.4711,2.4903,0.0,0.0,0.0,0.0,0.0,0.0,0.0,0.0,2.6406,2.6406,2.6406,2.6406,2.6406,2.6406,2.65,2.678,2.7195,2.7658,2.8141,2.8735,2.9307,2.9788,3.0493,3.117,3.1747,3.2105,3.2449,3.2771,3.28,3.28,3.28,3.28,3.28,3.28,3.28,3.28,3.28,3.28,3.28,3.28,3.28,3.28,3.28,0.0,0.0,3.28,3.28,3.28,3.28,3.28,3.28,3.28,3.28,3.28,3.28,0.0,0.0,0.0,0.0,0.0,0.0,0.0,0.0,0.0,0.0,0.0,0.0,0.0,0.0,0.0,0.0,0.0,0.0,0.0,0.0,0.0,0.0,0.0,0.0,0.0,0.0,0.0,0.0,0.0,0.0,0.0,0.0,0.0,0.0,0.0,0.0,0.0,0.0,0.0,0.0,1.878,0.0,0.0,0.0,0.0,0.0,0.0,0.0,0.0,2.2211,2.1686,2.0639,2.3039,0.0,0.0,0.0,0.0,0.0,0.0,0.0,0.0,0.0,0.0,0.0,0.0,0.0,0.0,0.0,0.0,2.6406,2.6406,2.6406,2.6406,2.6406,2.6426,2.666,2.7229,2.7584,2.8045,2.872,2.9286,2.9782,3.0215,3.0945,3.152,3.1841,3.22,3.2507,3.2771,3.28,3.28,3.28,3.28,3.28,3.28,3.28,3.28,3.28,3.28,3.28,3.28,3.28,3.28,3.28,0.0,0.0,3.28,3.28,3.28,3.28,3.28,3.28,3.28,3.28,3.28,3.28,0.0,0.0,0.0,0.0,0.0,0.0,0.0,0.0,0.0,0.0,0.0,0.0,0.0,0.0,0.0,0.0,0.0,0.0,0.0,0.0,0.0,0.0,0.0,0.0,0.0,0.0,0.0,0.0,0.0,0.0,1.6996,1.7206,1.7914,0.0,0.0,0.0,0.0,0.0,0.0,0.0,1.7769,0.0,0.0,0.0,0.0,0.0,0.0,0.0,0.0,2.151,2.0315,1.7883,2.2385,0.0,0.0,0.0,0.0,0.0,2.4575,2.5224,0.0,0.0,0.0,0.0,0.0,0.0,0.0,2.6406,2.6406,2.6406,2.6406,2.6406,2.6406,2.6406,2.66,2.6881,2.7255,2.7872,2.8419,2.8762,2.9558,3.0216,3.0495,3.1257,3.1856,3.2214,3.2537,3.2742,3.2785,3.28,3.28,3.28,3.28,3.28,3.28,3.28,3.28,3.28,3.28,3.28,3.28,3.28,3.28,3.28,0.0,3.28,3.28,3.28,3.28,3.28,3.28,3.28,3.28,3.28,3.28,3.28,0.0,0.0,0.0,0.0,0.0,0.0,0.0,0.0,0.0,0.0,0.0,0.0,0.0,0.0,0.0,0.0,0.0,0.0,0.0,0.0,0.0,0.0,0.0,0.0,0.0,0.0,0.0,0.0,0.0,1.4488,1.5862,1.5862,1.6985,1.9004,0.0,0.0,0.0,0.0,0.0,0.0,0.0,0.0,0.0,0.0,0.0,0.0,0.0,0.0,0.0,0.0,1.9387,1.726,2.13,0.0,0.0,0.0,0.0,0.0,2.4571,2.5291,0.0,0.0,0.0,0.0,0.0,0.0,0.0,0.0,2.6406,2.6406,2.6406,2.6406,2.644,2.66,2.6867,2.7161,2.7476,2.8157,2.8757,2.9132,2.9768,3.0398,3.0926,3.1479,3.1929,3.2266,3.261,3.28,3.28,3.28,3.28,3.28,3.28,3.28,3.28,3.28,3.28,3.28,3.28,3.28,3.28,3.28,3.28,3.28,0.0,3.28,3.28,3.28,3.28,3.28,3.28,3.28,3.28,3.28,3.28,3.28,0.0,0.0,0.0,0.0,0.0,0.0,0.0,0.0,0.0,0.0,0.0,0.0,0.0,0.0,0.0,0.0,0.0,0.0,0.0,0.0,0.0,0.0,0.0,0.0,0.0,0.0,0.0,1.2807,1.2807,1.3358,1.4422,1.5391,1.6807,0.0,0.0,0.0,0.0,0.0,0.0,0.0,0.0,0.0,0.0,0.0,0.0,0.0,0.0,0.0,0.0,0.0,0.0,0.0,0.0,0.0,0.0,0.0,2.3184,2.2164,2.455,2.5344,2.5598,0.0,0.0,0.0,0.0,0.0,0.0,0.0,0.0,2.6406,2.6406,2.6406,2.648,2.6754,2.7149,2.7525,2.7821,2.859,2.9265,2.9621,3.0132,3.0703,3.1345,3.1724,3.2068,3.239,3.2654,3.28,3.28,3.28,3.28,3.28,3.28,3.28,3.28,3.28,3.28,3.28,3.28,3.28,3.28,3.28,3.28,3.28,3.28,3.28,3.28,3.28,3.28,3.28,3.28,3.28,3.28,3.28,3.28,3.28,0.0,0.0,0.0,0.0,0.0,0.0,0.0,0.0,0.0,0.0,0.0,0.0,0.0,0.0,0.0,0.0,0.0,0.0,0.0,0.0,0.0,0.0,0.0,0.0,0.0,1.2807,1.2807,1.2807,1.2807,1.2857,1.3046,1.6904,1.8155,0.0,0.0,0.0,0.0,0.0,0.0,0.0,0.0,0.0,0.0,0.0,0.0,0.0,0.0,0.0,0.0,0.0,0.0,0.0,0.0,0.0,0.0,0.0,0.0,2.0778,2.4468,2.5504,0.0,0.0,0.0,0.0,0.0,0.0,0.0,2.6406,0.0,2.6406,2.6406,2.6406,2.648,2.6754,2.7392,2.7969,2.829,2.9355,3.0116,3.0158,3.078,3.136,3.1739,3.2083,3.2405,3.2727,3.2785,3.28,3.28,3.28,3.28,3.28,3.28,3.28,3.28,3.28,3.28,3.28,3.28,3.28,3.28,3.28,3.28,3.28,3.28,3.28,3.28,3.28,3.28,3.28,3.28,3.28,3.28,3.28,3.28,3.28,0.0,0.0,0.0,0.0,0.0,0.0,0.0,0.0,0.0,0.0,0.0,0.0,0.0,0.0,0.0,0.0,0.0,0.0,0.0,0.0,0.0,0.0,0.0,1.2751,1.2799,1.2807,1.2807,1.2807,1.2807,1.2807,1.2848,1.5294,0.0,0.0,0.0,0.0,0.0,0.0,0.0,0.0,0.0,0.0,0.0,0.0,0.0,0.0,0.0,0.0,0.0,0.0,0.0,0.0,0.0,0.0,0.0,0.0,0.0,2.19,2.4736,2.5499,2.5632,0.0,0.0,0.0,0.0,0.0,0.0,2.6406,2.6406,0.0,2.6406,2.6533,2.676,2.7054,2.7492,2.7973,2.8563,2.93,2.9872,3.0179,3.0851,3.1446,3.1768,3.209,3.2434,3.2771,3.28,3.28,3.28,3.28,3.28,3.28,3.28,3.28,3.28,3.28,3.28,3.28,3.28,3.28,3.28,3.28,3.28,3.28,3.28,3.28,3.28,3.28,3.28,3.28,3.28,3.28,3.28,3.28,3.28,3.28,0.0,0.0,0.0,0.0,0.0,0.0,0.0,0.0,0.0,0.0,0.0,0.0,0.0,0.0,0.0,0.0,0.0,0.0,0.0,0.0,0.0,0.0,0.0,1.2807,1.2807,1.2807,1.2807,1.2807,1.2807,1.2807,1.2832,0.0,0.0,0.0,0.0,0.0,0.0,0.0,0.0,0.0,0.0,0.0,0.0,0.0,0.0,0.0,0.0,0.0,0.0,0.0,0.0,0.0,0.0,0.0,0.0,0.0,0.0,0.0,2.4933,2.5585,2.5772,0.0,0.0,0.0,0.0,0.0,0.0,2.6406,2.6406,2.6406,2.6406,2.6627,2.6921,2.7255,2.7653,2.8177,2.8916,2.9432,2.9893,3.0332,3.1023,3.1549,3.1783,3.2214,3.2551,3.2771,3.28,3.28,3.28,3.28,3.28,3.28,3.28,3.28,3.28,3.28,3.28,3.28,3.28,3.28,3.28,3.28,3.28,3.28,3.28,3.28,3.28,3.28,3.28,3.28,3.28,3.28,3.28,3.28,3.28,3.28,0.0,0.0,0.0,0.0,0.0,0.0,0.0,0.0,0.0,0.0,0.0,0.0,0.0,0.0,0.0,0.0,0.0,0.0,0.0,0.0,0.0,0.0,0.0,1.2807,1.2807,1.2807,1.2807,1.2807,1.2807,1.2807,1.2832,0.0,0.0,0.0,0.0,0.0,0.0,0.0,0.0,0.0,0.0,1.4639,1.6115,0.0,0.0,0.0,0.0,0.0,0.0,0.0,0.0,0.0,0.0,0.0,0.0,0.0,2.2472,2.3119,2.4986,2.5751,2.6065,0.0,0.0,0.0,2.6406,0.0,2.6406,2.6406,2.6406,2.6406,2.6386,2.6607,2.69,2.7248,2.7913,2.8648,2.9397,2.9893,3.0346,3.0769,3.1381,3.1798,3.1798,3.2405,3.28,3.28,3.28,3.28,3.28,3.28,3.28,3.28,3.28,3.28,3.28,3.28,3.28,3.28,3.28,3.28,3.28,3.28,3.28,3.28,3.28,3.28,3.28,3.28,3.28,3.28,3.28,3.28,3.28,3.28,3.28,3.28,0.0,0.0,0.0,0.0,0.0,0.0,0.0,0.0,0.0,0.0,0.0,0.0,0.0,0.0,0.0,0.0,0.0,0.0,0.0,0.0,0.0,0.0,0.0,0.0,0.0,0.0,1.2807,1.2807,1.2807,1.2807,0.0,0.0,0.0,1.3523,0.0,0.0,0.0,0.0,0.0,0.0,0.0,1.6305,1.7602,0.0,0.0,0.0,0.0,0.0,0.0,0.0,0.0,0.0,0.0,0.0,0.0,0.0,2.4128,2.4546,2.5304,2.5751,2.6065,2.6339,2.6406,2.6406,0.0,2.6406,0.0,0.0,2.6406,2.6453,2.6653,2.6934,2.7248,2.7522,2.8204,2.8861,2.9425,2.9893,3.0439,3.1076,3.1534,3.1885,3.2141,3.2551,3.28,3.28,3.28,3.28,3.28,3.28,3.28,3.28,3.28,3.28,3.28,3.28,3.28,3.28,3.28,3.28,3.28,3.28,3.28,3.28,3.28,3.28,3.28,3.28,3.28,3.28,3.28,3.28,3.28,3.28,3.28,3.28,0.0,0.0,0.0,0.0,0.0,0.0,0.0,0.0,0.0,0.0,0.0,0.0,0.0,0.0,0.0,0.0,0.0,0.0,0.0,0.0,0.0,0.0,0.0,0.0,0.0,1.2807,1.2807,0.0,0.0,0.0,0.0,0.0,0.0,1.2996,0.0,0.0,0.0,0.0,0.0,1.685,1.6305,1.6662,1.7373,0.0,0.0,0.0,0.0,0.0,0.0,0.0,0.0,0.0,0.0,0.0,0.0,2.3528,2.4522,2.5317,2.5631,2.5925,2.6212,2.6366,2.6406,2.6406,2.6406,2.6406,2.6406,2.6406,2.6406,2.648,2.6754,2.721,2.7566,2.7676,2.8472,2.9181,2.946,2.9893,3.0482,3.1207,3.1593,3.1929,3.2273,3.2595,3.28,3.28,3.28,3.28,3.28,3.28,3.28,3.28,3.28,3.28,3.28,3.28,3.28,3.28,3.28,3.28,3.28,3.28,3.28,3.28,3.28,3.28,3.28,3.28,3.28,3.28,3.28,3.28,3.28,3.28,3.28,3.28,0.0,0.0,0.0,0.0,0.0,0.0,0.0,0.0,0.0,0.0,0.0,0.0,0.0,0.0,0.0,0.0,0.0,0.0,0.0,0.0,0.0,0.0,0.0,0.0,0.0,0.0,0.0,0.0,0.0,0.0,0.0,0.0,1.2929,1.3117,0.0,1.4215,0.0,1.5857,1.6721,1.7872,1.6609,1.6097,1.6097,1.6097,0.0,0.0,0.0,0.0,0.0,0.0,0.0,0.0,0.0,0.0,2.2476,2.2813,2.4144,2.5585,2.5917,2.6212,2.6406,2.6406,2.6406,2.6406,2.6406,2.6406,2.6406,2.6406,2.6413,2.652,2.6794,2.7412,2.7853,2.782,2.8757,2.9502,2.9565,2.9956,3.0524,3.1251,3.1607,3.1929,3.2317,3.2624,3.28,3.28,3.28,3.28,3.28,3.28,3.28,3.28,3.28,3.28,3.28,3.28,3.28,3.28,3.28,3.28,3.28,3.28,3.28,3.28,3.28,3.28,3.28,3.28,3.28,3.28,3.28,3.28,3.28,3.28,3.28,3.28,0.0,0.0,0.0,0.0,0.0,0.0,0.0,0.0,0.0,0.0,0.0,0.0,0.0,0.0,0.0,0.0,0.0,0.0,0.0,0.0,0.0,0.0,0.0,0.0,0.0,0.0,0.0,0.0,0.0,0.0,0.0,0.0,0.0,1.3159,0.0,1.4847,0.0,1.5492,1.5601,1.4937,1.577,1.6097,1.6097,1.6097,1.5903,0.0,0.0,0.0,0.0,0.0,0.0,0.0,2.0083,2.1775,2.4152,2.4496,2.5012,2.5585,2.5917,2.6212,2.6406,2.6406,2.6406,2.6406,2.6406,2.6406,2.6406,2.6406,2.6573,2.6814,2.7128,2.7497,2.7916,2.8464,2.9083,2.9628,2.9998,3.0415,3.0932,3.1601,3.1754,3.2053,3.2624,3.2756,3.28,3.28,3.28,3.28,3.28,3.28,3.28,3.28,3.28,3.28,3.28,3.28,3.28,0.0,3.28,3.28,3.28,3.28,3.28,3.28,3.28,3.28,3.28,3.28,3.28,3.28,3.28,3.28,3.28,3.28,3.28,3.28,0.0,0.0,0.0,0.0,0.0,0.0,0.0,0.0,0.0,0.0,0.0,0.0,0.0,0.0,0.0,0.0,0.0,0.0,0.0,0.0,0.0,0.0,0.0,0.0,0.0,0.0,0.0,0.0,0.0,0.0,0.0,0.0,0.0,1.3323,0.0,1.5103,1.3898,1.6226,1.6758,1.6062,1.6097,1.6538,1.7039,1.5611,1.5105,1.5202,1.5308,0.0,0.0,0.0,0.0,0.0,0.0,0.0,2.3899,2.4989,2.5491,2.5804,2.6099,2.6299,2.6406,2.6406,2.6406,2.6406,2.6406,2.6406,2.6446,2.6573,2.67,2.7021,2.7709,2.8118,2.8551,2.9042,2.9691,3.0144,3.02,3.054,3.1045,3.1724,3.1798,3.2046,3.2727,3.28,3.28,3.28,3.28,3.28,3.28,3.28,3.28,3.28,3.28,3.28,3.28,3.28,3.28,3.28,3.28,3.28,3.28,3.28,3.28,3.28,3.28,3.28,3.28,3.28,3.28,3.28,3.28,3.28,3.28,3.28,3.28,3.28,0.0,0.0,0.0,0.0,0.0,0.0,0.0,0.0,0.0,0.0,0.0,0.0,0.0,0.0,0.0,0.0,0.0,0.0,0.0,0.0,0.0,0.0,0.0,0.0,0.0,0.0,0.0,0.0,0.0,0.0,0.0,0.0,0.0,1.3494,0.0,0.0,1.443,1.667,1.7767,1.7872,1.6344,1.6681,1.7812,1.5319,1.4671,1.5214,0.0,0.0,0.0,0.0,0.0,0.0,0.0,0.0,2.3435,2.5096,2.5778,2.6065,2.6326,2.6406,2.6406,2.6406,2.6406,2.6406,2.6406,2.6446,2.6547,2.6841,2.6894,2.7169,2.8111,2.8703,2.9146,2.9439,3.0171,3.0603,3.0346,3.0603,3.1045,3.1724,3.1798,3.2046,3.2727,3.28,3.28,3.28,3.28,3.28,3.28,3.28,3.28,3.28,3.28,3.28,3.28,3.28,3.28,3.28,3.28,3.28,3.28,3.28,3.28,3.28,3.28,3.28,3.28,3.28,3.28,3.28,3.28,3.28,3.28,3.28,3.28,3.28,0.0,0.0,0.0,0.0,0.0,0.0,0.0,0.0,0.0,0.0,0.0,0.0,0.0,0.0,0.0,0.0,0.0,0.0,0.0,0.0,0.0,0.0,0.0,0.0,0.0,0.0,0.0,0.0,0.0,0.0,0.0,0.0,0.0,0.0,0.0,0.0,0.0,1.4866,1.5239,1.6274,1.4795,1.5248,1.6801,1.6388,1.7224,0.0,0.0,0.0,0.0,0.0,2.0335,0.0,0.0,0.0,2.4938,2.5712,2.5971,2.6065,2.6326,2.6406,2.6406,2.6406,2.6406,2.6406,2.6406,2.6587,2.6854,2.7168,2.7222,2.7349,2.7725,2.8369,2.8979,2.9439,2.9935,3.0373,3.0686,3.0769,3.1045,3.1724,3.1798,3.2046,3.2727,3.28,3.28,3.28,3.28,3.28,3.28,3.28,3.28,3.28,3.28,3.28,3.28,3.28,3.28,3.28,3.28,3.28,3.28,3.28,3.28,3.28,3.28,3.28,3.28,3.28,3.28,3.28,3.28,3.28,3.28,3.28,3.28,3.28,0.0,0.0,0.0,0.0,0.0,0.0,0.0,0.0,0.0,0.0,0.0,0.0,0.0,0.0,0.0,0.0,0.0,0.0,0.0,0.0,0.0,0.0,0.0,0.0,0.0,0.0,0.0,0.0,0.0,0.0,0.0,1.3473,1.3528,0.0,0.0,0.0,0.0,0.0,0.0,1.7261,1.5863,1.6842,1.8952,0.0,0.0,0.0,0.0,0.0,0.0,0.0,2.1625,2.3436,2.2869,0.0,0.0,0.0,2.6118,2.6246,2.6379,2.6406,2.6406,2.6406,2.6406,2.6426,2.66,2.6714,2.6927,2.7415,2.7735,2.7995,2.8272,2.9,2.9642,2.9851,3.0248,3.0603,3.0776,3.0796,3.1045,3.1724,3.1798,3.2046,3.2727,3.28,3.28,3.28,3.28,3.28,3.28,3.28,3.28,3.28,3.28,3.28,3.28,3.28,3.28,3.28,3.28,3.28,3.28,3.28,3.28,3.28,3.28,3.28,3.28,3.28,3.28,3.28,3.28,3.28,3.28,3.28,3.28,3.28,0.0,0.0,0.0,0.0,0.0,0.0,0.0,0.0,0.0,0.0,0.0,0.0,0.0,0.0,0.0,0.0,0.0,0.0,0.0,0.0,0.0,0.0,0.0,0.0,0.0,0.0,0.0,0.0,0.0,0.0,1.3609,1.4036,1.4043,0.0,1.618,0.0,0.0,0.0,0.0,0.0,0.0,1.8738,0.0,0.0,0.0,0.0,0.0,0.0,0.0,0.0,0.0,0.0,2.3497,2.4662,0.0,0.0,0.0,2.6406,2.6406,2.6406,2.6406,2.6406,2.644,2.656,2.6754,2.6914,2.7175,2.7602,2.8219,2.871,2.8783,2.9558,3.0158,3.0054,3.0457,3.0796,3.0796,3.0796,3.1045,3.1724,3.1798,3.2046,3.2727,3.28,3.28,3.28,3.28,3.28,3.28,3.28,3.28,3.28,3.28,3.28,3.28,3.28,3.28,3.28,3.28,3.28,3.28,3.28,3.28,3.28,3.28,3.28,3.28,3.28,3.28,3.28,3.28,3.28,3.28,3.28,3.28,3.28,0.0,0.0,0.0,0.0,0.0,0.0,0.0,0.0,0.0,0.0,0.0,0.0,0.0,0.0,0.0,0.0,0.0,0.0,0.0,0.0,0.0,0.0,0.0,0.0,0.0,0.0,0.0,0.0,0.0,0.0,1.3627,1.5229,1.5221,1.3888,1.4056,1.6415,2.0092,0.0,0.0,0.0,0.0,0.0,0.0,0.0,0.0,0.0,0.0,0.0,0.0,0.0,0.0,0.0,0.0,0.0,2.6051,0.0,0.0,0.0,2.6406,2.6406,2.6406,2.6406,2.66,2.678,2.6794,2.7234,2.7655,2.7696,2.8633,2.9321,2.8887,2.9558,3.0039,2.9607,3.0255,3.0796,3.0796,3.0796,3.1045,3.1724,3.1798,3.2046,3.2727,3.28,3.28,3.28,3.28,3.28,3.28,3.28,3.28,3.28,3.28,3.28,3.28,3.28,3.28,3.28,3.28,3.28,3.28,3.28,3.28,3.28,3.28,3.28,3.28,3.28,3.28,3.28,3.28,3.28,3.28,3.28,3.28,3.28,0.0,0.0,0.0,0.0,0.0,0.0,0.0,0.0,0.0,0.0,0.0,0.0,0.0,0.0,0.0,0.0,0.0,0.0,0.0,0.0,0.0,0.0,0.0,0.0,0.0,0.0,0.0,0.0,0.0,1.4649,1.3842,1.6394,1.7286,1.6828,1.7777,1.8023,1.784,1.9865,0.0,0.0,0.0,0.0,0.0,0.0,0.0,0.0,0.0,0.0,0.0,0.0,0.0,0.0,0.0,0.0,0.0,2.6379,2.6406,2.6406,2.6406,2.6406,2.6426,2.6613,2.6727,2.69,2.7295,2.7549,2.7749,2.7991,2.8825,2.9356,2.8887,2.9788,3.0457,3.0018,3.0436,3.0796,3.0796,3.0796,3.0972,3.1411,3.1666,3.1973,3.2434,3.2668,3.28,3.28,3.28,3.28,3.28,3.28,3.28,3.28,3.28,3.28,3.28,3.28,3.28,3.28,3.28,3.28,3.28,3.28,3.28,3.28,3.28,3.28,3.28,3.28,3.28,3.28,3.28,3.28,3.28,3.28,3.28,3.28,0.0,0.0,0.0,0.0,0.0,0.0,0.0,0.0,0.0,0.0,0.0,0.0,0.0,0.0,0.0,0.0,0.0,0.0,0.0,0.0,0.0,0.0,0.0,0.0,0.0,0.0,0.0,0.0,0.0,0.0,0.0,0.0,1.8397,1.8495,2.0587,2.0396,0.0,0.0,0.0,2.2164,0.0,0.0,2.4241,0.0,0.0,0.0,0.0,0.0,0.0,0.0,0.0,0.0,0.0,0.0,0.0,0.0,0.0,2.6406,2.6406,2.6466,2.6587,2.6754,2.6954,2.7215,2.7615,2.7797,2.7917,2.8138,2.8894,2.9398,2.9083,2.9983,3.0665,3.0263,3.054,3.0796,3.0796,3.0796,3.0928,3.1271,3.1593,3.1929,3.2273,3.2595,3.28,3.28,3.28,3.28,3.28,3.28,3.28,3.28,3.28,3.28,3.28,3.28,3.28,3.28,3.28,3.28,3.28,3.28,3.28,3.28,3.28,3.28,3.28,3.28,3.28,3.28,3.28,3.28,3.28,3.28,3.28,3.28,0.0,0.0,0.0,0.0,0.0,0.0,0.0,0.0,0.0,0.0,0.0,0.0,0.0,0.0,0.0,0.0,0.0,0.0,0.0,0.0,0.0,0.0,0.0,0.0,0.0,0.0,0.0,0.0,0.0,0.0,0.0,0.0,1.8513,0.0,2.186,2.3305,2.3231,0.0,2.2367,2.4209,0.0,2.4364,2.4599,0.0,0.0,0.0,2.4983,2.5122,0.0,2.5797,0.0,0.0,0.0,0.0,0.0,0.0,0.0,0.0,0.0,0.0,0.0,2.682,2.7281,2.7696,2.7709,2.7978,2.82,2.82,2.8894,2.9502,2.9502,3.0213,3.0686,3.0283,3.054,3.0796,3.0796,3.0796,3.0913,3.1256,3.1593,3.1929,3.2258,3.2595,3.28,3.28,3.28,3.28,3.28,3.28,3.28,3.28,3.28,3.28,3.28,3.28,3.28,3.28,3.28,3.28,3.28,3.28,3.28,3.28,3.28,3.28,3.28,3.28,3.28,3.28,3.28,3.28,3.28,3.28,3.28,3.28,0.0,0.0,0.0,0.0,0.0,0.0,0.0,0.0,0.0,0.0,0.0,0.0,0.0,0.0,0.0,0.0,0.0,0.0,0.0,0.0,0.0,0.0,0.0,0.0,0.0,0.0,0.0,0.0,0.0,0.0,0.0,0.0,0.0,0.0,2.2417,2.355,2.3919,2.351,0.0,0.0,2.4417,2.4532,0.0,0.0,0.0,0.0,0.0,2.555,2.577,0.0,2.6131,2.6299,0.0,0.0,0.0,0.0,0.0,0.0,2.664,0.0,0.0,0.0,0.0,0.0,2.8018,2.8125,2.82,2.82,2.8894,2.9502,2.9502,3.0213,3.0769,3.0665,3.0728,3.0796,3.0796,3.0796,3.084,3.0928,3.1461,3.1827,3.1929,3.2463,3.28,0.0,3.28,3.28,3.28,3.28,3.28,3.28,3.28,3.28,3.28,3.28,3.28,3.28,3.28,3.28,3.28,3.28,3.28,3.28,3.28,3.28,3.28,3.28,3.28,3.28,3.28,3.28,3.28,3.28,3.28,3.28,0.0,0.0,0.0,0.0,0.0,0.0,0.0,0.0,0.0,0.0,0.0,0.0,0.0,0.0,0.0,0.0,0.0,0.0,0.0,0.0,0.0,0.0,0.0,0.0,0.0,0.0,0.0,0.0,0.0,0.0,0.0,0.0,0.0,0.0,0.0,0.0,0.0,0.0,0.0,0.0,2.4532,0.0,0.0,2.5029,2.5176,0.0,0.0,0.0,2.6011,2.6131,2.6272,0.0,0.0,0.0,0.0,0.0,0.0,0.0,0.0,0.0,0.0,0.0,0.0,0.0,2.816,2.82,2.82,2.82,2.8894,2.9502,2.9502,3.0213,3.0796,3.0796,3.0796,3.0796,3.0796,3.0796,3.0855,3.0986,3.1476,3.1856,3.2009,3.2493,3.28,3.28,3.28,3.28,3.28,3.28,3.28,3.28,3.28,3.28,3.28,3.28,3.28,3.28,3.28,3.28,3.28,3.28,3.28,3.28,3.28,3.28,3.28,3.28,3.28,3.28,3.28,3.28,3.28,3.28,3.28,3.28,0.0,0.0,0.0,0.0,0.0,0.0,0.0,0.0,0.0,0.0,0.0,0.0,0.0,0.0,0.0,0.0,0.0,0.0,0.0,0.0,0.0,0.0,0.0,0.0,0.0,0.0,0.0,0.0,0.0,0.0,0.0,0.0,0.0,0.0,0.0,0.0,0.0,0.0,0.0,2.4671,2.4671,2.4818,0.0,0.0,2.5363,2.5598,2.5931,2.6038,2.6078,2.6326,2.6406,0.0,0.0,0.0,0.0,0.0,2.6613,0.0,0.0,0.0,0.0,0.0,0.0,0.0,2.82,2.82,2.82,2.82,2.8852,2.9418,2.9418,3.013,3.0713,3.0713,3.0755,3.0796,3.0796,3.084,3.0972,3.125,3.1637,3.1959,3.2273,3.2595,3.28,3.28,3.28,3.28,3.28,3.28,3.28,3.28,3.28,3.28,3.28,3.28,3.28,3.28,3.28,3.28,3.28,3.28,3.28,3.28,3.28,3.28,3.28,3.28,3.28,3.28,3.28,3.28,3.28,3.28,3.28,3.28,0.0,0.0,0.0,0.0,0.0,0.0,0.0,0.0,0.0,0.0,0.0,0.0,0.0,0.0,0.0,0.0,0.0,0.0,0.0,0.0,0.0,0.0,0.0,0.0,0.0,0.0,0.0,0.0,0.0,0.0,0.0,0.0,0.0,0.0,0.0,0.0,0.0,0.0,0.0,2.4997,2.4997,0.0,2.5149,2.565,2.5864,2.5944,2.6219,2.6326,2.6339,2.6373,2.6406,2.6406,0.0,0.0,0.0,2.6647,0.0,0.0,0.0,0.0,0.0,0.0,0.0,0.0,2.82,2.82,2.82,2.82,2.8592,2.895,2.895,2.9684,3.0325,3.0325,3.0582,3.0796,3.0796,3.103,3.1242,3.1279,3.1827,3.2244,3.2302,3.2595,3.28,3.28,3.28,3.28,3.28,3.28,3.28,3.28,3.28,3.28,3.28,3.28,3.28,3.28,3.28,3.28,3.28,3.28,3.28,3.28,3.28,3.28,3.28,3.28,3.28,3.28,3.28,3.28,3.28,3.28,3.28,3.28,0.0,0.0,0.0,0.0,0.0,0.0,0.0,0.0,0.0,0.0,0.0,0.0,0.0,0.0,0.0,0.0,0.0,0.0,0.0,0.0,0.0,0.0,0.0,0.0,0.0,0.0,0.0,0.0,0.0,0.0,0.0,0.0,0.0,0.0,0.0,0.0,0.0,0.0,2.5176,2.5291,2.5291,0.0,2.5583,2.5877,2.6091,2.6205,2.6353,2.6406,2.6406,2.6406,2.6406,0.0,0.0,2.6493,2.664,0.0,2.7007,2.7301,0.0,0.0,0.0,2.8173,0.0,0.0,0.0,2.82,2.82,2.82,2.8529,2.8803,2.8803,2.9495,3.0057,3.0057,3.0415,3.0767,3.0926,3.1146,3.1352,3.1534,3.1988,3.2375,3.2537,3.2698,3.28,3.28,3.28,3.28,3.28,3.28,3.28,3.28,3.28,3.28,3.28,3.28,3.28,3.28,3.28,3.28,3.28,3.28,3.28,3.28,3.28,3.28,3.28,3.28,3.28,3.28,3.28,3.28,3.28,3.28,3.28,3.28,0.0,0.0,0.0,0.0,0.0,0.0,0.0,0.0,0.0,0.0,0.0,0.0,0.0,0.0,0.0,0.0,0.0,0.0,0.0,0.0,0.0,0.0,0.0,1.6952,0.0,0.0,0.0,0.0,0.0,0.0,0.0,0.0,0.0,0.0,0.0,0.0,0.0,0.0,0.0,2.5598,0.0,2.5798,2.5998,2.6051,2.6205,2.6406,2.6406,2.6406,2.6406,2.6406,2.6406,2.6419,2.6453,2.664,0.0,0.0,0.0,0.0,0.0,0.0,0.0,0.0,0.0,2.82,0.0,0.0,0.0,2.82,2.8466,2.869,2.8758,2.9309,2.9745,2.9689,3.017,3.0631,3.0759,3.1037,3.1379,3.1835,3.22,3.2507,3.2771,3.28,3.28,3.28,3.28,3.28,3.28,3.28,3.28,3.28,3.28,3.28,3.28,3.28,3.28,3.28,3.28,3.28,3.28,3.28,3.28,3.28,3.28,3.28,3.28,3.28,3.28,3.28,3.28,3.28,3.28,3.28,3.28,3.28,0.0,0.0,0.0,0.0,0.0,0.0,0.0,0.0,0.0,0.0,0.0,0.0,0.0,0.0,0.0,0.0,0.0,0.0,1.7802,0.0,0.0,0.0,0.0,0.0,1.8968,0.0,0.0,0.0,0.0,0.0,0.0,0.0,0.0,0.0,2.489,0.0,0.0,0.0,2.5917,0.0,2.6205,2.6179,0.0,2.6259,2.6379,2.6406,2.6406,2.6406,2.6406,0.0,2.6406,2.6426,0.0,2.678,2.69,2.7442,0.0,0.0,0.0,0.0,0.0,0.0,2.82,0.0,0.0,0.0,2.82,2.82,0.0,2.8336,2.8596,0.0,0.0,2.8983,2.9765,3.0253,2.9748,3.0416,3.1286,3.2135,3.2537,3.2756,3.2785,3.28,3.28,3.28,3.28,3.28,3.28,3.28,3.28,3.28,3.28,3.28,3.28,3.28,3.28,3.28,3.28,3.28,3.28,3.28,3.28,3.28,3.28,3.28,3.28,3.28,3.28,3.28,3.28,3.28,3.28,3.28,3.28,3.28,0.0,0.0,0.0,0.0,0.0,0.0,0.0,0.0,0.0,0.0,0.0,0.0,0.0,0.0,0.0,0.0,0.0,1.7025,0.0,0.0,0.0,0.0,0.0,0.0,0.0,0.0,0.0,0.0,2.372,0.0,0.0,0.0,0.0,0.0,2.5197,0.0,2.565,0.0,2.6091,0.0,0.0,0.0,0.0,2.6366,2.6406,2.6406,2.6406,2.6406,2.6406,0.0,2.6507,0.0,0.0,0.0,0.0,0.0,0.0,0.0,0.0,0.0,0.0,0.0,0.0,0.0,2.82,0.0,2.82,0.0,0.0,0.0,0.0,0.0,0.0,0.0,2.9779,3.0207,3.016,3.0588,3.1043,3.1437,3.1986,3.2454,3.2763,3.28,3.28,3.28,3.28,3.28,3.28,3.28,3.28,3.28,3.28,3.28,3.28,3.28,3.28,3.28,3.28,3.28,3.28,3.28,3.28,3.28,3.28,3.28,3.28,3.28,3.28,3.28,3.28,3.28,3.28,3.28,3.28,3.28,0.0,0.0,0.0,0.0,0.0,0.0,0.0,0.0,0.0,0.0,0.0,0.0,1.6075,1.5328,0.0,0.0,1.846,1.8573,0.0,0.0,2.0573,0.0,0.0,0.0,0.0,0.0,0.0,0.0,0.0,0.0,0.0,0.0,0.0,0.0,0.0,2.5778,2.5998,0.0,2.6219,2.6406,2.6406,2.6406,2.6406,2.6406,2.6406,2.6406,2.6406,2.644,2.6507,2.6507,2.6707,0.0,2.7021,0.0,0.0,0.0,0.0,0.0,2.82,0.0,0.0,0.0,0.0,0.0,0.0,0.0,0.0,0.0,0.0,0.0,0.0,0.0,0.0,0.0,0.0,3.0071,3.0148,3.0439,3.0729,3.0971,3.1491,3.1966,3.2343,3.2387,3.2431,3.2564,3.2564,3.2631,3.2785,3.28,3.28,3.28,3.28,3.28,3.28,3.28,3.28,3.28,3.28,3.28,3.28,3.28,3.28,3.28,3.28,3.28,3.28,3.28,3.28,3.28,3.28,3.28,3.28,3.28,3.28,3.28,0.0,1.3732,0.0,0.0,0.0,0.0,0.0,0.0,0.0,0.0,0.0,0.0,0.0,0.0,0.0,0.0,0.0,2.1988,2.3541,0.0,2.3763,0.0,0.0,2.4224,0.0,0.0,0.0,0.0,0.0,0.0,0.0,0.0,0.0,0.0,0.0,2.5984,2.6011,2.6272,2.6386,2.6406,2.6406,2.6406,2.6406,0.0,2.6406,2.6406,2.6406,0.0,0.0,2.6794,2.7001,0.0,0.0,0.0,0.0,0.0,0.0,0.0,0.0,0.0,0.0,2.82,0.0,0.0,0.0,0.0,2.8272,0.0,0.0,0.0,0.0,0.0,0.0,0.0,0.0,0.0,0.0,2.9575,3.028,3.1182,3.1315,3.1315,3.1337,3.1337,3.1552,3.1988,3.2032,3.2254,3.2763,3.28,3.28,3.28,3.28,3.28,3.28,3.28,3.28,3.28,3.28,3.28,3.28,3.28,3.28,3.28,3.28,3.28,3.28,3.28,3.28,3.28,3.28,3.28,3.28,3.28,3.28,3.28,0.0,0.0,0.0,0.0,0.0,0.0,0.0,1.4101,0.0,0.0,1.5931,0.0,0.0,1.9282,2.0093,0.0,0.0,2.3215,2.4768,2.5019,0.0,0.0,0.0,2.491,0.0,0.0,0.0,0.0,0.0,0.0,0.0,0.0,0.0,0.0,0.0,2.6259,0.0,0.0,0.0,0.0,0.0,2.6507,2.6653,0.0,0.0,2.6413,2.66,2.6714,0.0,2.7075,2.7308,2.7583,2.7669,2.785,2.8058,2.8173,2.82,0.0,0.0,0.0,2.8529,2.8276,0.0,0.0,0.0,0.0,0.0,0.0,0.0,0.0,0.0,0.0,0.0,0.0,0.0,0.0,0.0,2.9771,3.0025,3.0339,3.0638,3.0973,3.1271,3.1293,3.1485,3.1966,3.1988,3.2232,3.2763,3.28,3.28,3.28,3.28,3.28,3.28,3.28,3.28,3.28,3.28,3.28,3.28,3.28,3.28,3.28,3.28,3.28,3.28,3.28,3.28,3.28,3.28,3.28,3.28,3.28,3.28,3.28,1.5622,0.0,0.0,0.0,0.0,0.0,0.0,0.0,0.0,0.0,1.7923,0.0,2.1577,0.0,2.2134,0.0,2.4354,2.4479,2.5488,2.5706,0.0,2.5972,2.5728,0.0,0.0,0.0,0.0,0.0,0.0,2.5384,0.0,0.0,0.0,0.0,0.0,2.6406,2.6406,2.6406,2.6406,0.0,0.0,2.6886,0.0,0.0,2.7087,2.6994,0.0,2.7506,2.7649,2.7873,2.8008,2.8085,2.8085,2.8136,2.82,2.82,2.82,2.82,2.82,2.8403,0.0,2.8263,2.8403,0.0,2.8389,0.0,0.0,0.0,0.0,0.0,0.0,0.0,0.0,0.0,0.0,0.0,0.0,2.9891,2.9891,2.9891,3.016,3.0526,3.1017,3.0906,3.1062,3.1685,3.1752,3.1966,3.2476,3.2712,3.28,3.28,3.28,3.28,3.28,3.28,3.28,3.28,3.28,3.28,3.28,3.28,3.28,3.28,3.28,3.28,3.28,3.28,3.28,3.28,3.28,3.28,3.28,3.28,3.28,3.28,1.8774,0.0,0.0,0.0,1.4327,0.0,0.0,0.0,1.7635,0.0,1.994,2.0876,2.2495,2.3198,2.4159,2.5708,2.5869,2.5869,2.5869,2.5897,0.0,0.0,2.6364,2.6505,2.6818,0.0,0.0,0.0,0.0,0.0,0.0,0.0,0.0,0.0,2.6406,0.0,2.6426,2.6406,2.6419,2.6519,2.724,2.7557,2.7666,2.8372,2.8396,2.8064,2.8477,2.8843,2.9095,2.9109,2.8994,2.8824,2.8824,2.8571,2.8263,2.8263,2.8263,2.8263,2.8263,2.8284,2.8297,2.8263,0.0,0.0,0.0,0.0,2.9531,0.0,0.0,0.0,0.0,0.0,0.0,0.0,0.0,0.0,0.0,2.9891,2.9891,2.9891,2.9891,3.0093,3.0526,3.0182,3.0294,3.1204,3.1307,3.1507,3.1966,3.2476,3.2763,3.28,3.28,3.28,3.28,3.28,3.28,3.28,3.28,3.28,3.28,3.28,3.28,3.28,3.28,3.28,3.28,3.28,3.28,3.28,3.28,3.28,3.28,3.28,3.28,3.28,1.9163,1.9174,1.9326,0.0,1.786,1.6938,0.0,0.0,0.0,0.0,2.2282,2.3162,2.4782,2.5359,2.5804,2.6202,2.6743,0.0,0.0,0.0,0.0,2.7479,2.7253,2.7164,2.725,2.649,0.0,2.6471,0.0,0.0,2.6299,0.0,0.0,0.0,0.0,2.6564,2.6834,2.6525,2.6718,2.7254,2.7762,2.8234,0.0,0.0,2.9494,2.9541,2.9115,2.9025,2.9123,2.9327,2.9363,2.9314,2.9314,2.9251,2.9167,2.9167,2.9167,2.9167,2.9167,2.9432,2.96,2.9251,2.9432,2.9607,0.0,0.0,0.0,0.0,0.0,0.0,0.0,0.0,0.0,0.0,0.0,0.0,0.0,0.0,0.0,2.9891,2.9891,2.9958,3.007,3.0294,3.0526,3.075,3.1093,3.1507,3.1966,0.0,3.2387,3.2785,3.28,3.28,3.28,3.28,3.28,3.28,3.28,3.28,3.28,3.28,3.28,3.28,3.28,3.28,3.28,3.28,3.28,3.28,3.28,3.28,3.28,3.28,3.28,3.28,2.1426,2.0969,0.0,2.2846,0.0,0.0,2.1736,2.1582,0.0,2.4061,2.469,0.0,2.6378,2.6819,2.7074,2.7074,2.7453,0.0,2.7667,0.0,0.0,2.8116,2.794,2.7903,2.8052,2.7399,0.0,2.7337,0.0,0.0,2.6663,0.0,0.0,0.0,0.0,2.7126,2.7481,2.74,2.7591,2.8031,2.8581,2.9031,0.0,2.9974,3.0298,3.0422,3.0006,2.9831,2.988,3.001,2.9942,2.9809,2.9809,2.9684,2.9502,2.9502,2.9502,2.9502,2.9502,2.9691,2.983,2.9565,2.9705,2.9901,2.9895,3.0303,3.0792,0.0,0.0,0.0,0.0,0.0,0.0,0.0,0.0,0.0,0.0,0.0,0.0,2.9891,2.9891,2.9891,2.9891,3.0137,3.037,3.0571,3.0839,3.1196,0.0,0.0,3.2254,3.2778,3.28,3.28,3.28,3.28,3.28,3.28,3.28,3.28,3.28,3.28,3.28,3.28,3.28,3.28,3.28,3.28,3.28,3.28,3.28,3.28,3.28,3.28,3.28,3.28,2.4209,2.3378,0.0,0.0,0.0,0.0,0.0,2.425,0.0,2.6164,0.0,2.7137,2.7429,2.7723,2.7892,2.7892,0.0,2.7984,2.7984,2.8014,2.816,2.8437,2.8471,2.8603,2.8886,2.851,2.8309,0.0,0.0,0.0,0.0,0.0,0.0,0.0,0.0,2.7852,2.8199,2.8587,2.8748,2.8818,2.951,2.9803,2.9916,3.0549,3.0796,3.0796,3.0796,3.0796,3.0796,3.0796,3.0561,3.0283,3.0283,2.9998,2.967,2.967,2.967,2.967,2.967,2.967,2.9684,2.9726,2.9726,2.9881,3.0437,3.0923,3.1425,3.1927,3.207,3.2232,0.0,0.0,0.0,0.0,0.0,0.0,0.0,0.0,0.0,0.0,0.0,0.0,2.9891,2.9958,3.0137,3.0482,3.0571,0.0,0.0,0.0,3.2188,3.2778,3.28,3.28,3.28,0.0,3.28,3.28,3.28,3.28,3.28,3.28,3.28,3.28,3.28,3.28,3.28,3.28,3.28,3.28,3.28,3.28,3.28,3.28,3.28,3.28,2.4519,2.4839,0.0,0.0,0.0,2.631,2.6909,2.6533,2.6439,2.7121,2.7504,2.7759,2.7817,2.7855,2.7892,2.7892,2.816,0.0,0.0,0.0,0.0,2.8812,2.8812,2.8842,2.8905,2.851,2.8309,0.0,0.0,0.0,0.0,0.0,0.0,0.0,2.7986,2.8193,2.8568,2.9333,0.0,2.9559,3.0068,3.0407,3.0619,3.074,3.0796,3.0796,3.0796,3.0796,3.0796,3.0796,3.0734,3.0686,3.0686,3.0644,3.0567,3.0567,3.0567,3.0567,3.0567,3.0567,3.064,3.0922,3.0974,3.1075,3.1474,3.183,3.2128,3.223,3.2478,3.2542,3.221,0.0,0.0,0.0,0.0,0.0,0.0,0.0,0.0,0.0,0.0,2.9891,0.0,3.0249,3.0361,3.0048,3.037,3.0794,0.0,0.0,3.184,0.0,3.28,0.0,0.0,0.0,3.28,3.28,3.28,3.28,3.28,3.28,3.28,3.28,3.28,3.28,3.28,3.28,3.28,3.28,3.28,3.28,3.28,3.28,3.28,3.28,2.5706,0.0,0.0,0.0,0.0,0.0,0.0,2.7649,2.7738,2.7898,2.8065,2.8233,2.8398,2.8413,2.8413,2.8413,2.8559,2.8647,2.8647,2.8812,2.8905,2.8905,2.8905,2.8905,2.8905,2.8725,2.8607,2.8607,0.0,0.0,0.0,0.0,0.0,2.8483,2.9051,2.9381,0.0,0.0,0.0,3.0288,3.0515,3.0685,3.0796,3.0796,3.0796,3.0796,3.0796,3.0796,3.0796,3.0796,3.0796,3.0796,3.0796,3.0796,3.0796,3.0796,3.0796,3.0796,3.0796,3.0928,3.1089,3.1271,3.1432,3.1651,3.1973,3.2163,3.2361,3.2522,3.2683,3.2631,3.2099,3.1832,0.0,0.0,0.0,0.0,0.0,0.0,0.0,0.0,0.0,0.0,0.0,3.0093,3.0137,2.9913,3.0115,3.0549,3.1248,0.0,3.1752,0.0,0.0,0.0,0.0,0.0,0.0,3.28,3.28,3.28,3.28,3.28,3.28,3.28,3.28,3.28,3.28,3.28,3.28,3.28,3.28,3.28,3.28,3.28,3.28,3.28,2.6757,2.6913,0.0,0.0,2.7392,0.0,2.7995,2.8303,2.8515,2.8515,2.8515,2.8603,2.8871,2.8905,2.8905,2.8905,2.8905,2.8905,2.8905,2.8905,2.8905,2.8905,2.8905,2.8905,2.8905,2.8905,2.8905,0.0,0.0,0.0,0.0,0.0,0.0,0.0,0.0,0.0,0.0,0.0,3.0796,3.0796,3.0796,3.0796,3.0796,3.0796,3.0796,3.0796,3.0796,3.0796,3.0811,3.0884,3.0855,3.0796,3.0796,3.0796,3.0796,3.0796,3.0855,3.0913,3.0913,3.1147,3.1411,3.1505,3.171,3.1988,3.2332,3.2405,3.2478,3.2742,3.28,3.2631,3.2099,3.2077,0.0,0.0,0.0,0.0,0.0,0.0,0.0,0.0,0.0,0.0,2.9891,0.0,2.9891,2.9891,2.9891,3.0303,3.1248,3.1293,3.1752,0.0,0.0,3.28,3.28,0.0,3.28,3.28,3.28,3.28,3.28,3.28,3.28,3.28,3.28,3.28,3.28,3.28,3.28,3.28,3.28,3.28,3.28,3.28,3.28,3.28,0.0,0.0,0.0,0.0,0.0,0.0,2.8783,2.8822,2.8842,2.8842,2.8842,2.8876,2.8905,2.8905,2.8905,2.8905,2.8905,2.8905,2.8905,2.8905,2.8905,2.8905,2.8905,2.8905,2.8905,2.8905,2.8905,0.0,0.0,0.0,0.0,0.0,0.0,0.0,0.0,0.0,0.0,3.0796,3.0796,3.0796,3.0796,3.0796,3.0796,3.0796,3.0796,3.0796,3.0796,3.0796,3.0855,3.1147,3.1045,3.0796,3.0796,3.0796,3.0796,3.0796,3.1016,3.125,3.125,3.1505,3.1827,3.2141,3.2244,3.2346,3.2668,3.2742,3.2756,3.2785,3.28,3.2631,3.2099,3.2387,3.2409,0.0,0.0,0.0,0.0,0.0,2.9891,2.9891,0.0,0.0,2.9891,2.9891,2.9891,2.9891,2.9891,3.0303,3.1248,3.1293,3.1752,3.2763,0.0,3.28,3.28,3.28,3.28,3.28,3.28,3.28,3.28,3.28,3.28,3.28,3.28,3.28,3.28,3.28,3.28,3.28,3.28,3.28,3.28,3.28,3.28,3.28,0.0,0.0,0.0,0.0,0.0,0.0,0.0,2.8905,2.8905,2.8905,2.8905,2.8905,2.8905,2.8905,2.8905,2.8905,2.8905,2.8905,2.8905,2.8905,2.8905,2.8905,2.8905,2.8905,2.8905,2.8905,2.8905,0.0,0.0,0.0,0.0,0.0,0.0,0.0,0.0,3.0796,3.0796,3.0796,3.0796,3.0796,3.0796,3.0796,3.0796,3.0796,3.0796,3.0826,3.103,3.1089,3.1147,3.149,3.1388,3.1154,3.1344,3.1402,3.1402,3.1402,3.1505,3.1607,3.1607,3.1841,3.212,3.2273,3.2449,3.2639,3.2771,3.28,3.28,3.28,3.28,3.2719,3.252,3.2653,3.2564,0.0,0.0,0.0,0.0,0.0,0.0,2.9891,0.0,2.9891,2.9891,2.9891,2.9891,0.0,2.9891,3.0303,3.1248,3.1293,0.0,3.2763,0.0,3.28,3.28,3.28,3.28,3.28,3.28,3.28,3.28,3.28,3.28,3.28,3.28,3.28,3.28,3.28,3.28,3.28,3.28,3.28,3.28,3.28,3.28,3.28,2.8842,0.0,2.8905,0.0,2.8905,2.8905,2.8905,2.8905,2.8905,2.8905,2.8905,2.8905,2.8905,2.8905,2.8905,2.8905,2.8905,2.8905,2.8905,2.8905,2.8905,2.8905,2.8905,0.0,2.8905,2.9008,2.9052,2.9052,2.9374,0.0,0.0,0.0,0.0,0.0,3.0796,3.0796,3.0796,3.0796,3.0796,3.0796,3.0796,3.0796,3.0811,3.0913,3.0943,3.0986,3.1329,3.1446,3.1505,3.1827,3.1783,3.1622,3.1754,3.1798,3.1798,3.1798,3.1871,3.1944,3.1944,3.22,3.2449,3.2449,3.2624,3.28,3.28,3.28,3.28,3.28,3.28,3.28,3.28,3.28,3.2609,3.2077,0.0,0.0,0.0,0.0,0.0,0.0,2.9981,2.9891,2.9891,2.9891,2.9891,0.0,0.0,0.0,0.0,0.0,0.0,0.0,0.0,0.0,0.0,3.28,3.28,3.28,3.28,3.28,3.28,3.28,3.28,3.28,3.28,3.28,3.28,3.28,3.28,3.28,3.28,3.28,3.28,3.28,3.28,3.28,2.8905,2.8905,2.8905,2.8905,2.8905,2.8905,2.8905,2.8905,2.8905,2.8905,2.8905,2.8905,2.8905,2.8905,2.8905,2.8905,2.8905,2.8905,2.8905,2.8905,2.8905,0.0,0.0,2.8905,2.8905,2.9227,2.9388,2.9388,0.0,0.0,2.9906,0.0,3.0545,3.0796,3.0796,3.0796,3.0796,3.0796,3.0796,3.0796,3.0796,3.0796,3.084,3.1162,3.1279,3.1344,3.1681,3.1798,3.1841,3.2185,3.2302,3.2244,3.19,3.1798,3.1798,3.1798,3.2017,3.228,3.228,3.2537,3.2785,3.2785,3.2785,3.28,3.28,3.28,3.28,3.28,3.28,3.28,3.28,3.28,3.2609,3.2077,0.0,0.0,0.0,0.0,0.0,3.0526,3.0182,2.9891,2.9891,2.9891,2.9891,0.0,0.0,0.0,0.0,0.0,0.0,3.2763,3.28,0.0,3.28,3.28,3.28,3.28,3.28,3.28,3.28,3.28,3.28,3.28,3.28,3.28,3.28,3.28,3.28,3.28,3.28,3.28,3.28,3.28,3.28,3.28,2.8905,2.8905,2.8905,2.8905,2.8905,2.8905,2.8905,2.8905,2.8905,2.8905,2.911,2.9242,2.9242,2.9037,2.8993,0.0,2.9242,2.933,0.0,2.9579,2.9579,2.9579,2.9579,2.9579,2.9579,2.9701,2.9745,2.9745,0.0,0.0,0.0,3.0627,3.0729,3.0796,3.0796,3.0796,3.0796,3.0796,3.0796,3.0826,3.1045,3.1133,3.1177,3.152,3.1637,3.1681,3.2017,3.2134,3.22,3.2537,3.2639,3.2624,3.2522,3.2478,3.2478,3.2478,3.2551,3.2639,3.2639,3.2712,3.28,3.28,3.28,3.28,3.28,3.28,3.28,3.28,3.28,3.28,3.28,3.28,3.2741,3.2564,3.184,0.0,0.0,0.0,0.0,3.0115,2.9981,2.9891,2.9891,2.9891,0.0,0.0,0.0,0.0,0.0,0.0,0.0,0.0,3.28,0.0,3.28,3.28,3.28,3.28,3.28,3.28,3.28,3.28,3.28,3.28,3.28,3.28,3.28,3.28,3.28,3.28,3.28,3.28,3.28,3.28,3.28,3.28,2.8905,2.8905,2.8905,2.8905,2.8905,2.8949,2.9066,2.9095,2.9139,2.9257,2.9447,2.9599,2.9599,2.9403,0.0,2.9564,2.9599,2.9687,2.9892,2.9906,2.9906,2.9906,2.9906,2.9906,2.9906,0.0,0.0,3.0082,3.0399,3.0627,3.0796,3.0796,3.0796,3.0796,3.0796,3.0796,3.0796,3.0796,3.0869,3.1001,3.1227,3.1388,3.1534,3.1856,3.1973,3.2017,3.2375,3.2493,3.2522,3.2727,3.28,3.28,3.28,3.28,3.28,3.28,3.28,3.28,3.28,3.28,3.28,3.28,3.28,3.28,3.28,3.28,3.28,3.28,3.28,3.28,3.28,3.28,3.2719,3.252,3.1966,3.1507,3.1315,0.0,0.0,0.0,0.0,0.0,0.0,2.9891,2.9891,0.0,0.0,0.0,0.0,0.0,0.0,3.2778,3.28,0.0,3.28,3.28,3.28,3.28,3.28,3.28,3.28,3.28,3.28,3.28,3.28,3.28,3.28,3.28,3.28,3.28,3.28,3.28,3.28,3.28,3.28,3.28,2.8905,2.892,2.8915,0.0,2.8944,0.0,2.9388,2.9432,2.9555,2.9862,2.9921,2.9936,2.9936,2.995,2.9945,2.9945,0.0,0.0,0.0,2.9945,2.9945,2.9945,2.9945,2.9945,2.9945,3.0273,3.0419,3.0419,3.0671,3.0796,3.0796,3.0796,3.0796,3.0796,3.0796,3.0811,3.084,3.084,3.103,3.1344,3.1373,3.1563,3.1871,3.2214,3.2332,3.2375,3.2683,3.28,3.28,3.28,3.28,3.28,3.28,3.28,3.28,3.28,3.28,3.28,3.28,3.28,3.28,3.28,3.28,3.28,3.28,3.28,3.28,3.28,3.28,3.28,3.28,3.28,3.2631,3.2143,3.201,3.1855,3.1418,0.0,0.0,0.0,0.0,0.0,0.0,2.9913,2.9913,0.0,0.0,0.0,0.0,0.0,3.1796,3.2763,3.28,3.28,3.28,3.28,3.28,3.28,3.28,3.28,3.28,3.28,3.28,3.28,3.28,3.28,3.28,3.28,3.28,3.28,3.28,3.28,3.28,3.28,3.28,3.28,0.0,0.0,2.9286,2.9286,2.9491,2.9681,2.9774,2.9789,2.9818,2.9892,3.0126,3.0273,3.0273,3.0472,3.0598,3.0598,3.0399,3.0355,3.0583,3.0598,3.0598,3.0598,3.0598,3.0598,3.0598,3.065,3.0715,3.0715,3.0767,3.0796,3.0796,3.0796,3.0796,3.0796,3.0796,3.0943,3.1177,3.1177,3.1388,3.171,3.1959,3.2105,3.2229,3.2551,3.2683,3.2683,3.2771,3.28,3.28,3.28,3.28,3.28,3.28,3.28,3.28,3.28,3.28,3.28,3.28,3.28,3.28,3.28,3.28,3.28,3.28,3.28,3.28,3.28,3.28,3.28,3.28,3.28,3.2756,3.2631,3.2276,3.1966,3.1855,3.1106,0.0,0.0,3.0392,3.0048,3.0406,3.0115,3.0048,0.0,0.0,0.0,0.0,3.1832,3.2121,3.2778,3.28,3.28,3.28,3.28,3.28,3.28,3.28,3.28,3.28,3.28,3.28,3.28,3.28,3.28,3.28,3.28,3.28,3.28,3.28,3.28,3.28,3.28,3.28,3.28,2.933,2.9491,2.9643,2.9643,2.9789,2.995,3.0097,3.0126,3.0185,3.0311,3.0472,3.0589,3.0589,3.0694,3.0796,3.0796,3.0671,3.0642,3.0796,3.0796,3.0796,3.0796,3.0796,3.0796,3.0796,3.0796,3.0796,3.0796,3.0796,3.0796,3.0811,3.0957,3.103,3.103,3.1177,3.1373,3.1534,3.1534,3.1724,3.2032,3.2229,3.239,3.2551,3.2727,3.28,3.28,3.28,3.28,3.28,3.28,3.28,3.28,3.28,3.28,3.28,3.28,3.28,3.28,3.28,3.28,3.28,3.28,3.28,3.28,3.28,3.28,3.28,3.28,3.28,3.28,3.28,3.28,3.28,3.28,3.2564,3.2276,3.2032,3.1566,0.0,3.1307,3.0861,3.0638,3.0906,3.0683,3.0638,3.0906,3.1106,0.0,3.1966,3.2232,3.2498,3.2785,3.28,3.28,3.28,3.28,3.28,3.28,3.28,3.28,3.28,3.28,3.28,3.28,3.28,3.28,3.28,3.28,3.28,3.28,3.28,3.28,3.28,3.28,3.28,3.28,2.9828,2.995,2.998,2.998,3.0024,3.012,3.0419,3.0463,3.0545,3.0767,3.0796,3.0796,3.0796,3.0796,3.0796,3.0796,3.0855,3.0855,3.0811,3.0796,3.0796,3.0796,3.0796,3.0796,3.0796,3.0855,3.0869,3.0869,3.0928,3.0943,3.0957,3.1235,3.1388,3.1402,3.1681,3.1827,3.1871,3.1871,3.2061,3.2375,3.2375,3.2551,3.28,3.28,3.28,3.28,3.28,3.28,3.28,3.28,3.28,3.28,3.28,3.28,3.28,3.28,3.28,3.28,3.28,3.28,3.28,3.28,3.28,3.28,3.28,3.28,3.28,3.28,3.28,3.28,3.28,3.28,3.28,3.28,3.28,3.2631,3.2188,0.0,3.1877,3.1574,3.1382,3.1315,3.1396,3.1337,3.1315,3.1396,3.1774,3.2032,3.2121,3.2542,3.28,3.28,3.28,3.28,3.28,3.28,3.28,3.28,3.28,3.28,3.28,3.28,3.28,3.28,3.28,3.28,3.28,3.28,3.28,3.28,3.28,3.28,3.28,3.28,3.28,3.28,2.9892,3.0126,3.0317,3.0317,3.0516,3.0665,3.0723,3.0744,3.0753,3.0796,3.0796,3.0796,3.0796,3.0796,3.0796,3.0796,3.106,3.1103,3.0826,3.0796,3.0796,3.0796,3.0796,3.0796,3.0796,3.1074,3.1206,3.1206,3.1505,3.1651,3.1651,3.1695,3.1724,3.1724,3.1768,3.1959,3.2229,3.2229,3.2419,3.2712,3.2712,3.2742,3.28,3.28,3.28,3.28,3.28,3.28,3.28,3.28,3.28,3.28,3.28,3.28,3.28,3.28,3.28,3.28,3.28,3.28,3.28,3.28,3.28,3.28,3.28,3.28,3.28,3.28,3.28,3.28,3.28,3.28,3.28,3.28,3.28,3.2763,3.2675,0.0,3.2143,3.252,3.1818,3.1463,3.1855,3.1529,3.1463,3.1855,3.1966,3.2188,3.2667,3.2756,3.28,3.28,3.28,3.28,3.28,3.28,3.28,3.28,3.28,3.28,3.28,3.28,3.28,3.28,3.28,3.28,3.28,3.28,3.28,3.28,3.28,3.28,3.28,3.28,3.28,3.28,3.0369,3.0495,3.0633,3.0633,3.0729,3.0796,3.0796,3.0796,3.0796,3.0796,3.0796,3.0869,3.1045,3.106,3.1133,3.1329,3.149,3.1505,3.1359,3.1344,3.1344,3.1344,3.1344,3.1344,3.1344,3.149,3.1578,3.1578,3.1724,3.1798,3.1798,3.1973,3.2061,3.2076,3.2258,3.2434,3.2566,3.2566,3.2654,3.28,3.28,3.28,3.28,3.28,3.28,3.28,3.28,3.28,3.28,3.28,3.28,3.28,3.28,3.28,3.28,3.28,3.28,3.28,3.28,3.28,3.28,3.28,3.28,3.28,3.28,3.28,3.28,3.28,3.28,3.28,3.28,3.28,3.28,3.28,3.28,0.0,0.0,3.2586,3.252,3.2763,3.2387,3.2188,3.2409,3.2254,3.221,3.2409,3.2431,3.2542,3.2785,3.28,3.28,3.28,3.28,3.28,3.28,3.28,3.28,3.28,3.28,3.28,3.28,3.28,3.28,3.28,3.28,3.28,3.28,3.28,3.28,3.28,3.28,3.28,3.28,3.28,3.28,3.28,3.0753,3.0796,3.0796,3.0796,3.0796,3.0796,3.0796,3.0796,3.0826,3.0899,3.0913,3.1045,3.1388,3.1417,3.152,3.1783,3.1871,3.1915,3.1915,3.1973,3.1959,3.1812,3.1798,3.1798,3.1798,3.1871,3.1915,3.1915,3.1988,3.2017,3.2053,3.2302,3.2419,3.2434,3.2683,3.28,3.28,3.28,3.28,3.28,3.28,3.28,3.28,3.28,3.28,3.28,3.28,3.28,3.28,3.28,3.28,3.28,3.28,3.28,3.28,3.28,3.28,3.28,3.28,3.28,3.28,3.28,3.28,3.28,3.28,3.28,3.28,3.28,3.28,3.28,3.28,3.28,3.28,3.28,0.0,0.0,0.0,3.28,3.28,3.28,3.28,3.28,3.28,3.28,3.28,3.28,3.28,3.28,3.28,3.28,3.28,3.28,3.28,3.28,3.28,3.28,3.28,3.28,3.28,3.28,3.28,3.28,3.28,3.28,3.28,3.28,3.28,3.28,3.28,3.28,3.28,3.28,3.28,3.28,3.28,3.28,3.0796,3.0796,3.0796,3.0796,3.0796,3.0796,3.0796,3.0796,3.0913,3.1206,3.125,3.1402,3.1724,3.1754,3.1768,3.1798,3.2076,3.2273,3.2273,3.2551,3.2449,3.1827,3.1798,3.1798,3.1798,3.209,3.2273,3.2273,3.258,3.2727,3.2727,3.2742,3.2756,3.2756,3.2785,3.28,3.28,3.28,3.28,3.28,3.28,3.28,3.28,3.28,3.28,3.28,3.28,3.28,3.28,3.28,3.28,3.28,3.28,3.28,3.28,3.28,3.28,3.28,3.28,3.28,3.28,3.28,3.28,3.28,3.28,3.28,3.28,3.28,3.28,3.28,3.28,3.28,3.28,3.28,0.0,0.0,3.28,3.28,3.28,3.28,3.28,3.28,3.28,3.28,3.28,3.28,3.28,3.28,3.28,3.28,3.28,3.28,3.28,3.28,3.28,3.28,3.28,3.28,3.28,3.28,3.28,3.28,3.28,3.28,3.28,3.28,3.28,3.28,3.28,3.28,3.28,3.28,3.28,3.28,3.28,3.28,3.0796,3.0796,3.0796,3.0796,3.0796,3.0869,3.1074,3.1103,3.122,3.1563,3.1607,3.1739,3.2061,3.2127,3.2178,3.2405,3.2537,3.261,3.261,3.2727,3.2683,3.2434,3.2419,3.2419,3.2419,3.2551,3.261,3.261,3.2727,3.28,3.28,3.28,3.28,3.28,3.28,3.28,3.28,3.28,3.28,3.28,3.28,3.28,3.28,3.28,3.28,3.28,3.28,3.28,3.28,3.28,3.28,3.28,3.28,3.28,3.28,3.28,3.28,3.28,3.28,3.28,3.28,3.28,3.28,3.28,3.28,3.28,3.28,3.28,3.28,3.28,3.28,3.28,3.28,3.28,0.0,3.28,3.28,3.28,3.28,3.28,3.28,3.28,3.28,3.28,3.28,3.28,3.28,3.28,3.28,3.28,3.28,3.28,3.28,3.28,3.28,3.28,3.28,3.28,3.28,3.28,3.28,3.28,3.28,3.28,3.28,3.28,3.28,3.28,3.28,3.28,3.28,3.28,3.28,3.28,3.28,3.28,3.0796,3.0796,3.084,3.0943,3.0957,3.106,3.1417,3.1461,3.1578,3.19,3.1959,3.2076,3.2419,3.2463,3.2551,3.2771,3.28,3.28,3.28,3.28,3.28,3.28,3.28,3.28,3.28,3.28,3.28,3.28,3.28,3.28,3.28,3.28,3.28,3.28,3.28,3.28,3.28,3.28,3.28,3.28,3.28,3.28,3.28,3.28,3.28,3.28,3.28,3.28,3.28,3.28,3.28,3.28,3.28,3.28,3.28,3.28,3.28,3.28,3.28,3.28,3.28,3.28,3.28,3.28,3.28,3.28,3.28,3.28,3.28,3.28,3.28,3.28,3.28,3.28,3.28,3.28,3.28,3.28,3.28,3.28,3.28,3.28,3.28,3.28,3.28,3.28,3.28,3.28,3.28,3.28,3.28,3.28,3.28,3.28,3.28,3.28,3.28,3.28,3.28,3.28,3.28,3.28,3.28,3.28,3.28,3.28,3.28,3.28,3.28,3.28,3.28,3.28,3.28,3.28,3.28,3.28,3.0811,3.0811,3.0913,3.1256,3.1294,3.1417,3.1754,3.1798,3.1915,3.2258,3.2302,3.2434,3.2756,3.28,3.28,3.28,3.28,3.28,3.28,3.28,3.28,3.28,3.28,3.28,3.28,3.28,3.28,3.28,3.28,3.28,3.28,3.28,3.28,3.28,3.28,3.28,3.28,3.28,3.28,3.28,3.28,3.28,3.28,3.28,3.28,3.28,3.28,3.28,3.28,3.28,3.28,3.28,3.28,3.28,3.28,3.28,3.28,3.28,3.28,3.28,3.28,3.28,3.28,3.28,3.28,3.28,3.28,3.28,3.28,3.28,3.28,3.28,3.28,3.28,3.28,3.28,3.28,3.28,3.28,3.28,3.28,3.28,3.28,3.28,3.28,3.28,3.28,3.28,3.28,3.28,3.28,3.28,3.28,3.28,3.28,3.28,3.28,3.28,3.28,3.28,3.28,3.28,3.28,3.28,3.28,3.28,3.28,3.28,3.28,3.28,3.28,3.28,3.28,3.28,3.28,3.28,3.1103,3.1147,3.1271,3.1593,3.1651,3.1754,3.209,3.2156,3.2273,3.261,3.2654,3.2683,3.2785,3.28,3.28,3.28,3.28,3.28,3.28,3.28,3.28,3.28,3.28,3.28,3.28,3.28,3.28,3.28,3.28,3.28,3.28,3.28,3.28,3.28,3.28,3.28,3.28,3.28,3.28,3.28,3.28,3.28,3.28,3.28,3.28,3.28,3.28,3.28,3.28,3.28,3.28,3.28,3.28,3.28,3.28,3.28,3.28,3.28,3.28,3.28,3.28,3.28,3.28,3.28,3.28,3.28,3.28,3.28,3.28,3.28,3.28,3.28,3.28,3.28,3.28,3.28,3.28,3.28,3.28,3.28,3.28,3.28,3.28,3.28,3.28,3.28,3.28,3.28,3.28,3.28,3.28,3.28,3.28,3.28,3.28,3.28,3.28,3.28,3.28,3.28,3.28,3.28,3.28,3.28,3.28,3.28,3.28,3.28,3.28,3.28,3.28,3.28,3.28,3.28,3.28,3.28,3.1461,3.1505,3.1607,3.1929,3.2009,3.2105,3.2449,3.2493,3.2566,3.2771,3.28,3.28,3.28,3.28,3.28,3.28,3.28,3.28,3.28,3.28,3.28,3.28,3.28,3.28,3.28,3.28,3.28,3.28,3.28,3.28,3.28,3.28,3.28,3.28,3.28,3.28,3.28,3.28,3.28,3.28,3.28,3.28,3.28,3.28,3.28,3.28,3.28,3.28,3.28,3.28,3.28,3.28,3.28,3.28,3.28,3.28,3.28,3.28,3.28,3.28,3.28,3.28,3.28,3.28,3.28,3.28,3.28,3.28,3.28,3.28,3.28,3.28,3.28,3.28,3.28,3.28,3.28,3.28,3.28,3.28,3.28,3.28,3.28,3.28,3.28,3.28,3.28,3.28,3.28,3.28,3.28,3.28,3.28,3.28,3.28,3.28,3.28,3.28,3.28,3.28,3.28,3.28,3.28,3.28,3.28,3.28,3.28,3.28,3.28,3.28,3.28,3.28,3.28,3.28,3.28,3.28,3.1827,3.1841,3.1944,3.2288,3.2346,3.2449,3.2742,3.28,3.28,3.28,3.28,3.28,3.28,3.28,3.28,3.28,3.28,3.28,3.28,3.28,3.28,3.28,3.28,3.28,3.28,3.28,3.28,3.28,3.28,3.28,3.28,3.28,3.28,3.28,3.28,3.28,3.28,3.28,3.28,3.28,3.28,3.28,3.28,3.28,3.28,3.28,3.28,3.28,3.28,3.28,3.28,3.28,3.28,3.28,3.28,3.28,3.28,3.28,3.28,3.28,3.28,3.28,3.28,3.28,3.28,3.28,3.28,3.28,3.28,3.28,3.28,3.28,3.28,3.28,3.28,3.28,3.28,3.28,3.28,3.28,3.28,3.28,3.28,3.28,3.28,3.28,3.28,3.28,3.28,3.28,3.28,3.28,3.28,3.28,3.28,3.28,3.28,3.28,3.28,3.28,3.28,3.28,3.28,3.28,3.28,3.28,3.28,3.28,3.28,3.28,3.28,3.28,3.28,3.28,3.28,3.28,3.2134,3.22,3.2302,3.2624,3.2683,3.2712,3.2785,3.28,3.28,3.28,3.28,3.28,3.28,3.28,3.28,3.28,3.28,3.28,3.28,3.28,3.28,3.28,3.28,3.28,3.28,3.28,3.28,3.28,3.28,3.28,3.28,3.28,3.28,3.28,3.28,3.28,3.28,3.28,3.28,3.28,3.28,3.28,3.28,3.28,3.28,3.28,3.28,3.28,3.28,3.28,3.28,3.28,3.28,3.28,3.28,3.28,3.28,3.28,3.28,3.28,3.28,3.28,3.28,3.28,3.28,3.28,3.28,3.28,3.28,3.28,3.28,3.28,3.28,3.28,3.28,3.28,3.28,3.28,3.28,3.28,3.28,3.28,3.28,3.28,3.28,3.28,3.28,3.28,3.28,3.28,3.28,3.28,3.28,3.28,3.28,3.28,3.28,3.28,3.28,3.28,3.28,3.28,3.28,3.28,3.28,3.28,3.28,3.28,3.28,3.28,3.28,3.28,3.28,3.28,3.28,3.28,3.2507,3.2537,3.2595,3.2771,3.28,3.28,3.28,3.28,3.28,3.28,3.28,3.28,3.28,3.28,3.28,3.28,3.28,3.28,3.28,3.28,3.28,3.28,3.28,3.28,3.28,3.28,3.28,3.28,3.28,3.28,3.28,3.28,3.28,3.28,3.28,3.28,3.28,3.28,3.28,3.28,3.28,3.28,3.28,3.28,3.28,3.28,3.28,3.28,3.28,3.28,3.28,3.28,3.28,3.28,3.28,3.28,3.28,3.28,3.28,3.28,3.28,3.28,3.28,3.28,3.28,3.28,3.28,3.28,3.28,3.28,3.28,3.28,3.28,3.28,3.28,3.28,3.28,3.28,3.28,3.28,3.28,3.28,3.28,3.28,3.28,3.28,3.28,3.28,3.28,3.28,3.28,3.28,3.28,3.28,3.28,3.28,3.28,3.28,3.28,3.28,3.28,3.28,3.28,3.28,3.28,3.28,3.28,3.28,3.28,3.28,3.28,3.28,3.28,3.28,3.28,3.28,3.28,3.28,3.28,3.28,3.28,3.28,3.28,3.28,3.28,3.28,3.28,3.28,3.28,3.28,3.28,3.28,3.28,3.28,3.28,3.28,3.28,3.28,3.28,3.28,3.28,3.28,3.28,3.28,3.28,3.28,3.28,3.28,3.28,3.28,3.28,3.28,3.28,3.28,3.28,3.28,3.28,3.28,3.28,3.28,3.28,3.28,3.28,3.28,3.28,3.28,3.28,3.28,3.28,3.28,3.28,3.28,3.28,3.28,3.28,3.28,3.28,3.28,3.28,3.28,3.28,3.28,3.28,3.28,3.28,3.28,3.28,3.28,3.28,3.28,3.28,3.28,3.28,3.28,3.28,3.28,3.28,3.28,3.28,3.28,3.28,3.28,3.28,3.28,3.28,3.28,3.28,3.28,3.28,3.28,3.28,3.28,3.28,3.28,3.28,3.28,3.28,3.28,3.28,3.28,3.28,3.28,3.28,3.28,3.28,3.28,3.28,3.28,3.28,3.28,3.28,3.28,3.28,3.28,3.28,3.28,3.28,3.28,3.28,3.28,3.28,3.28,3.28,3.28,3.28,3.28,3.28,3.28,3.28,3.28,3.28,3.28,3.28,3.28,3.28,3.28,3.28,3.28,3.28,3.28,3.28,3.28,3.28,3.28,3.28,3.28,3.28,3.28,3.28,3.28,3.28,3.28,3.28,3.28,3.28,3.28,3.28,3.28,3.28,3.28,3.28,3.28,3.28,3.28,3.28,3.28,3.28,3.28,3.28,3.28,3.28,3.28,3.28,3.28,3.28,3.28,3.28,3.28,3.28,3.28,3.28,3.28,3.28,3.28,3.28,3.28,3.28,3.28,3.28,3.28,3.28,3.28,3.28,3.28,3.28,3.28,3.28,3.28,3.28,3.28,3.28,3.28,3.28,3.28,3.28,3.28,3.28,3.28,3.28,3.28,3.28,3.28,3.28,3.28,3.28,3.28,3.28,3.28,3.28,3.28,3.28,3.28,3.28,3.28,3.28,3.28,3.28,3.28,3.28,3.28,3.28,3.28,3.28,3.28,3.28,3.28,3.28,3.28,3.28,3.28,3.28,3.28,3.28,3.28,3.28,3.28,3.28,3.28,3.28,3.28,3.28,3.28,3.28,3.28,3.28,3.28,3.28,3.28,3.28,3.28,3.28,3.28,3.28,3.28,3.28,3.28,3.28,3.28,3.28,3.28,3.28,3.28,3.28,3.28,3.28,3.28,3.28,3.28,3.28,3.28,3.28,3.28,3.28,3.28,3.28,3.28,3.28,3.28,3.28,3.28,3.28,3.28,3.28,3.28,3.28,3.28,3.28,3.28,3.28,3.28,3.28,3.28,3.28,3.28,3.28,3.28,3.28,3.28,3.28,3.28,3.28,3.28,3.28,3.28,3.28,3.28,3.28,3.28,3.28,3.28,3.28,3.28,3.28,3.28,3.28,3.28,3.28,3.28,3.28,3.28,3.28,3.28,3.28,3.28,3.28,3.28,3.28,3.28,3.28,3.28,3.28,3.28,3.28,3.28]}]]